<?xml version='1.0' encoding='UTF-8'?><gpx version="1.1" creator="JPX - https://github.com/jenetics/jpx" xmlns="http://www.topografix.com/GPX/1/1"><trk><trkseg><trkpt lat="45.5952598" lon="10.5532461"><ele>114.99999999999999</ele><time>2026-04-10T04:34:49.233Z</time></trkpt><trkpt lat="45.5951844" lon="10.5532357"><ele>115.0</ele><time>2026-04-10T04:35:05.233Z</time></trkpt><trkpt lat="45.5951168" lon="10.5532235"><ele>114.99999999999999</ele><time>2026-04-10T04:35:07.233Z</time></trkpt><trkpt lat="45.5950502" lon="10.5532354"><ele>114.99999999999999</ele><time>2026-04-10T04:35:09.233Z</time></trkpt><trkpt lat="45.594962" lon="10.5532828"><ele>115.0</ele><time>2026-04-10T04:35:12.233Z</time></trkpt><trkpt lat="45.594939" lon="10.5533879"><ele>114.99999999999999</ele><time>2026-04-10T04:35:15.233Z</time></trkpt><trkpt lat="45.594935" lon="10.5534798"><ele>114.99999999999999</ele><time>2026-04-10T04:35:20.232Z</time></trkpt><trkpt lat="45.5949487" lon="10.5535747"><ele>115.00000000000001</ele><time>2026-04-10T04:35:27.231Z</time></trkpt><trkpt lat="45.5948995" lon="10.5536461"><ele>115.0</ele><time>2026-04-10T04:36:17.249Z</time></trkpt><trkpt lat="45.5947832" lon="10.5536247"><ele>115.0</ele><time>2026-04-10T04:36:19.249Z</time></trkpt><trkpt lat="45.5947017" lon="10.5536186"><ele>115.0</ele><time>2026-04-10T04:36:20.248Z</time></trkpt><trkpt lat="45.5946213" lon="10.5536166"><ele>115.00000000000001</ele><time>2026-04-10T04:36:21.249Z</time></trkpt><trkpt lat="45.5945451" lon="10.5536256"><ele>115.0</ele><time>2026-04-10T04:36:22.249Z</time></trkpt><trkpt lat="45.5944715" lon="10.5536201"><ele>115.4</ele><time>2026-04-10T04:36:23.249Z</time></trkpt><trkpt lat="45.5943715" lon="10.5536196"><ele>115.8</ele><time>2026-04-10T04:36:25.249Z</time></trkpt><trkpt lat="45.5943069" lon="10.5535703"><ele>116.19999999999999</ele><time>2026-04-10T04:36:28.248Z</time></trkpt><trkpt lat="45.5942727" lon="10.5534421"><ele>116.6</ele><time>2026-04-10T04:36:30.248Z</time></trkpt><trkpt lat="45.5942621" lon="10.5533066"><ele>117.0</ele><time>2026-04-10T04:36:31.248Z</time></trkpt><trkpt lat="45.5942639" lon="10.5531531"><ele>117.0</ele><time>2026-04-10T04:36:32.249Z</time></trkpt><trkpt lat="45.5942681" lon="10.5530135"><ele>116.99999999999999</ele><time>2026-04-10T04:36:33.248Z</time></trkpt><trkpt lat="45.5942547" lon="10.5528693"><ele>116.99999999999999</ele><time>2026-04-10T04:36:34.248Z</time></trkpt><trkpt lat="45.5942527" lon="10.5527089"><ele>117.0</ele><time>2026-04-10T04:36:35.248Z</time></trkpt><trkpt lat="45.5942428" lon="10.5525198"><ele>117.0</ele><time>2026-04-10T04:36:36.249Z</time></trkpt><trkpt lat="45.5942412" lon="10.5523319"><ele>117.0</ele><time>2026-04-10T04:36:37.248Z</time></trkpt><trkpt lat="45.5942373" lon="10.5521492"><ele>117.0</ele><time>2026-04-10T04:36:38.249Z</time></trkpt><trkpt lat="45.5942356" lon="10.5519683"><ele>117.0</ele><time>2026-04-10T04:36:39.249Z</time></trkpt><trkpt lat="45.5942162" lon="10.5517874"><ele>117.0</ele><time>2026-04-10T04:36:40.248Z</time></trkpt><trkpt lat="45.5941844" lon="10.5516139"><ele>116.0</ele><time>2026-04-10T04:36:41.248Z</time></trkpt><trkpt lat="45.5941189" lon="10.5514501"><ele>115.0</ele><time>2026-04-10T04:36:42.249Z</time></trkpt><trkpt lat="45.5940375" lon="10.5512904"><ele>114.0</ele><time>2026-04-10T04:36:43.249Z</time></trkpt><trkpt lat="45.5939733" lon="10.5510991"><ele>113.0</ele><time>2026-04-10T04:36:44.248Z</time></trkpt><trkpt lat="45.5939414" lon="10.5508814"><ele>111.66666666666666</ele><time>2026-04-10T04:36:45.249Z</time></trkpt><trkpt lat="45.5939301" lon="10.550666"><ele>110.33333333333334</ele><time>2026-04-10T04:36:46.249Z</time></trkpt><trkpt lat="45.5939427" lon="10.5504563"><ele>109.0</ele><time>2026-04-10T04:36:47.249Z</time></trkpt><trkpt lat="45.5939927" lon="10.5502309"><ele>108.33333333333334</ele><time>2026-04-10T04:36:48.249Z</time></trkpt><trkpt lat="45.5940681" lon="10.5500212"><ele>107.66666666666666</ele><time>2026-04-10T04:36:49.249Z</time></trkpt><trkpt lat="45.5941587" lon="10.549821"><ele>107.0</ele><time>2026-04-10T04:36:50.249Z</time></trkpt><trkpt lat="45.5942485" lon="10.5496138"><ele>107.66666666666666</ele><time>2026-04-10T04:36:51.248Z</time></trkpt><trkpt lat="45.594309" lon="10.5494038"><ele>108.33333333333334</ele><time>2026-04-10T04:36:52.249Z</time></trkpt><trkpt lat="45.5943497" lon="10.5491783"><ele>109.0</ele><time>2026-04-10T04:36:53.249Z</time></trkpt><trkpt lat="45.5943755" lon="10.5489328"><ele>110.0</ele><time>2026-04-10T04:36:54.249Z</time></trkpt><trkpt lat="45.5943754" lon="10.5486775"><ele>111.0</ele><time>2026-04-10T04:36:55.249Z</time></trkpt><trkpt lat="45.5943656" lon="10.5483985"><ele>112.0</ele><time>2026-04-10T04:36:56.249Z</time></trkpt><trkpt lat="45.5943626" lon="10.5481123"><ele>113.33333333333334</ele><time>2026-04-10T04:36:57.249Z</time></trkpt><trkpt lat="45.5943549" lon="10.5478263"><ele>114.66666666666666</ele><time>2026-04-10T04:36:58.249Z</time></trkpt><trkpt lat="45.59436" lon="10.5475296"><ele>116.0</ele><time>2026-04-10T04:36:59.249Z</time></trkpt><trkpt lat="45.5943825" lon="10.5472368"><ele>116.66666666666666</ele><time>2026-04-10T04:37:00.249Z</time></trkpt><trkpt lat="45.5944162" lon="10.5469629"><ele>117.33333333333334</ele><time>2026-04-10T04:37:01.249Z</time></trkpt><trkpt lat="45.5944471" lon="10.5467252"><ele>118.0</ele><time>2026-04-10T04:37:02.249Z</time></trkpt><trkpt lat="45.5944736" lon="10.5465011"><ele>118.0</ele><time>2026-04-10T04:37:03.249Z</time></trkpt><trkpt lat="45.5944892" lon="10.5463081"><ele>118.00000000000001</ele><time>2026-04-10T04:37:04.249Z</time></trkpt><trkpt lat="45.5945105" lon="10.5461366"><ele>118.00000000000001</ele><time>2026-04-10T04:37:05.248Z</time></trkpt><trkpt lat="45.5945392" lon="10.5460013"><ele>118.0</ele><time>2026-04-10T04:37:06.249Z</time></trkpt><trkpt lat="45.5945685" lon="10.5458979"><ele>118.0</ele><time>2026-04-10T04:37:07.249Z</time></trkpt><trkpt lat="45.5946106" lon="10.545813"><ele>118.75</ele><time>2026-04-10T04:37:08.249Z</time></trkpt><trkpt lat="45.5945935" lon="10.5456173"><ele>119.5</ele><time>2026-04-10T04:37:10.249Z</time></trkpt><trkpt lat="45.5945543" lon="10.5454727"><ele>120.25</ele><time>2026-04-10T04:37:11.248Z</time></trkpt><trkpt lat="45.5945249" lon="10.5452746"><ele>121.0</ele><time>2026-04-10T04:37:12.249Z</time></trkpt><trkpt lat="45.5945035" lon="10.5450751"><ele>121.0</ele><time>2026-04-10T04:37:13.249Z</time></trkpt><trkpt lat="45.5944911" lon="10.5448649"><ele>121.0</ele><time>2026-04-10T04:37:14.249Z</time></trkpt><trkpt lat="45.5944855" lon="10.5446556"><ele>121.0</ele><time>2026-04-10T04:37:15.249Z</time></trkpt><trkpt lat="45.5944789" lon="10.5444596"><ele>121.0</ele><time>2026-04-10T04:37:16.249Z</time></trkpt><trkpt lat="45.5944731" lon="10.5442767"><ele>122.0</ele><time>2026-04-10T04:37:17.248Z</time></trkpt><trkpt lat="45.5944564" lon="10.5440964"><ele>123.0</ele><time>2026-04-10T04:37:18.249Z</time></trkpt><trkpt lat="45.594411" lon="10.543938"><ele>124.0</ele><time>2026-04-10T04:37:19.249Z</time></trkpt><trkpt lat="45.5943538" lon="10.5437691"><ele>125.0</ele><time>2026-04-10T04:37:20.249Z</time></trkpt><trkpt lat="45.5943024" lon="10.543598"><ele>125.5</ele><time>2026-04-10T04:37:21.248Z</time></trkpt><trkpt lat="45.5942575" lon="10.5434255"><ele>126.0</ele><time>2026-04-10T04:37:22.248Z</time></trkpt><trkpt lat="45.5942106" lon="10.5432451"><ele>126.5</ele><time>2026-04-10T04:37:23.249Z</time></trkpt><trkpt lat="45.5941523" lon="10.5430449"><ele>127.0</ele><time>2026-04-10T04:37:24.249Z</time></trkpt><trkpt lat="45.5940902" lon="10.5428186"><ele>127.66666666666667</ele><time>2026-04-10T04:37:25.249Z</time></trkpt><trkpt lat="45.5940417" lon="10.5426025"><ele>128.33333333333334</ele><time>2026-04-10T04:37:26.249Z</time></trkpt><trkpt lat="45.5940138" lon="10.5423727"><ele>129.0</ele><time>2026-04-10T04:37:27.249Z</time></trkpt><trkpt lat="45.5940259" lon="10.5421535"><ele>130.33333333333334</ele><time>2026-04-10T04:37:28.249Z</time></trkpt><trkpt lat="45.5940689" lon="10.5419368"><ele>131.66666666666669</ele><time>2026-04-10T04:37:29.249Z</time></trkpt><trkpt lat="45.5941207" lon="10.5417163"><ele>133.0</ele><time>2026-04-10T04:37:30.249Z</time></trkpt><trkpt lat="45.5941662" lon="10.5415339"><ele>133.0</ele><time>2026-04-10T04:37:31.249Z</time></trkpt><trkpt lat="45.5942015" lon="10.5413693"><ele>133.0</ele><time>2026-04-10T04:37:32.248Z</time></trkpt><trkpt lat="45.5942323" lon="10.5412217"><ele>133.0</ele><time>2026-04-10T04:37:33.249Z</time></trkpt><trkpt lat="45.5942453" lon="10.5411021"><ele>133.0</ele><time>2026-04-10T04:37:34.249Z</time></trkpt><trkpt lat="45.5942175" lon="10.5409821"><ele>133.0</ele><time>2026-04-10T04:37:35.248Z</time></trkpt><trkpt lat="45.5941646" lon="10.5408895"><ele>134.0</ele><time>2026-04-10T04:37:36.249Z</time></trkpt><trkpt lat="45.5940897" lon="10.5408529"><ele>135.0</ele><time>2026-04-10T04:37:37.249Z</time></trkpt><trkpt lat="45.5939894" lon="10.5408746"><ele>136.0</ele><time>2026-04-10T04:37:38.249Z</time></trkpt><trkpt lat="45.5938957" lon="10.5409585"><ele>137.0</ele><time>2026-04-10T04:37:39.249Z</time></trkpt><trkpt lat="45.5938065" lon="10.5410518"><ele>138.0</ele><time>2026-04-10T04:37:40.249Z</time></trkpt><trkpt lat="45.5937019" lon="10.5411"><ele>139.0</ele><time>2026-04-10T04:37:41.249Z</time></trkpt><trkpt lat="45.593618" lon="10.5410911"><ele>140.0</ele><time>2026-04-10T04:37:42.249Z</time></trkpt><trkpt lat="45.5935488" lon="10.5410232"><ele>141.0</ele><time>2026-04-10T04:37:43.249Z</time></trkpt><trkpt lat="45.5934754" lon="10.5409021"><ele>142.0</ele><time>2026-04-10T04:37:44.249Z</time></trkpt><trkpt lat="45.5933934" lon="10.5407529"><ele>143.0</ele><time>2026-04-10T04:37:45.248Z</time></trkpt><trkpt lat="45.5933242" lon="10.5405591"><ele>144.0</ele><time>2026-04-10T04:37:46.249Z</time></trkpt><trkpt lat="45.5932412" lon="10.5403595"><ele>145.0</ele><time>2026-04-10T04:37:47.247Z</time></trkpt><trkpt lat="45.5931773" lon="10.5401581"><ele>146.0</ele><time>2026-04-10T04:37:48.248Z</time></trkpt><trkpt lat="45.5931196" lon="10.5399471"><ele>146.0</ele><time>2026-04-10T04:37:49.248Z</time></trkpt><trkpt lat="45.5930616" lon="10.5397346"><ele>146.0</ele><time>2026-04-10T04:37:50.247Z</time></trkpt><trkpt lat="45.5930052" lon="10.5395184"><ele>146.0</ele><time>2026-04-10T04:37:51.247Z</time></trkpt><trkpt lat="45.5929399" lon="10.5393065"><ele>147.0</ele><time>2026-04-10T04:37:52.248Z</time></trkpt><trkpt lat="45.5928798" lon="10.5391191"><ele>148.0</ele><time>2026-04-10T04:37:53.247Z</time></trkpt><trkpt lat="45.5928219" lon="10.5389514"><ele>149.0</ele><time>2026-04-10T04:37:54.248Z</time></trkpt><trkpt lat="45.5927818" lon="10.5387828"><ele>150.0</ele><time>2026-04-10T04:37:55.247Z</time></trkpt><trkpt lat="45.5927656" lon="10.5385836"><ele>151.0</ele><time>2026-04-10T04:37:56.248Z</time></trkpt><trkpt lat="45.5927515" lon="10.5383662"><ele>152.0</ele><time>2026-04-10T04:37:57.248Z</time></trkpt><trkpt lat="45.5927458" lon="10.5381367"><ele>153.0</ele><time>2026-04-10T04:37:58.247Z</time></trkpt><trkpt lat="45.592741" lon="10.537881"><ele>154.0</ele><time>2026-04-10T04:37:59.248Z</time></trkpt><trkpt lat="45.5927373" lon="10.5376146"><ele>155.0</ele><time>2026-04-10T04:38:00.248Z</time></trkpt><trkpt lat="45.5927276" lon="10.5373477"><ele>156.0</ele><time>2026-04-10T04:38:01.248Z</time></trkpt><trkpt lat="45.5927169" lon="10.5370781"><ele>156.33333333333334</ele><time>2026-04-10T04:38:02.248Z</time></trkpt><trkpt lat="45.592704" lon="10.5368027"><ele>156.66666666666669</ele><time>2026-04-10T04:38:03.248Z</time></trkpt><trkpt lat="45.592695" lon="10.5365225"><ele>157.0</ele><time>2026-04-10T04:38:04.247Z</time></trkpt><trkpt lat="45.5926932" lon="10.5362392"><ele>157.0</ele><time>2026-04-10T04:38:05.247Z</time></trkpt><trkpt lat="45.5927158" lon="10.5359475"><ele>157.0</ele><time>2026-04-10T04:38:06.248Z</time></trkpt><trkpt lat="45.5927575" lon="10.5356617"><ele>157.0</ele><time>2026-04-10T04:38:07.248Z</time></trkpt><trkpt lat="45.5928202" lon="10.5353689"><ele>157.0</ele><time>2026-04-10T04:38:08.247Z</time></trkpt><trkpt lat="45.5928856" lon="10.5350764"><ele>157.0</ele><time>2026-04-10T04:38:09.248Z</time></trkpt><trkpt lat="45.5929273" lon="10.5347752"><ele>157.0</ele><time>2026-04-10T04:38:10.248Z</time></trkpt><trkpt lat="45.5929497" lon="10.5344785"><ele>157.33333333333334</ele><time>2026-04-10T04:38:11.248Z</time></trkpt><trkpt lat="45.5929642" lon="10.53417"><ele>157.66666666666666</ele><time>2026-04-10T04:38:12.248Z</time></trkpt><trkpt lat="45.5929663" lon="10.5338534"><ele>158.0</ele><time>2026-04-10T04:38:13.248Z</time></trkpt><trkpt lat="45.5929655" lon="10.5335522"><ele>156.66666666666666</ele><time>2026-04-10T04:38:14.248Z</time></trkpt><trkpt lat="45.5929708" lon="10.5332842"><ele>155.33333333333334</ele><time>2026-04-10T04:38:15.247Z</time></trkpt><trkpt lat="45.5929771" lon="10.5330408"><ele>154.0</ele><time>2026-04-10T04:38:16.247Z</time></trkpt><trkpt lat="45.592982" lon="10.5328183"><ele>154.0</ele><time>2026-04-10T04:38:17.248Z</time></trkpt><trkpt lat="45.5929956" lon="10.5325983"><ele>154.0</ele><time>2026-04-10T04:38:18.248Z</time></trkpt><trkpt lat="45.5930116" lon="10.5323839"><ele>154.0</ele><time>2026-04-10T04:38:19.248Z</time></trkpt><trkpt lat="45.5930225" lon="10.5321726"><ele>154.0</ele><time>2026-04-10T04:38:20.248Z</time></trkpt><trkpt lat="45.5930277" lon="10.5319437"><ele>154.0</ele><time>2026-04-10T04:38:21.248Z</time></trkpt><trkpt lat="45.5930422" lon="10.5316966"><ele>154.0</ele><time>2026-04-10T04:38:22.248Z</time></trkpt><trkpt lat="45.5930712" lon="10.5314374"><ele>154.33333333333334</ele><time>2026-04-10T04:38:23.248Z</time></trkpt><trkpt lat="45.5931133" lon="10.5311635"><ele>154.66666666666666</ele><time>2026-04-10T04:38:24.248Z</time></trkpt><trkpt lat="45.5931547" lon="10.5308793"><ele>155.0</ele><time>2026-04-10T04:38:25.248Z</time></trkpt><trkpt lat="45.5931913" lon="10.5305932"><ele>155.0</ele><time>2026-04-10T04:38:26.248Z</time></trkpt><trkpt lat="45.593223" lon="10.5303067"><ele>155.0</ele><time>2026-04-10T04:38:27.248Z</time></trkpt><trkpt lat="45.5932515" lon="10.5300249"><ele>155.0</ele><time>2026-04-10T04:38:28.247Z</time></trkpt><trkpt lat="45.5932582" lon="10.5297737"><ele>155.0</ele><time>2026-04-10T04:38:29.248Z</time></trkpt><trkpt lat="45.5932362" lon="10.5295544"><ele>155.0</ele><time>2026-04-10T04:38:30.248Z</time></trkpt><trkpt lat="45.5932072" lon="10.5293539"><ele>155.0</ele><time>2026-04-10T04:38:31.248Z</time></trkpt><trkpt lat="45.5931764" lon="10.5291701"><ele>155.0</ele><time>2026-04-10T04:38:32.247Z</time></trkpt><trkpt lat="45.593146" lon="10.5289907"><ele>155.0</ele><time>2026-04-10T04:38:33.247Z</time></trkpt><trkpt lat="45.5931128" lon="10.5288105"><ele>155.0</ele><time>2026-04-10T04:38:34.248Z</time></trkpt><trkpt lat="45.5930755" lon="10.5286185"><ele>155.0</ele><time>2026-04-10T04:38:35.248Z</time></trkpt><trkpt lat="45.5930347" lon="10.5284037"><ele>155.0</ele><time>2026-04-10T04:38:36.248Z</time></trkpt><trkpt lat="45.592982" lon="10.528157"><ele>154.33333333333331</ele><time>2026-04-10T04:38:37.248Z</time></trkpt><trkpt lat="45.5929287" lon="10.5278862"><ele>153.66666666666666</ele><time>2026-04-10T04:38:38.248Z</time></trkpt><trkpt lat="45.5928798" lon="10.5276107"><ele>153.0</ele><time>2026-04-10T04:38:39.247Z</time></trkpt><trkpt lat="45.5928324" lon="10.5273471"><ele>154.66666666666666</ele><time>2026-04-10T04:38:40.247Z</time></trkpt><trkpt lat="45.5927817" lon="10.5270971"><ele>156.33333333333331</ele><time>2026-04-10T04:38:41.248Z</time></trkpt><trkpt lat="45.592741" lon="10.5268885"><ele>158.0</ele><time>2026-04-10T04:38:42.248Z</time></trkpt><trkpt lat="45.5927021" lon="10.5266928"><ele>158.0</ele><time>2026-04-10T04:38:43.248Z</time></trkpt><trkpt lat="45.5926515" lon="10.5265208"><ele>158.0</ele><time>2026-04-10T04:38:44.248Z</time></trkpt><trkpt lat="45.5926178" lon="10.5263592"><ele>158.0</ele><time>2026-04-10T04:38:45.247Z</time></trkpt><trkpt lat="45.5925897" lon="10.5262182"><ele>158.0</ele><time>2026-04-10T04:38:46.247Z</time></trkpt><trkpt lat="45.5925654" lon="10.5260915"><ele>158.0</ele><time>2026-04-10T04:38:47.248Z</time></trkpt><trkpt lat="45.5925605" lon="10.5259489"><ele>158.0</ele><time>2026-04-10T04:38:48.248Z</time></trkpt><trkpt lat="45.592568" lon="10.5257996"><ele>158.0</ele><time>2026-04-10T04:38:49.247Z</time></trkpt><trkpt lat="45.5925813" lon="10.5256356"><ele>158.0</ele><time>2026-04-10T04:38:50.248Z</time></trkpt><trkpt lat="45.5925783" lon="10.5254291"><ele>158.0</ele><time>2026-04-10T04:38:51.248Z</time></trkpt><trkpt lat="45.5925836" lon="10.5251911"><ele>158.33333333333331</ele><time>2026-04-10T04:38:52.248Z</time></trkpt><trkpt lat="45.5925927" lon="10.524932"><ele>158.66666666666666</ele><time>2026-04-10T04:38:53.248Z</time></trkpt><trkpt lat="45.5926002" lon="10.524665"><ele>159.0</ele><time>2026-04-10T04:38:54.247Z</time></trkpt><trkpt lat="45.5926157" lon="10.5244061"><ele>159.66666666666666</ele><time>2026-04-10T04:38:55.247Z</time></trkpt><trkpt lat="45.592621" lon="10.5241548"><ele>160.33333333333331</ele><time>2026-04-10T04:38:56.248Z</time></trkpt><trkpt lat="45.5926241" lon="10.5239088"><ele>161.0</ele><time>2026-04-10T04:38:57.248Z</time></trkpt><trkpt lat="45.5926014" lon="10.5236871"><ele>159.75</ele><time>2026-04-10T04:38:58.248Z</time></trkpt><trkpt lat="45.5925625" lon="10.5234705"><ele>158.5</ele><time>2026-04-10T04:38:59.248Z</time></trkpt><trkpt lat="45.5925125" lon="10.523268"><ele>157.25</ele><time>2026-04-10T04:39:00.248Z</time></trkpt><trkpt lat="45.5924601" lon="10.523088"><ele>156.0</ele><time>2026-04-10T04:39:01.248Z</time></trkpt><trkpt lat="45.5924185" lon="10.5229279"><ele>154.83333333333334</ele><time>2026-04-10T04:39:02.248Z</time></trkpt><trkpt lat="45.5923867" lon="10.5227898"><ele>153.66666666666666</ele><time>2026-04-10T04:39:03.248Z</time></trkpt><trkpt lat="45.5923469" lon="10.5226621"><ele>152.5</ele><time>2026-04-10T04:39:04.248Z</time></trkpt><trkpt lat="45.5922836" lon="10.5225854"><ele>151.33333333333331</ele><time>2026-04-10T04:39:05.248Z</time></trkpt><trkpt lat="45.5922247" lon="10.5225524"><ele>150.16666666666666</ele><time>2026-04-10T04:39:06.248Z</time></trkpt><trkpt lat="45.5921426" lon="10.5225519"><ele>149.0</ele><time>2026-04-10T04:39:07.248Z</time></trkpt><trkpt lat="45.592066" lon="10.5226191"><ele>150.8</ele><time>2026-04-10T04:39:08.248Z</time></trkpt><trkpt lat="45.5919906" lon="10.5227364"><ele>152.60000000000002</ele><time>2026-04-10T04:39:09.248Z</time></trkpt><trkpt lat="45.5919132" lon="10.5228634"><ele>154.4</ele><time>2026-04-10T04:39:10.248Z</time></trkpt><trkpt lat="45.5918232" lon="10.5229613"><ele>156.20000000000002</ele><time>2026-04-10T04:39:11.247Z</time></trkpt><trkpt lat="45.5917264" lon="10.5230251"><ele>158.0</ele><time>2026-04-10T04:39:12.248Z</time></trkpt><trkpt lat="45.5916345" lon="10.5230804"><ele>158.0</ele><time>2026-04-10T04:39:13.248Z</time></trkpt><trkpt lat="45.5915573" lon="10.52308"><ele>158.0</ele><time>2026-04-10T04:39:14.248Z</time></trkpt><trkpt lat="45.5914866" lon="10.5229842"><ele>158.0</ele><time>2026-04-10T04:39:15.248Z</time></trkpt><trkpt lat="45.591418" lon="10.5228852"><ele>158.0</ele><time>2026-04-10T04:39:16.248Z</time></trkpt><trkpt lat="45.5913576" lon="10.5227836"><ele>158.0</ele><time>2026-04-10T04:39:17.248Z</time></trkpt><trkpt lat="45.5912855" lon="10.5227079"><ele>158.0</ele><time>2026-04-10T04:39:18.248Z</time></trkpt><trkpt lat="45.5911987" lon="10.5226857"><ele>158.0</ele><time>2026-04-10T04:39:19.248Z</time></trkpt><trkpt lat="45.5911335" lon="10.5226997"><ele>158.0</ele><time>2026-04-10T04:39:20.248Z</time></trkpt><trkpt lat="45.5910726" lon="10.5227697"><ele>158.0</ele><time>2026-04-10T04:39:21.248Z</time></trkpt><trkpt lat="45.5910079" lon="10.5228658"><ele>158.0</ele><time>2026-04-10T04:39:22.248Z</time></trkpt><trkpt lat="45.5909368" lon="10.5229541"><ele>158.0</ele><time>2026-04-10T04:39:23.248Z</time></trkpt><trkpt lat="45.5908531" lon="10.5229933"><ele>157.75</ele><time>2026-04-10T04:39:24.248Z</time></trkpt><trkpt lat="45.5907611" lon="10.5230046"><ele>157.5</ele><time>2026-04-10T04:39:25.248Z</time></trkpt><trkpt lat="45.5906642" lon="10.5229727"><ele>157.25</ele><time>2026-04-10T04:39:26.247Z</time></trkpt><trkpt lat="45.5905448" lon="10.5228982"><ele>157.0</ele><time>2026-04-10T04:39:27.248Z</time></trkpt><trkpt lat="45.5903992" lon="10.5227929"><ele>157.33333333333334</ele><time>2026-04-10T04:39:28.248Z</time></trkpt><trkpt lat="45.59024" lon="10.5226811"><ele>157.66666666666666</ele><time>2026-04-10T04:39:29.248Z</time></trkpt><trkpt lat="45.590077" lon="10.5225506"><ele>158.0</ele><time>2026-04-10T04:39:30.248Z</time></trkpt><trkpt lat="45.5899118" lon="10.5224151"><ele>158.0</ele><time>2026-04-10T04:39:31.248Z</time></trkpt><trkpt lat="45.5897275" lon="10.5222785"><ele>158.0</ele><time>2026-04-10T04:39:32.248Z</time></trkpt><trkpt lat="45.5895481" lon="10.5221194"><ele>158.0</ele><time>2026-04-10T04:39:33.248Z</time></trkpt><trkpt lat="45.5893567" lon="10.5219538"><ele>156.33333333333331</ele><time>2026-04-10T04:39:34.248Z</time></trkpt><trkpt lat="45.589164" lon="10.5218029"><ele>154.66666666666666</ele><time>2026-04-10T04:39:35.248Z</time></trkpt><trkpt lat="45.5889726" lon="10.5216598"><ele>153.0</ele><time>2026-04-10T04:39:36.248Z</time></trkpt><trkpt lat="45.5887782" lon="10.5215196"><ele>153.0</ele><time>2026-04-10T04:39:37.248Z</time></trkpt><trkpt lat="45.5885883" lon="10.5213835"><ele>153.0</ele><time>2026-04-10T04:39:38.248Z</time></trkpt><trkpt lat="45.5884041" lon="10.5212519"><ele>153.0</ele><time>2026-04-10T04:39:39.248Z</time></trkpt><trkpt lat="45.5882308" lon="10.5211129"><ele>153.0</ele><time>2026-04-10T04:39:40.248Z</time></trkpt><trkpt lat="45.5880667" lon="10.5209723"><ele>153.0</ele><time>2026-04-10T04:39:41.248Z</time></trkpt><trkpt lat="45.5879167" lon="10.5208151"><ele>153.0</ele><time>2026-04-10T04:39:42.248Z</time></trkpt><trkpt lat="45.5877823" lon="10.5206401"><ele>152.66666666666666</ele><time>2026-04-10T04:39:43.248Z</time></trkpt><trkpt lat="45.5876728" lon="10.520434"><ele>152.33333333333331</ele><time>2026-04-10T04:39:44.247Z</time></trkpt><trkpt lat="45.5875763" lon="10.5202191"><ele>152.0</ele><time>2026-04-10T04:39:45.248Z</time></trkpt><trkpt lat="45.5875041" lon="10.51997"><ele>151.66666666666666</ele><time>2026-04-10T04:39:46.247Z</time></trkpt><trkpt lat="45.5874384" lon="10.5197086"><ele>151.33333333333334</ele><time>2026-04-10T04:39:47.248Z</time></trkpt><trkpt lat="45.5873677" lon="10.519458"><ele>151.0</ele><time>2026-04-10T04:39:48.248Z</time></trkpt><trkpt lat="45.5872877" lon="10.5191947"><ele>151.0</ele><time>2026-04-10T04:39:49.248Z</time></trkpt><trkpt lat="45.5872088" lon="10.5189429"><ele>151.0</ele><time>2026-04-10T04:39:50.247Z</time></trkpt><trkpt lat="45.58714" lon="10.5187105"><ele>151.0</ele><time>2026-04-10T04:39:51.248Z</time></trkpt><trkpt lat="45.5870791" lon="10.5184904"><ele>151.5</ele><time>2026-04-10T04:39:52.247Z</time></trkpt><trkpt lat="45.5870215" lon="10.5182913"><ele>152.0</ele><time>2026-04-10T04:39:53.247Z</time></trkpt><trkpt lat="45.5869856" lon="10.5180972"><ele>152.5</ele><time>2026-04-10T04:39:54.248Z</time></trkpt><trkpt lat="45.5869557" lon="10.5179051"><ele>153.0</ele><time>2026-04-10T04:39:55.248Z</time></trkpt><trkpt lat="45.5869524" lon="10.5177271"><ele>153.5</ele><time>2026-04-10T04:39:56.248Z</time></trkpt><trkpt lat="45.5869762" lon="10.5175594"><ele>154.0</ele><time>2026-04-10T04:39:57.247Z</time></trkpt><trkpt lat="45.587004" lon="10.5174038"><ele>154.5</ele><time>2026-04-10T04:39:58.248Z</time></trkpt><trkpt lat="45.5870302" lon="10.5172477"><ele>155.0</ele><time>2026-04-10T04:39:59.248Z</time></trkpt><trkpt lat="45.5870656" lon="10.5170924"><ele>154.8</ele><time>2026-04-10T04:40:00.248Z</time></trkpt><trkpt lat="45.5871172" lon="10.5169669"><ele>154.6</ele><time>2026-04-10T04:40:01.248Z</time></trkpt><trkpt lat="45.5871869" lon="10.5168505"><ele>154.4</ele><time>2026-04-10T04:40:02.248Z</time></trkpt><trkpt lat="45.5872695" lon="10.5167456"><ele>154.2</ele><time>2026-04-10T04:40:03.248Z</time></trkpt><trkpt lat="45.5873728" lon="10.5166354"><ele>154.0</ele><time>2026-04-10T04:40:04.247Z</time></trkpt><trkpt lat="45.5874813" lon="10.5165186"><ele>154.0</ele><time>2026-04-10T04:40:05.247Z</time></trkpt><trkpt lat="45.5876034" lon="10.5163583"><ele>154.0</ele><time>2026-04-10T04:40:06.248Z</time></trkpt><trkpt lat="45.5877492" lon="10.5161894"><ele>154.0</ele><time>2026-04-10T04:40:07.248Z</time></trkpt><trkpt lat="45.58791" lon="10.5160111"><ele>155.66666666666669</ele><time>2026-04-10T04:40:08.248Z</time></trkpt><trkpt lat="45.5880768" lon="10.5158379"><ele>157.33333333333334</ele><time>2026-04-10T04:40:09.248Z</time></trkpt><trkpt lat="45.5882406" lon="10.5156606"><ele>159.0</ele><time>2026-04-10T04:40:10.248Z</time></trkpt><trkpt lat="45.5883995" lon="10.5154903"><ele>158.0</ele><time>2026-04-10T04:40:11.247Z</time></trkpt><trkpt lat="45.5885609" lon="10.5153065"><ele>157.0</ele><time>2026-04-10T04:40:12.248Z</time></trkpt><trkpt lat="45.5887252" lon="10.5151208"><ele>156.0</ele><time>2026-04-10T04:40:13.248Z</time></trkpt><trkpt lat="45.5888894" lon="10.5149402"><ele>156.33333333333334</ele><time>2026-04-10T04:40:14.248Z</time></trkpt><trkpt lat="45.5890529" lon="10.514763"><ele>156.66666666666669</ele><time>2026-04-10T04:40:15.248Z</time></trkpt><trkpt lat="45.5892128" lon="10.514592"><ele>157.0</ele><time>2026-04-10T04:40:16.248Z</time></trkpt><trkpt lat="45.5893633" lon="10.5144272"><ele>157.0</ele><time>2026-04-10T04:40:17.248Z</time></trkpt><trkpt lat="45.5895008" lon="10.5142598"><ele>157.0</ele><time>2026-04-10T04:40:18.247Z</time></trkpt><trkpt lat="45.5896331" lon="10.5141033"><ele>157.0</ele><time>2026-04-10T04:40:19.248Z</time></trkpt><trkpt lat="45.5897621" lon="10.5139784"><ele>157.0</ele><time>2026-04-10T04:40:20.248Z</time></trkpt><trkpt lat="45.5898848" lon="10.5138484"><ele>157.0</ele><time>2026-04-10T04:40:21.248Z</time></trkpt><trkpt lat="45.5899987" lon="10.5137268"><ele>157.0</ele><time>2026-04-10T04:40:22.247Z</time></trkpt><trkpt lat="45.5901171" lon="10.5135935"><ele>157.0</ele><time>2026-04-10T04:40:23.247Z</time></trkpt><trkpt lat="45.5902409" lon="10.5134626"><ele>157.75</ele><time>2026-04-10T04:40:24.248Z</time></trkpt><trkpt lat="45.5903506" lon="10.5133232"><ele>158.5</ele><time>2026-04-10T04:40:25.248Z</time></trkpt><trkpt lat="45.5904457" lon="10.5131844"><ele>159.25</ele><time>2026-04-10T04:40:26.247Z</time></trkpt><trkpt lat="45.5905277" lon="10.5130456"><ele>160.0</ele><time>2026-04-10T04:40:27.248Z</time></trkpt><trkpt lat="45.5906023" lon="10.5128992"><ele>160.0</ele><time>2026-04-10T04:40:28.248Z</time></trkpt><trkpt lat="45.5906681" lon="10.5127394"><ele>160.0</ele><time>2026-04-10T04:40:29.248Z</time></trkpt><trkpt lat="45.590727" lon="10.5125675"><ele>160.0</ele><time>2026-04-10T04:40:30.248Z</time></trkpt><trkpt lat="45.590782" lon="10.5123744"><ele>160.0</ele><time>2026-04-10T04:40:31.248Z</time></trkpt><trkpt lat="45.5908283" lon="10.5121721"><ele>160.0</ele><time>2026-04-10T04:40:32.248Z</time></trkpt><trkpt lat="45.5908605" lon="10.5119639"><ele>160.0</ele><time>2026-04-10T04:40:33.248Z</time></trkpt><trkpt lat="45.5908868" lon="10.5117665"><ele>160.0</ele><time>2026-04-10T04:40:34.247Z</time></trkpt><trkpt lat="45.5909248" lon="10.5115636"><ele>160.0</ele><time>2026-04-10T04:40:35.247Z</time></trkpt><trkpt lat="45.5909661" lon="10.5113565"><ele>159.66666666666669</ele><time>2026-04-10T04:40:36.247Z</time></trkpt><trkpt lat="45.5910069" lon="10.5111369"><ele>159.33333333333334</ele><time>2026-04-10T04:40:37.248Z</time></trkpt><trkpt lat="45.5910484" lon="10.5109138"><ele>159.0</ele><time>2026-04-10T04:40:38.248Z</time></trkpt><trkpt lat="45.5910983" lon="10.5106653"><ele>159.0</ele><time>2026-04-10T04:40:39.248Z</time></trkpt><trkpt lat="45.5911574" lon="10.5104147"><ele>159.0</ele><time>2026-04-10T04:40:40.248Z</time></trkpt><trkpt lat="45.5912123" lon="10.5101584"><ele>159.0</ele><time>2026-04-10T04:40:41.248Z</time></trkpt><trkpt lat="45.5912727" lon="10.5099028"><ele>161.0</ele><time>2026-04-10T04:40:42.248Z</time></trkpt><trkpt lat="45.5913255" lon="10.5096556"><ele>163.0</ele><time>2026-04-10T04:40:43.248Z</time></trkpt><trkpt lat="45.5913858" lon="10.5094166"><ele>165.0</ele><time>2026-04-10T04:40:44.248Z</time></trkpt><trkpt lat="45.5914403" lon="10.5091877"><ele>165.0</ele><time>2026-04-10T04:40:45.248Z</time></trkpt><trkpt lat="45.591493" lon="10.5089635"><ele>165.0</ele><time>2026-04-10T04:40:46.248Z</time></trkpt><trkpt lat="45.5915427" lon="10.5087429"><ele>165.0</ele><time>2026-04-10T04:40:47.248Z</time></trkpt><trkpt lat="45.5915964" lon="10.5085397"><ele>164.66666666666666</ele><time>2026-04-10T04:40:48.247Z</time></trkpt><trkpt lat="45.5916545" lon="10.5083272"><ele>164.33333333333331</ele><time>2026-04-10T04:40:49.248Z</time></trkpt><trkpt lat="45.5917079" lon="10.5080947"><ele>164.0</ele><time>2026-04-10T04:40:50.248Z</time></trkpt><trkpt lat="45.5917678" lon="10.5078612"><ele>163.33333333333331</ele><time>2026-04-10T04:40:51.248Z</time></trkpt><trkpt lat="45.591832" lon="10.5076199"><ele>162.66666666666666</ele><time>2026-04-10T04:40:52.247Z</time></trkpt><trkpt lat="45.5919073" lon="10.5073786"><ele>162.0</ele><time>2026-04-10T04:40:53.248Z</time></trkpt><trkpt lat="45.5919863" lon="10.5071482"><ele>162.0</ele><time>2026-04-10T04:40:54.248Z</time></trkpt><trkpt lat="45.5920668" lon="10.5069394"><ele>162.0</ele><time>2026-04-10T04:40:55.248Z</time></trkpt><trkpt lat="45.5921443" lon="10.5067617"><ele>162.0</ele><time>2026-04-10T04:40:56.248Z</time></trkpt><trkpt lat="45.5922066" lon="10.5066058"><ele>162.0</ele><time>2026-04-10T04:40:57.248Z</time></trkpt><trkpt lat="45.5922622" lon="10.5064793"><ele>162.0</ele><time>2026-04-10T04:40:58.248Z</time></trkpt><trkpt lat="45.5923143" lon="10.5063681"><ele>162.0</ele><time>2026-04-10T04:40:59.248Z</time></trkpt><trkpt lat="45.5923563" lon="10.5062761"><ele>162.0</ele><time>2026-04-10T04:41:00.248Z</time></trkpt><trkpt lat="45.5923941" lon="10.5062026"><ele>162.0</ele><time>2026-04-10T04:41:01.248Z</time></trkpt><trkpt lat="45.5924633" lon="10.5060742"><ele>162.0</ele><time>2026-04-10T04:41:03.248Z</time></trkpt><trkpt lat="45.5925073" lon="10.5059775"><ele>162.0</ele><time>2026-04-10T04:41:05.248Z</time></trkpt><trkpt lat="45.5925753" lon="10.5059114"><ele>162.33333333333334</ele><time>2026-04-10T04:41:08.248Z</time></trkpt><trkpt lat="45.5926118" lon="10.505833"><ele>162.66666666666666</ele><time>2026-04-10T04:41:11.248Z</time></trkpt><trkpt lat="45.5926567" lon="10.5057561"><ele>163.0</ele><time>2026-04-10T04:41:16.247Z</time></trkpt><trkpt lat="45.5927212" lon="10.5056345"><ele>163.33333333333331</ele><time>2026-04-10T04:41:34.248Z</time></trkpt><trkpt lat="45.5927658" lon="10.5055414"><ele>163.66666666666666</ele><time>2026-04-10T04:41:35.248Z</time></trkpt><trkpt lat="45.5928197" lon="10.5054194"><ele>164.0</ele><time>2026-04-10T04:41:36.248Z</time></trkpt><trkpt lat="45.5928835" lon="10.5052884"><ele>164.75</ele><time>2026-04-10T04:41:37.248Z</time></trkpt><trkpt lat="45.5929646" lon="10.5051429"><ele>165.5</ele><time>2026-04-10T04:41:38.248Z</time></trkpt><trkpt lat="45.59306" lon="10.5049836"><ele>166.25</ele><time>2026-04-10T04:41:39.247Z</time></trkpt><trkpt lat="45.5931847" lon="10.5048271"><ele>167.0</ele><time>2026-04-10T04:41:40.248Z</time></trkpt><trkpt lat="45.5933134" lon="10.5046946"><ele>167.33333333333331</ele><time>2026-04-10T04:41:41.248Z</time></trkpt><trkpt lat="45.5934471" lon="10.504562"><ele>167.66666666666666</ele><time>2026-04-10T04:41:42.247Z</time></trkpt><trkpt lat="45.593588" lon="10.5044348"><ele>168.0</ele><time>2026-04-10T04:41:43.247Z</time></trkpt><trkpt lat="45.5937436" lon="10.5043252"><ele>168.0</ele><time>2026-04-10T04:41:44.247Z</time></trkpt><trkpt lat="45.5939072" lon="10.5042348"><ele>168.0</ele><time>2026-04-10T04:41:45.248Z</time></trkpt><trkpt lat="45.5941116" lon="10.5041669"><ele>168.0</ele><time>2026-04-10T04:41:46.248Z</time></trkpt><trkpt lat="45.5943258" lon="10.5041262"><ele>168.33333333333334</ele><time>2026-04-10T04:41:47.248Z</time></trkpt><trkpt lat="45.5945515" lon="10.5040901"><ele>168.66666666666669</ele><time>2026-04-10T04:41:48.247Z</time></trkpt><trkpt lat="45.5947641" lon="10.5040756"><ele>169.0</ele><time>2026-04-10T04:41:49.248Z</time></trkpt><trkpt lat="45.5949818" lon="10.5040799"><ele>169.0</ele><time>2026-04-10T04:41:50.247Z</time></trkpt><trkpt lat="45.5952064" lon="10.5040764"><ele>169.0</ele><time>2026-04-10T04:41:51.248Z</time></trkpt><trkpt lat="45.5954292" lon="10.5040705"><ele>169.0</ele><time>2026-04-10T04:41:52.248Z</time></trkpt><trkpt lat="45.5956584" lon="10.5040735"><ele>171.0</ele><time>2026-04-10T04:41:53.247Z</time></trkpt><trkpt lat="45.5958873" lon="10.5040803"><ele>173.0</ele><time>2026-04-10T04:41:54.248Z</time></trkpt><trkpt lat="45.5961125" lon="10.5040748"><ele>172.0</ele><time>2026-04-10T04:41:55.248Z</time></trkpt><trkpt lat="45.5963395" lon="10.5040773"><ele>171.0</ele><time>2026-04-10T04:41:56.247Z</time></trkpt><trkpt lat="45.5965661" lon="10.5040814"><ele>171.0</ele><time>2026-04-10T04:41:57.247Z</time></trkpt><trkpt lat="45.5967981" lon="10.5040817"><ele>171.0</ele><time>2026-04-10T04:41:58.248Z</time></trkpt><trkpt lat="45.5970272" lon="10.5040789"><ele>171.0</ele><time>2026-04-10T04:41:59.248Z</time></trkpt><trkpt lat="45.5972573" lon="10.5040756"><ele>171.0</ele><time>2026-04-10T04:42:00.248Z</time></trkpt><trkpt lat="45.5974845" lon="10.5040689"><ele>171.0</ele><time>2026-04-10T04:42:01.247Z</time></trkpt><trkpt lat="45.5977066" lon="10.5040537"><ele>171.0</ele><time>2026-04-10T04:42:02.248Z</time></trkpt><trkpt lat="45.59793" lon="10.5040235"><ele>171.0</ele><time>2026-04-10T04:42:03.248Z</time></trkpt><trkpt lat="45.5981452" lon="10.503957"><ele>172.66666666666666</ele><time>2026-04-10T04:42:04.247Z</time></trkpt><trkpt lat="45.5983566" lon="10.5038607"><ele>174.33333333333331</ele><time>2026-04-10T04:42:05.248Z</time></trkpt><trkpt lat="45.5985632" lon="10.5037499"><ele>176.0</ele><time>2026-04-10T04:42:06.248Z</time></trkpt><trkpt lat="45.598758" lon="10.5036364"><ele>176.66666666666666</ele><time>2026-04-10T04:42:07.247Z</time></trkpt><trkpt lat="45.5989456" lon="10.5034847"><ele>177.33333333333334</ele><time>2026-04-10T04:42:08.247Z</time></trkpt><trkpt lat="45.5991215" lon="10.5033137"><ele>178.0</ele><time>2026-04-10T04:42:09.248Z</time></trkpt><trkpt lat="45.5992874" lon="10.5031276"><ele>178.0</ele><time>2026-04-10T04:42:10.247Z</time></trkpt><trkpt lat="45.5994461" lon="10.5029447"><ele>178.0</ele><time>2026-04-10T04:42:11.248Z</time></trkpt><trkpt lat="45.5995959" lon="10.5027933"><ele>178.0</ele><time>2026-04-10T04:42:12.248Z</time></trkpt><trkpt lat="45.5997706" lon="10.5026978"><ele>179.33333333333334</ele><time>2026-04-10T04:42:13.248Z</time></trkpt><trkpt lat="45.5999485" lon="10.502656"><ele>180.66666666666666</ele><time>2026-04-10T04:42:14.248Z</time></trkpt><trkpt lat="45.6001267" lon="10.5026454"><ele>182.0</ele><time>2026-04-10T04:42:15.248Z</time></trkpt><trkpt lat="45.6003145" lon="10.5026818"><ele>181.66666666666666</ele><time>2026-04-10T04:42:16.248Z</time></trkpt><trkpt lat="45.6005011" lon="10.5027407"><ele>181.33333333333334</ele><time>2026-04-10T04:42:17.248Z</time></trkpt><trkpt lat="45.6006905" lon="10.502791"><ele>181.0</ele><time>2026-04-10T04:42:18.248Z</time></trkpt><trkpt lat="45.6008917" lon="10.5027817"><ele>181.0</ele><time>2026-04-10T04:42:19.248Z</time></trkpt><trkpt lat="45.6010778" lon="10.5027336"><ele>181.0</ele><time>2026-04-10T04:42:20.248Z</time></trkpt><trkpt lat="45.6012678" lon="10.5026313"><ele>181.0</ele><time>2026-04-10T04:42:21.248Z</time></trkpt><trkpt lat="45.6014593" lon="10.5024715"><ele>180.0</ele><time>2026-04-10T04:42:22.248Z</time></trkpt><trkpt lat="45.6016397" lon="10.5022613"><ele>179.0</ele><time>2026-04-10T04:42:23.247Z</time></trkpt><trkpt lat="45.6018322" lon="10.5020368"><ele>177.0</ele><time>2026-04-10T04:42:24.247Z</time></trkpt><trkpt lat="45.6020382" lon="10.5017954"><ele>175.0</ele><time>2026-04-10T04:42:25.248Z</time></trkpt><trkpt lat="45.60224" lon="10.5015526"><ele>175.0</ele><time>2026-04-10T04:42:26.248Z</time></trkpt><trkpt lat="45.60245" lon="10.5013292"><ele>175.0</ele><time>2026-04-10T04:42:27.247Z</time></trkpt><trkpt lat="45.6026576" lon="10.50111"><ele>177.5</ele><time>2026-04-10T04:42:28.248Z</time></trkpt><trkpt lat="45.6028494" lon="10.5008919"><ele>180.0</ele><time>2026-04-10T04:42:29.248Z</time></trkpt><trkpt lat="45.6030328" lon="10.5006844"><ele>180.0</ele><time>2026-04-10T04:42:30.248Z</time></trkpt><trkpt lat="45.6032037" lon="10.5004932"><ele>180.0</ele><time>2026-04-10T04:42:31.247Z</time></trkpt><trkpt lat="45.6033639" lon="10.5003222"><ele>180.0</ele><time>2026-04-10T04:42:32.248Z</time></trkpt><trkpt lat="45.6035223" lon="10.5001617"><ele>181.66666666666666</ele><time>2026-04-10T04:42:33.248Z</time></trkpt><trkpt lat="45.6036919" lon="10.5000622"><ele>183.33333333333331</ele><time>2026-04-10T04:42:34.248Z</time></trkpt><trkpt lat="45.6038865" lon="10.5000311"><ele>185.0</ele><time>2026-04-10T04:42:35.247Z</time></trkpt><trkpt lat="45.6040906" lon="10.5000288"><ele>185.0</ele><time>2026-04-10T04:42:36.248Z</time></trkpt><trkpt lat="45.6042978" lon="10.5000559"><ele>185.0</ele><time>2026-04-10T04:42:37.248Z</time></trkpt><trkpt lat="45.6045215" lon="10.5000704"><ele>185.0</ele><time>2026-04-10T04:42:38.248Z</time></trkpt><trkpt lat="45.6047416" lon="10.5000843"><ele>184.66666666666666</ele><time>2026-04-10T04:42:39.247Z</time></trkpt><trkpt lat="45.6049426" lon="10.5000664"><ele>184.33333333333334</ele><time>2026-04-10T04:42:40.247Z</time></trkpt><trkpt lat="45.6051203" lon="10.4999799"><ele>184.0</ele><time>2026-04-10T04:42:41.248Z</time></trkpt><trkpt lat="45.6052693" lon="10.4998623"><ele>183.66666666666669</ele><time>2026-04-10T04:42:42.247Z</time></trkpt><trkpt lat="45.6054055" lon="10.4996825"><ele>183.33333333333334</ele><time>2026-04-10T04:42:43.247Z</time></trkpt><trkpt lat="45.6055408" lon="10.4994696"><ele>183.0</ele><time>2026-04-10T04:42:44.247Z</time></trkpt><trkpt lat="45.6056645" lon="10.4992223"><ele>183.0</ele><time>2026-04-10T04:42:45.247Z</time></trkpt><trkpt lat="45.6057556" lon="10.498949"><ele>183.0</ele><time>2026-04-10T04:42:46.247Z</time></trkpt><trkpt lat="45.6058471" lon="10.498644"><ele>183.0</ele><time>2026-04-10T04:42:47.247Z</time></trkpt><trkpt lat="45.6059423" lon="10.498333"><ele>189.0</ele><time>2026-04-10T04:42:48.247Z</time></trkpt><trkpt lat="45.6060394" lon="10.4980222"><ele>195.0</ele><time>2026-04-10T04:42:49.247Z</time></trkpt><trkpt lat="45.6061328" lon="10.4977124"><ele>190.0</ele><time>2026-04-10T04:42:50.246Z</time></trkpt><trkpt lat="45.606233" lon="10.4974094"><ele>185.0</ele><time>2026-04-10T04:42:51.247Z</time></trkpt><trkpt lat="45.6063385" lon="10.4970929"><ele>187.5</ele><time>2026-04-10T04:42:52.247Z</time></trkpt><trkpt lat="45.6064389" lon="10.4967795"><ele>190.0</ele><time>2026-04-10T04:42:53.246Z</time></trkpt><trkpt lat="45.6065443" lon="10.4964594"><ele>194.0</ele><time>2026-04-10T04:42:54.247Z</time></trkpt><trkpt lat="45.6066395" lon="10.4961293"><ele>198.0</ele><time>2026-04-10T04:42:55.246Z</time></trkpt><trkpt lat="45.6067096" lon="10.4957823"><ele>198.0</ele><time>2026-04-10T04:42:56.247Z</time></trkpt><trkpt lat="45.606738" lon="10.4954237"><ele>198.0</ele><time>2026-04-10T04:42:57.247Z</time></trkpt><trkpt lat="45.6067465" lon="10.4950559"><ele>198.5</ele><time>2026-04-10T04:42:58.247Z</time></trkpt><trkpt lat="45.6067378" lon="10.494678"><ele>199.0</ele><time>2026-04-10T04:42:59.247Z</time></trkpt><trkpt lat="45.6067039" lon="10.4942854"><ele>199.5</ele><time>2026-04-10T04:43:00.247Z</time></trkpt><trkpt lat="45.6066517" lon="10.4938906"><ele>200.0</ele><time>2026-04-10T04:43:01.246Z</time></trkpt><trkpt lat="45.6065856" lon="10.493485"><ele>198.0</ele><time>2026-04-10T04:43:02.247Z</time></trkpt><trkpt lat="45.6065064" lon="10.4930816"><ele>196.0</ele><time>2026-04-10T04:43:03.247Z</time></trkpt><trkpt lat="45.6064189" lon="10.4926707"><ele>194.0</ele><time>2026-04-10T04:43:04.247Z</time></trkpt><trkpt lat="45.6063245" lon="10.4922538"><ele>192.0</ele><time>2026-04-10T04:43:05.246Z</time></trkpt><trkpt lat="45.606231" lon="10.4918243"><ele>202.5</ele><time>2026-04-10T04:43:06.246Z</time></trkpt><trkpt lat="45.6061429" lon="10.4913899"><ele>213.0</ele><time>2026-04-10T04:43:07.247Z</time></trkpt><trkpt lat="45.6060556" lon="10.4909539"><ele>213.0</ele><time>2026-04-10T04:43:08.247Z</time></trkpt><trkpt lat="45.605965" lon="10.4905227"><ele>213.0</ele><time>2026-04-10T04:43:09.246Z</time></trkpt><trkpt lat="45.6058741" lon="10.4901019"><ele>210.0</ele><time>2026-04-10T04:43:10.247Z</time></trkpt><trkpt lat="45.6057885" lon="10.4896998"><ele>207.0</ele><time>2026-04-10T04:43:11.247Z</time></trkpt><trkpt lat="45.6057098" lon="10.4893298"><ele>205.5</ele><time>2026-04-10T04:43:12.246Z</time></trkpt><trkpt lat="45.6056557" lon="10.4889612"><ele>204.0</ele><time>2026-04-10T04:43:13.246Z</time></trkpt><trkpt lat="45.6056107" lon="10.488597"><ele>203.0</ele><time>2026-04-10T04:43:14.247Z</time></trkpt><trkpt lat="45.6055996" lon="10.4882421"><ele>202.0</ele><time>2026-04-10T04:43:15.247Z</time></trkpt><trkpt lat="45.6056207" lon="10.4879015"><ele>201.5</ele><time>2026-04-10T04:43:16.247Z</time></trkpt><trkpt lat="45.6056658" lon="10.4875644"><ele>201.0</ele><time>2026-04-10T04:43:17.247Z</time></trkpt><trkpt lat="45.6057195" lon="10.4872196"><ele>204.5</ele><time>2026-04-10T04:43:18.247Z</time></trkpt><trkpt lat="45.6057733" lon="10.486877"><ele>208.0</ele><time>2026-04-10T04:43:19.247Z</time></trkpt><trkpt lat="45.6058373" lon="10.4865321"><ele>212.0</ele><time>2026-04-10T04:43:20.247Z</time></trkpt><trkpt lat="45.6059101" lon="10.4861934"><ele>216.0</ele><time>2026-04-10T04:43:21.247Z</time></trkpt><trkpt lat="45.6059898" lon="10.4858537"><ele>216.0</ele><time>2026-04-10T04:43:22.246Z</time></trkpt><trkpt lat="45.6060762" lon="10.4855292"><ele>216.0</ele><time>2026-04-10T04:43:23.246Z</time></trkpt><trkpt lat="45.6061624" lon="10.4852002"><ele>211.0</ele><time>2026-04-10T04:43:24.247Z</time></trkpt><trkpt lat="45.6062337" lon="10.4848744"><ele>206.0</ele><time>2026-04-10T04:43:25.247Z</time></trkpt><trkpt lat="45.6062908" lon="10.4845469"><ele>206.0</ele><time>2026-04-10T04:43:26.247Z</time></trkpt><trkpt lat="45.6063467" lon="10.4842064"><ele>206.0</ele><time>2026-04-10T04:43:27.247Z</time></trkpt><trkpt lat="45.6064004" lon="10.4838553"><ele>229.0</ele><time>2026-04-10T04:43:28.247Z</time></trkpt><trkpt lat="45.6050203" lon="10.4674929"><ele>229.0</ele><time>2026-04-10T04:44:28.247Z</time></trkpt><trkpt lat="45.6050224" lon="10.4673353"><ele>228.99999999999997</ele><time>2026-04-10T04:44:29.246Z</time></trkpt><trkpt lat="45.6050505" lon="10.4671807"><ele>228.99999999999997</ele><time>2026-04-10T04:44:30.247Z</time></trkpt><trkpt lat="45.6050977" lon="10.4670567"><ele>229.0</ele><time>2026-04-10T04:44:31.246Z</time></trkpt><trkpt lat="45.6051715" lon="10.4669508"><ele>229.0</ele><time>2026-04-10T04:44:32.247Z</time></trkpt><trkpt lat="45.6052587" lon="10.4668627"><ele>227.2</ele><time>2026-04-10T04:44:33.247Z</time></trkpt><trkpt lat="45.6053693" lon="10.466808"><ele>225.39999999999998</ele><time>2026-04-10T04:44:34.247Z</time></trkpt><trkpt lat="45.6054745" lon="10.4668133"><ele>223.6</ele><time>2026-04-10T04:44:35.247Z</time></trkpt><trkpt lat="45.6055852" lon="10.466863"><ele>221.8</ele><time>2026-04-10T04:44:36.247Z</time></trkpt><trkpt lat="45.6056806" lon="10.4669431"><ele>220.0</ele><time>2026-04-10T04:44:37.247Z</time></trkpt><trkpt lat="45.6057648" lon="10.4670743"><ele>219.66666666666666</ele><time>2026-04-10T04:44:38.246Z</time></trkpt><trkpt lat="45.6058422" lon="10.4672582"><ele>219.33333333333331</ele><time>2026-04-10T04:44:39.246Z</time></trkpt><trkpt lat="45.6059171" lon="10.4674698"><ele>219.0</ele><time>2026-04-10T04:44:40.247Z</time></trkpt><trkpt lat="45.6059958" lon="10.4677168"><ele>219.66666666666669</ele><time>2026-04-10T04:44:41.247Z</time></trkpt><trkpt lat="45.6060722" lon="10.4679671"><ele>220.33333333333334</ele><time>2026-04-10T04:44:42.247Z</time></trkpt><trkpt lat="45.6061508" lon="10.4682192"><ele>221.0</ele><time>2026-04-10T04:44:43.247Z</time></trkpt><trkpt lat="45.6062471" lon="10.4684854"><ele>222.5</ele><time>2026-04-10T04:44:44.247Z</time></trkpt><trkpt lat="45.6063535" lon="10.468744"><ele>224.0</ele><time>2026-04-10T04:44:45.247Z</time></trkpt><trkpt lat="45.6065477" lon="10.469684"><ele>217.0</ele><time>2026-04-10T04:44:47.247Z</time></trkpt><trkpt lat="45.6078074" lon="10.4700663"><ele>215.5</ele><time>2026-04-10T04:44:53.247Z</time></trkpt><trkpt lat="45.6080204" lon="10.4700919"><ele>214.0</ele><time>2026-04-10T04:44:54.247Z</time></trkpt><trkpt lat="45.6082682" lon="10.4701186"><ele>214.0</ele><time>2026-04-10T04:44:55.247Z</time></trkpt><trkpt lat="45.6084842" lon="10.4701022"><ele>214.0</ele><time>2026-04-10T04:44:56.247Z</time></trkpt><trkpt lat="45.6087104" lon="10.4700965"><ele>214.0</ele><time>2026-04-10T04:44:57.247Z</time></trkpt><trkpt lat="45.6089256" lon="10.4700759"><ele>218.0</ele><time>2026-04-10T04:44:58.246Z</time></trkpt><trkpt lat="45.609148" lon="10.4700405"><ele>222.0</ele><time>2026-04-10T04:44:59.246Z</time></trkpt><trkpt lat="45.6093675" lon="10.4700324"><ele>226.0</ele><time>2026-04-10T04:45:00.246Z</time></trkpt><trkpt lat="45.6095867" lon="10.4700233"><ele>244.0</ele><time>2026-04-10T04:45:01.246Z</time></trkpt><trkpt lat="45.6178887" lon="10.4807798"><ele>244.0</ele><time>2026-04-10T04:45:52.246Z</time></trkpt><trkpt lat="45.6180596" lon="10.4808809"><ele>244.0</ele><time>2026-04-10T04:45:53.246Z</time></trkpt><trkpt lat="45.6182574" lon="10.4810217"><ele>244.0</ele><time>2026-04-10T04:45:54.246Z</time></trkpt><trkpt lat="45.6184552" lon="10.4811612"><ele>244.33333333333331</ele><time>2026-04-10T04:45:55.247Z</time></trkpt><trkpt lat="45.6186491" lon="10.4813126"><ele>244.66666666666669</ele><time>2026-04-10T04:45:56.247Z</time></trkpt><trkpt lat="45.6188342" lon="10.4814468"><ele>245.0</ele><time>2026-04-10T04:45:57.247Z</time></trkpt><trkpt lat="45.6190098" lon="10.481563"><ele>245.0</ele><time>2026-04-10T04:45:58.247Z</time></trkpt><trkpt lat="45.6191783" lon="10.4816751"><ele>245.0</ele><time>2026-04-10T04:45:59.247Z</time></trkpt><trkpt lat="45.6193531" lon="10.481797"><ele>245.0</ele><time>2026-04-10T04:46:00.247Z</time></trkpt><trkpt lat="45.6195121" lon="10.4819204"><ele>249.0</ele><time>2026-04-10T04:46:01.247Z</time></trkpt><trkpt lat="45.619656" lon="10.4820549"><ele>253.0</ele><time>2026-04-10T04:46:02.247Z</time></trkpt><trkpt lat="45.619788" lon="10.4821974"><ele>257.0</ele><time>2026-04-10T04:46:03.247Z</time></trkpt><trkpt lat="45.6199227" lon="10.4823539"><ele>257.0</ele><time>2026-04-10T04:46:04.247Z</time></trkpt><trkpt lat="45.620062" lon="10.4825195"><ele>257.0</ele><time>2026-04-10T04:46:05.247Z</time></trkpt><trkpt lat="45.6201965" lon="10.4826684"><ele>257.0</ele><time>2026-04-10T04:46:06.247Z</time></trkpt><trkpt lat="45.6320419" lon="10.4954228"><ele>256.0</ele><time>2026-04-10T04:47:24.247Z</time></trkpt><trkpt lat="45.6322102" lon="10.4955532"><ele>255.0</ele><time>2026-04-10T04:47:25.246Z</time></trkpt><trkpt lat="45.632376" lon="10.4956781"><ele>254.0</ele><time>2026-04-10T04:47:26.247Z</time></trkpt><trkpt lat="45.6325374" lon="10.4957799"><ele>254.0</ele><time>2026-04-10T04:47:27.246Z</time></trkpt><trkpt lat="45.6327103" lon="10.4958688"><ele>254.0</ele><time>2026-04-10T04:47:28.246Z</time></trkpt><trkpt lat="45.6328874" lon="10.4959469"><ele>254.0</ele><time>2026-04-10T04:47:29.246Z</time></trkpt><trkpt lat="45.633061" lon="10.4960284"><ele>254.66666666666669</ele><time>2026-04-10T04:47:30.247Z</time></trkpt><trkpt lat="45.6332347" lon="10.4961088"><ele>255.33333333333331</ele><time>2026-04-10T04:47:31.247Z</time></trkpt><trkpt lat="45.6334124" lon="10.4961576"><ele>256.0</ele><time>2026-04-10T04:47:32.247Z</time></trkpt><trkpt lat="45.6336023" lon="10.4962158"><ele>255.66666666666666</ele><time>2026-04-10T04:47:33.247Z</time></trkpt><trkpt lat="45.6337968" lon="10.4962536"><ele>255.33333333333331</ele><time>2026-04-10T04:47:34.246Z</time></trkpt><trkpt lat="45.6339892" lon="10.4962901"><ele>255.0</ele><time>2026-04-10T04:47:35.246Z</time></trkpt><trkpt lat="45.6341908" lon="10.4963069"><ele>255.0</ele><time>2026-04-10T04:47:36.247Z</time></trkpt><trkpt lat="45.6343868" lon="10.4963185"><ele>255.0</ele><time>2026-04-10T04:47:37.247Z</time></trkpt><trkpt lat="45.63458" lon="10.4963057"><ele>255.0</ele><time>2026-04-10T04:47:38.246Z</time></trkpt><trkpt lat="45.6347727" lon="10.496289"><ele>254.66666666666669</ele><time>2026-04-10T04:47:39.247Z</time></trkpt><trkpt lat="45.6349699" lon="10.4962591"><ele>254.33333333333334</ele><time>2026-04-10T04:47:40.246Z</time></trkpt><trkpt lat="45.6351688" lon="10.4962244"><ele>254.0</ele><time>2026-04-10T04:47:41.247Z</time></trkpt><trkpt lat="45.6353641" lon="10.4961923"><ele>256.33333333333337</ele><time>2026-04-10T04:47:42.247Z</time></trkpt><trkpt lat="45.6355645" lon="10.4961535"><ele>258.6666666666667</ele><time>2026-04-10T04:47:43.246Z</time></trkpt><trkpt lat="45.6357783" lon="10.4961083"><ele>261.0</ele><time>2026-04-10T04:47:44.247Z</time></trkpt><trkpt lat="45.6360191" lon="10.4960502"><ele>262.5</ele><time>2026-04-10T04:47:45.247Z</time></trkpt><trkpt lat="45.6362717" lon="10.4960015"><ele>264.0</ele><time>2026-04-10T04:47:46.247Z</time></trkpt><trkpt lat="45.6365438" lon="10.4959581"><ele>264.0</ele><time>2026-04-10T04:47:47.247Z</time></trkpt><trkpt lat="45.636821" lon="10.4958968"><ele>264.0</ele><time>2026-04-10T04:47:48.247Z</time></trkpt><trkpt lat="45.6370979" lon="10.495811"><ele>261.5</ele><time>2026-04-10T04:47:49.247Z</time></trkpt><trkpt lat="45.6373637" lon="10.4957156"><ele>259.0</ele><time>2026-04-10T04:47:50.247Z</time></trkpt><trkpt lat="45.6376351" lon="10.4956172"><ele>260.0</ele><time>2026-04-10T04:47:51.247Z</time></trkpt><trkpt lat="45.6379011" lon="10.4955011"><ele>261.0</ele><time>2026-04-10T04:47:52.247Z</time></trkpt><trkpt lat="45.6381652" lon="10.4953822"><ele>261.5</ele><time>2026-04-10T04:47:53.247Z</time></trkpt><trkpt lat="45.6384232" lon="10.4952523"><ele>262.0</ele><time>2026-04-10T04:47:54.247Z</time></trkpt><trkpt lat="45.6386757" lon="10.4951158"><ele>261.0</ele><time>2026-04-10T04:47:55.247Z</time></trkpt><trkpt lat="45.638929" lon="10.4949716"><ele>260.0</ele><time>2026-04-10T04:47:56.247Z</time></trkpt><trkpt lat="45.6391717" lon="10.4948254"><ele>260.0</ele><time>2026-04-10T04:47:57.247Z</time></trkpt><trkpt lat="45.6393984" lon="10.4946795"><ele>260.0</ele><time>2026-04-10T04:47:58.246Z</time></trkpt><trkpt lat="45.6396162" lon="10.4945127"><ele>263.5</ele><time>2026-04-10T04:47:59.247Z</time></trkpt><trkpt lat="45.6398218" lon="10.4943261"><ele>267.0</ele><time>2026-04-10T04:48:00.245Z</time></trkpt><trkpt lat="45.6400327" lon="10.4941402"><ele>267.0</ele><time>2026-04-10T04:48:01.246Z</time></trkpt><trkpt lat="45.6402248" lon="10.4939282"><ele>267.0</ele><time>2026-04-10T04:48:02.246Z</time></trkpt><trkpt lat="45.6404088" lon="10.4937049"><ele>265.5</ele><time>2026-04-10T04:48:03.246Z</time></trkpt><trkpt lat="45.6405805" lon="10.493469"><ele>264.0</ele><time>2026-04-10T04:48:04.246Z</time></trkpt><trkpt lat="45.6407405" lon="10.493218"><ele>264.0</ele><time>2026-04-10T04:48:05.246Z</time></trkpt><trkpt lat="45.640893" lon="10.4929638"><ele>264.0</ele><time>2026-04-10T04:48:06.245Z</time></trkpt><trkpt lat="45.6410292" lon="10.4926924"><ele>264.5</ele><time>2026-04-10T04:48:07.246Z</time></trkpt><trkpt lat="45.6411464" lon="10.4924083"><ele>265.0</ele><time>2026-04-10T04:48:08.246Z</time></trkpt><trkpt lat="45.6412575" lon="10.4921191"><ele>270.5</ele><time>2026-04-10T04:48:09.246Z</time></trkpt><trkpt lat="45.6413561" lon="10.4918216"><ele>276.0</ele><time>2026-04-10T04:48:10.246Z</time></trkpt><trkpt lat="45.6414505" lon="10.4915145"><ele>289.0</ele><time>2026-04-10T04:48:11.246Z</time></trkpt><trkpt lat="45.6415239" lon="10.4912018"><ele>302.0</ele><time>2026-04-10T04:48:12.246Z</time></trkpt><trkpt lat="45.6415896" lon="10.4908846"><ele>302.0</ele><time>2026-04-10T04:48:13.246Z</time></trkpt><trkpt lat="45.6416611" lon="10.4905601"><ele>302.0</ele><time>2026-04-10T04:48:14.246Z</time></trkpt><trkpt lat="45.6430814" lon="10.4657304"><ele>286.0</ele><time>2026-04-10T04:49:33.246Z</time></trkpt><trkpt lat="45.643134" lon="10.4654832"><ele>270.0</ele><time>2026-04-10T04:49:34.245Z</time></trkpt><trkpt lat="45.6432137" lon="10.4652234"><ele>254.0</ele><time>2026-04-10T04:49:35.245Z</time></trkpt><trkpt lat="45.6432787" lon="10.4649678"><ele>254.33333333333334</ele><time>2026-04-10T04:49:36.246Z</time></trkpt><trkpt lat="45.6433383" lon="10.4647248"><ele>254.66666666666669</ele><time>2026-04-10T04:49:37.246Z</time></trkpt><trkpt lat="45.6434133" lon="10.4644705"><ele>255.0</ele><time>2026-04-10T04:49:38.246Z</time></trkpt><trkpt lat="45.6434818" lon="10.464217"><ele>255.0</ele><time>2026-04-10T04:49:39.246Z</time></trkpt><trkpt lat="45.6435545" lon="10.4639707"><ele>255.0</ele><time>2026-04-10T04:49:40.246Z</time></trkpt><trkpt lat="45.6436341" lon="10.4637207"><ele>255.0</ele><time>2026-04-10T04:49:41.246Z</time></trkpt><trkpt lat="45.6437151" lon="10.4634684"><ele>258.3333333333333</ele><time>2026-04-10T04:49:42.246Z</time></trkpt><trkpt lat="45.6438006" lon="10.463216"><ele>261.66666666666663</ele><time>2026-04-10T04:49:43.246Z</time></trkpt><trkpt lat="45.6438881" lon="10.462963"><ele>265.0</ele><time>2026-04-10T04:49:44.246Z</time></trkpt><trkpt lat="45.6439764" lon="10.4627225"><ele>265.3333333333333</ele><time>2026-04-10T04:49:45.246Z</time></trkpt><trkpt lat="45.6440568" lon="10.462493"><ele>265.6666666666667</ele><time>2026-04-10T04:49:46.246Z</time></trkpt><trkpt lat="45.6441245" lon="10.4622822"><ele>266.0</ele><time>2026-04-10T04:49:47.246Z</time></trkpt><trkpt lat="45.6441869" lon="10.4620864"><ele>266.0</ele><time>2026-04-10T04:49:48.246Z</time></trkpt><trkpt lat="45.6442508" lon="10.4619069"><ele>266.0</ele><time>2026-04-10T04:49:49.246Z</time></trkpt><trkpt lat="45.6443048" lon="10.4617515"><ele>266.0</ele><time>2026-04-10T04:49:50.245Z</time></trkpt><trkpt lat="45.6443498" lon="10.4616273"><ele>266.0</ele><time>2026-04-10T04:49:51.246Z</time></trkpt><trkpt lat="45.6443716" lon="10.4615387"><ele>266.0</ele><time>2026-04-10T04:49:52.246Z</time></trkpt><trkpt lat="45.6443701" lon="10.4614084"><ele>266.0</ele><time>2026-04-10T04:49:54.246Z</time></trkpt><trkpt lat="45.6442929" lon="10.4612965"><ele>266.0</ele><time>2026-04-10T04:49:56.246Z</time></trkpt><trkpt lat="45.6442163" lon="10.4612394"><ele>266.0</ele><time>2026-04-10T04:49:57.246Z</time></trkpt><trkpt lat="45.6440957" lon="10.4611653"><ele>266.0</ele><time>2026-04-10T04:49:58.246Z</time></trkpt><trkpt lat="45.6439678" lon="10.4610986"><ele>265.5</ele><time>2026-04-10T04:49:59.246Z</time></trkpt><trkpt lat="45.643847" lon="10.461039"><ele>265.0</ele><time>2026-04-10T04:50:00.246Z</time></trkpt><trkpt lat="45.6437375" lon="10.4609699"><ele>264.5</ele><time>2026-04-10T04:50:01.246Z</time></trkpt><trkpt lat="45.6436354" lon="10.4608826"><ele>264.0</ele><time>2026-04-10T04:50:02.245Z</time></trkpt><trkpt lat="45.6435528" lon="10.4607804"><ele>263.0</ele><time>2026-04-10T04:50:03.245Z</time></trkpt><trkpt lat="45.6435" lon="10.4606562"><ele>262.0</ele><time>2026-04-10T04:50:04.246Z</time></trkpt><trkpt lat="45.6434647" lon="10.4605184"><ele>261.0</ele><time>2026-04-10T04:50:05.246Z</time></trkpt><trkpt lat="45.6434743" lon="10.4603861"><ele>260.0</ele><time>2026-04-10T04:50:06.246Z</time></trkpt><trkpt lat="45.6435089" lon="10.4602756"><ele>259.0</ele><time>2026-04-10T04:50:07.246Z</time></trkpt><trkpt lat="45.6435649" lon="10.4601568"><ele>259.5</ele><time>2026-04-10T04:50:08.245Z</time></trkpt><trkpt lat="45.6436677" lon="10.4600266"><ele>260.0</ele><time>2026-04-10T04:50:09.246Z</time></trkpt><trkpt lat="45.6437925" lon="10.4599075"><ele>260.5</ele><time>2026-04-10T04:50:10.246Z</time></trkpt><trkpt lat="45.6439015" lon="10.4597546"><ele>261.0</ele><time>2026-04-10T04:50:11.246Z</time></trkpt><trkpt lat="45.6439911" lon="10.4595911"><ele>261.0</ele><time>2026-04-10T04:50:12.246Z</time></trkpt><trkpt lat="45.6440674" lon="10.4594297"><ele>261.0</ele><time>2026-04-10T04:50:13.246Z</time></trkpt><trkpt lat="45.6441443" lon="10.4592816"><ele>261.0</ele><time>2026-04-10T04:50:14.245Z</time></trkpt><trkpt lat="45.6442251" lon="10.4591483"><ele>261.0</ele><time>2026-04-10T04:50:15.245Z</time></trkpt><trkpt lat="45.6443117" lon="10.4590071"><ele>261.0</ele><time>2026-04-10T04:50:16.246Z</time></trkpt><trkpt lat="45.6444023" lon="10.4588291"><ele>261.0</ele><time>2026-04-10T04:50:17.246Z</time></trkpt><trkpt lat="45.6444975" lon="10.4586161"><ele>261.0</ele><time>2026-04-10T04:50:18.246Z</time></trkpt><trkpt lat="45.6446124" lon="10.4583856"><ele>261.6666666666667</ele><time>2026-04-10T04:50:19.246Z</time></trkpt><trkpt lat="45.6447388" lon="10.4581541"><ele>262.33333333333337</ele><time>2026-04-10T04:50:20.246Z</time></trkpt><trkpt lat="45.6448664" lon="10.4579184"><ele>263.0</ele><time>2026-04-10T04:50:21.246Z</time></trkpt><trkpt lat="45.6449903" lon="10.4576766"><ele>263.0</ele><time>2026-04-10T04:50:22.246Z</time></trkpt><trkpt lat="45.645116" lon="10.4574291"><ele>263.0</ele><time>2026-04-10T04:50:23.245Z</time></trkpt><trkpt lat="45.645245" lon="10.4571676"><ele>263.0</ele><time>2026-04-10T04:50:24.246Z</time></trkpt><trkpt lat="45.6453672" lon="10.4569019"><ele>264.33333333333337</ele><time>2026-04-10T04:50:25.245Z</time></trkpt><trkpt lat="45.6454798" lon="10.4566283"><ele>265.6666666666667</ele><time>2026-04-10T04:50:26.245Z</time></trkpt><trkpt lat="45.6455828" lon="10.4563416"><ele>267.0</ele><time>2026-04-10T04:50:27.246Z</time></trkpt><trkpt lat="45.6456921" lon="10.4560346"><ele>267.0</ele><time>2026-04-10T04:50:28.246Z</time></trkpt><trkpt lat="45.6457903" lon="10.4557397"><ele>267.0</ele><time>2026-04-10T04:50:29.246Z</time></trkpt><trkpt lat="45.6458905" lon="10.4554323"><ele>266.5</ele><time>2026-04-10T04:50:30.245Z</time></trkpt><trkpt lat="45.6459885" lon="10.455132"><ele>266.0</ele><time>2026-04-10T04:50:31.246Z</time></trkpt><trkpt lat="45.6460879" lon="10.4548371"><ele>268.6666666666667</ele><time>2026-04-10T04:50:32.246Z</time></trkpt><trkpt lat="45.6461828" lon="10.454552"><ele>271.3333333333333</ele><time>2026-04-10T04:50:33.246Z</time></trkpt><trkpt lat="45.6462765" lon="10.4542625"><ele>274.0</ele><time>2026-04-10T04:50:34.246Z</time></trkpt><trkpt lat="45.6463734" lon="10.4539738"><ele>271.66666666666663</ele><time>2026-04-10T04:50:35.246Z</time></trkpt><trkpt lat="45.6464682" lon="10.4536827"><ele>269.3333333333333</ele><time>2026-04-10T04:50:36.246Z</time></trkpt><trkpt lat="45.6465594" lon="10.4533923"><ele>267.0</ele><time>2026-04-10T04:50:37.245Z</time></trkpt><trkpt lat="45.6466597" lon="10.4530999"><ele>266.5</ele><time>2026-04-10T04:50:38.246Z</time></trkpt><trkpt lat="45.6467626" lon="10.4528002"><ele>266.0</ele><time>2026-04-10T04:50:39.245Z</time></trkpt><trkpt lat="45.6468632" lon="10.4524984"><ele>266.0</ele><time>2026-04-10T04:50:40.245Z</time></trkpt><trkpt lat="45.6469608" lon="10.4521913"><ele>266.0</ele><time>2026-04-10T04:50:41.246Z</time></trkpt><trkpt lat="45.6470542" lon="10.4518826"><ele>272.0</ele><time>2026-04-10T04:50:42.245Z</time></trkpt><trkpt lat="45.6471391" lon="10.4515694"><ele>278.0</ele><time>2026-04-10T04:50:43.246Z</time></trkpt><trkpt lat="45.6472164" lon="10.4512646"><ele>278.0</ele><time>2026-04-10T04:50:44.246Z</time></trkpt><trkpt lat="45.6472899" lon="10.4509587"><ele>278.0</ele><time>2026-04-10T04:50:45.246Z</time></trkpt><trkpt lat="45.6473648" lon="10.4506651"><ele>278.0</ele><time>2026-04-10T04:50:46.246Z</time></trkpt><trkpt lat="45.6474393" lon="10.4503881"><ele>275.6666666666667</ele><time>2026-04-10T04:50:47.246Z</time></trkpt><trkpt lat="45.6475239" lon="10.4501144"><ele>273.3333333333333</ele><time>2026-04-10T04:50:48.245Z</time></trkpt><trkpt lat="45.6476087" lon="10.4498576"><ele>271.0</ele><time>2026-04-10T04:50:49.246Z</time></trkpt><trkpt lat="45.6476935" lon="10.4496081"><ele>274.3333333333333</ele><time>2026-04-10T04:50:50.246Z</time></trkpt><trkpt lat="45.6477969" lon="10.4493799"><ele>277.6666666666667</ele><time>2026-04-10T04:50:51.246Z</time></trkpt><trkpt lat="45.6479176" lon="10.4491869"><ele>281.0</ele><time>2026-04-10T04:50:52.246Z</time></trkpt><trkpt lat="45.6480588" lon="10.4490159"><ele>281.0</ele><time>2026-04-10T04:50:53.246Z</time></trkpt><trkpt lat="45.6482205" lon="10.4488807"><ele>281.0</ele><time>2026-04-10T04:50:54.245Z</time></trkpt><trkpt lat="45.6483897" lon="10.4487678"><ele>281.0</ele><time>2026-04-10T04:50:55.245Z</time></trkpt><trkpt lat="45.6485604" lon="10.4486646"><ele>281.0</ele><time>2026-04-10T04:50:56.246Z</time></trkpt><trkpt lat="45.6487221" lon="10.44856"><ele>281.0</ele><time>2026-04-10T04:50:57.246Z</time></trkpt><trkpt lat="45.6488885" lon="10.4484698"><ele>281.0</ele><time>2026-04-10T04:50:58.245Z</time></trkpt><trkpt lat="45.6490522" lon="10.4483939"><ele>281.0</ele><time>2026-04-10T04:50:59.245Z</time></trkpt><trkpt lat="45.6492206" lon="10.4483213"><ele>281.0</ele><time>2026-04-10T04:51:00.246Z</time></trkpt><trkpt lat="45.6493908" lon="10.4482388"><ele>281.0</ele><time>2026-04-10T04:51:01.245Z</time></trkpt><trkpt lat="45.6495603" lon="10.4481324"><ele>275.33333333333337</ele><time>2026-04-10T04:51:02.246Z</time></trkpt><trkpt lat="45.6497238" lon="10.4479956"><ele>269.6666666666667</ele><time>2026-04-10T04:51:03.246Z</time></trkpt><trkpt lat="45.6498839" lon="10.4478431"><ele>264.0</ele><time>2026-04-10T04:51:04.246Z</time></trkpt><trkpt lat="45.6500347" lon="10.4476936"><ele>264.0</ele><time>2026-04-10T04:51:05.246Z</time></trkpt><trkpt lat="45.6501655" lon="10.4475275"><ele>264.0</ele><time>2026-04-10T04:51:06.246Z</time></trkpt><trkpt lat="45.650288" lon="10.4473471"><ele>264.0</ele><time>2026-04-10T04:51:07.246Z</time></trkpt><trkpt lat="45.6503798" lon="10.4471283"><ele>266.6666666666667</ele><time>2026-04-10T04:51:08.246Z</time></trkpt><trkpt lat="45.6504524" lon="10.4468827"><ele>269.33333333333337</ele><time>2026-04-10T04:51:09.246Z</time></trkpt><trkpt lat="45.650499" lon="10.4466227"><ele>272.0</ele><time>2026-04-10T04:51:10.246Z</time></trkpt><trkpt lat="45.6505243" lon="10.4463561"><ele>271.0</ele><time>2026-04-10T04:51:11.245Z</time></trkpt><trkpt lat="45.6505706" lon="10.4460947"><ele>270.0</ele><time>2026-04-10T04:51:12.246Z</time></trkpt><trkpt lat="45.6506146" lon="10.4458272"><ele>269.0</ele><time>2026-04-10T04:51:13.246Z</time></trkpt><trkpt lat="45.6506577" lon="10.4455556"><ele>267.6666666666667</ele><time>2026-04-10T04:51:14.246Z</time></trkpt><trkpt lat="45.6506957" lon="10.4452865"><ele>266.3333333333333</ele><time>2026-04-10T04:51:15.246Z</time></trkpt><trkpt lat="45.6507344" lon="10.4450179"><ele>265.0</ele><time>2026-04-10T04:51:16.245Z</time></trkpt><trkpt lat="45.6507767" lon="10.4447553"><ele>264.3333333333333</ele><time>2026-04-10T04:51:17.246Z</time></trkpt><trkpt lat="45.6508168" lon="10.4444876"><ele>263.6666666666667</ele><time>2026-04-10T04:51:18.246Z</time></trkpt><trkpt lat="45.6508558" lon="10.4442302"><ele>263.0</ele><time>2026-04-10T04:51:19.246Z</time></trkpt><trkpt lat="45.6508872" lon="10.4439591"><ele>262.6666666666667</ele><time>2026-04-10T04:51:20.246Z</time></trkpt><trkpt lat="45.6509122" lon="10.4436948"><ele>262.3333333333333</ele><time>2026-04-10T04:51:21.246Z</time></trkpt><trkpt lat="45.6509269" lon="10.4434215"><ele>262.0</ele><time>2026-04-10T04:51:22.245Z</time></trkpt><trkpt lat="45.6509377" lon="10.443142"><ele>263.3333333333333</ele><time>2026-04-10T04:51:23.246Z</time></trkpt><trkpt lat="45.6509385" lon="10.4428676"><ele>264.6666666666667</ele><time>2026-04-10T04:51:24.246Z</time></trkpt><trkpt lat="45.6509294" lon="10.4425878"><ele>266.0</ele><time>2026-04-10T04:51:25.246Z</time></trkpt><trkpt lat="45.6509169" lon="10.4423114"><ele>266.6666666666667</ele><time>2026-04-10T04:51:26.246Z</time></trkpt><trkpt lat="45.6508997" lon="10.4420321"><ele>267.3333333333333</ele><time>2026-04-10T04:51:27.245Z</time></trkpt><trkpt lat="45.650875" lon="10.4417683"><ele>268.0</ele><time>2026-04-10T04:51:28.246Z</time></trkpt><trkpt lat="45.6508441" lon="10.4415219"><ele>269.3333333333333</ele><time>2026-04-10T04:51:29.245Z</time></trkpt><trkpt lat="45.6508138" lon="10.4412932"><ele>270.6666666666667</ele><time>2026-04-10T04:51:30.246Z</time></trkpt><trkpt lat="45.6507783" lon="10.4410712"><ele>272.0</ele><time>2026-04-10T04:51:31.246Z</time></trkpt><trkpt lat="45.6507374" lon="10.440845"><ele>272.0</ele><time>2026-04-10T04:51:32.246Z</time></trkpt><trkpt lat="45.6506798" lon="10.4406189"><ele>272.0</ele><time>2026-04-10T04:51:33.246Z</time></trkpt><trkpt lat="45.6506183" lon="10.4403766"><ele>272.0</ele><time>2026-04-10T04:51:34.246Z</time></trkpt><trkpt lat="45.6505769" lon="10.4400863"><ele>272.5</ele><time>2026-04-10T04:51:35.246Z</time></trkpt><trkpt lat="45.6505245" lon="10.4397749"><ele>273.0</ele><time>2026-04-10T04:51:36.245Z</time></trkpt><trkpt lat="45.6504628" lon="10.4394201"><ele>273.0</ele><time>2026-04-10T04:51:37.246Z</time></trkpt><trkpt lat="45.6504073" lon="10.4390031"><ele>273.0</ele><time>2026-04-10T04:51:38.246Z</time></trkpt><trkpt lat="45.6503544" lon="10.4386063"><ele>273.5</ele><time>2026-04-10T04:51:39.245Z</time></trkpt><trkpt lat="45.6503007" lon="10.4382226"><ele>274.0</ele><time>2026-04-10T04:51:40.246Z</time></trkpt><trkpt lat="45.6502444" lon="10.4378639"><ele>269.0</ele><time>2026-04-10T04:51:41.246Z</time></trkpt><trkpt lat="45.6502057" lon="10.4375127"><ele>264.0</ele><time>2026-04-10T04:51:42.246Z</time></trkpt><trkpt lat="45.6501892" lon="10.4371685"><ele>265.0</ele><time>2026-04-10T04:51:43.246Z</time></trkpt><trkpt lat="45.650196" lon="10.436823"><ele>266.0</ele><time>2026-04-10T04:51:44.246Z</time></trkpt><trkpt lat="45.6502215" lon="10.4364719"><ele>267.5</ele><time>2026-04-10T04:51:45.246Z</time></trkpt><trkpt lat="45.6502699" lon="10.4361299"><ele>269.0</ele><time>2026-04-10T04:51:46.245Z</time></trkpt><trkpt lat="45.6503415" lon="10.435803"><ele>270.5</ele><time>2026-04-10T04:51:47.246Z</time></trkpt><trkpt lat="45.6504335" lon="10.4354972"><ele>272.0</ele><time>2026-04-10T04:51:48.246Z</time></trkpt><trkpt lat="45.6505389" lon="10.435206"><ele>272.0</ele><time>2026-04-10T04:51:49.246Z</time></trkpt><trkpt lat="45.6506593" lon="10.4349256"><ele>272.0</ele><time>2026-04-10T04:51:50.246Z</time></trkpt><trkpt lat="45.6507841" lon="10.434654"><ele>269.5</ele><time>2026-04-10T04:51:51.246Z</time></trkpt><trkpt lat="45.6509178" lon="10.434387"><ele>267.0</ele><time>2026-04-10T04:51:52.246Z</time></trkpt><trkpt lat="45.6510509" lon="10.4341268"><ele>270.0</ele><time>2026-04-10T04:51:53.246Z</time></trkpt><trkpt lat="45.6511815" lon="10.4338691"><ele>273.0</ele><time>2026-04-10T04:51:54.246Z</time></trkpt><trkpt lat="45.6513118" lon="10.4336152"><ele>276.0</ele><time>2026-04-10T04:51:55.246Z</time></trkpt><trkpt lat="45.6514417" lon="10.4333533"><ele>276.0</ele><time>2026-04-10T04:51:56.246Z</time></trkpt><trkpt lat="45.6515761" lon="10.4330914"><ele>276.0</ele><time>2026-04-10T04:51:57.246Z</time></trkpt><trkpt lat="45.6517075" lon="10.4328255"><ele>274.0</ele><time>2026-04-10T04:51:58.246Z</time></trkpt><trkpt lat="45.6518387" lon="10.4325537"><ele>272.0</ele><time>2026-04-10T04:51:59.246Z</time></trkpt><trkpt lat="45.6519707" lon="10.4322847"><ele>272.5</ele><time>2026-04-10T04:52:00.246Z</time></trkpt><trkpt lat="45.6521035" lon="10.4320209"><ele>273.0</ele><time>2026-04-10T04:52:01.246Z</time></trkpt><trkpt lat="45.6522375" lon="10.431755"><ele>273.0</ele><time>2026-04-10T04:52:02.246Z</time></trkpt><trkpt lat="45.6523734" lon="10.4314879"><ele>273.0</ele><time>2026-04-10T04:52:03.246Z</time></trkpt><trkpt lat="45.6525069" lon="10.4312211"><ele>271.0</ele><time>2026-04-10T04:52:04.246Z</time></trkpt><trkpt lat="45.6526402" lon="10.4309556"><ele>269.0</ele><time>2026-04-10T04:52:05.246Z</time></trkpt><trkpt lat="45.6527726" lon="10.4306919"><ele>270.6666666666667</ele><time>2026-04-10T04:52:06.246Z</time></trkpt><trkpt lat="45.6529013" lon="10.4304381"><ele>272.3333333333333</ele><time>2026-04-10T04:52:07.245Z</time></trkpt><trkpt lat="45.6530296" lon="10.4301864"><ele>274.0</ele><time>2026-04-10T04:52:08.246Z</time></trkpt><trkpt lat="45.6531563" lon="10.4299407"><ele>274.0</ele><time>2026-04-10T04:52:09.245Z</time></trkpt><trkpt lat="45.6532815" lon="10.4297091"><ele>274.0</ele><time>2026-04-10T04:52:10.246Z</time></trkpt><trkpt lat="45.6533991" lon="10.4295055"><ele>274.0</ele><time>2026-04-10T04:52:11.246Z</time></trkpt><trkpt lat="45.6535169" lon="10.4293168"><ele>275.3333333333333</ele><time>2026-04-10T04:52:12.245Z</time></trkpt><trkpt lat="45.6536304" lon="10.4291429"><ele>276.6666666666667</ele><time>2026-04-10T04:52:13.246Z</time></trkpt><trkpt lat="45.6537401" lon="10.428984"><ele>278.0</ele><time>2026-04-10T04:52:14.246Z</time></trkpt><trkpt lat="45.6538405" lon="10.4288356"><ele>275.75</ele><time>2026-04-10T04:52:15.246Z</time></trkpt><trkpt lat="45.6539389" lon="10.4287122"><ele>273.5</ele><time>2026-04-10T04:52:16.246Z</time></trkpt><trkpt lat="45.6540387" lon="10.4286161"><ele>271.25</ele><time>2026-04-10T04:52:17.246Z</time></trkpt><trkpt lat="45.6541345" lon="10.4285408"><ele>269.0</ele><time>2026-04-10T04:52:18.245Z</time></trkpt><trkpt lat="45.6542232" lon="10.4284865"><ele>269.0</ele><time>2026-04-10T04:52:19.245Z</time></trkpt><trkpt lat="45.6543119" lon="10.4284602"><ele>269.0</ele><time>2026-04-10T04:52:20.246Z</time></trkpt><trkpt lat="45.6544035" lon="10.4284656"><ele>269.0</ele><time>2026-04-10T04:52:21.245Z</time></trkpt><trkpt lat="45.654494" lon="10.4284766"><ele>269.0</ele><time>2026-04-10T04:52:22.246Z</time></trkpt><trkpt lat="45.6545753" lon="10.4284553"><ele>269.0</ele><time>2026-04-10T04:52:23.246Z</time></trkpt><trkpt lat="45.65464" lon="10.4283913"><ele>269.0</ele><time>2026-04-10T04:52:24.245Z</time></trkpt><trkpt lat="45.6546817" lon="10.4283066"><ele>269.1666666666667</ele><time>2026-04-10T04:52:25.245Z</time></trkpt><trkpt lat="45.6546952" lon="10.4282038"><ele>269.33333333333337</ele><time>2026-04-10T04:52:26.246Z</time></trkpt><trkpt lat="45.6546658" lon="10.4280973"><ele>269.5</ele><time>2026-04-10T04:52:27.245Z</time></trkpt><trkpt lat="45.6546129" lon="10.4280091"><ele>269.6666666666667</ele><time>2026-04-10T04:52:28.246Z</time></trkpt><trkpt lat="45.6545415" lon="10.4279429"><ele>269.8333333333333</ele><time>2026-04-10T04:52:29.246Z</time></trkpt><trkpt lat="45.6544519" lon="10.427896"><ele>270.0</ele><time>2026-04-10T04:52:30.245Z</time></trkpt><trkpt lat="45.654363" lon="10.4278549"><ele>269.4</ele><time>2026-04-10T04:52:31.245Z</time></trkpt><trkpt lat="45.6542864" lon="10.4277864"><ele>268.8</ele><time>2026-04-10T04:52:32.246Z</time></trkpt><trkpt lat="45.6542208" lon="10.4276867"><ele>268.2</ele><time>2026-04-10T04:52:33.246Z</time></trkpt><trkpt lat="45.6541664" lon="10.4275659"><ele>267.6</ele><time>2026-04-10T04:52:34.246Z</time></trkpt><trkpt lat="45.6541092" lon="10.427428"><ele>267.0</ele><time>2026-04-10T04:52:35.246Z</time></trkpt><trkpt lat="45.6540452" lon="10.4272818"><ele>267.6</ele><time>2026-04-10T04:52:36.246Z</time></trkpt><trkpt lat="45.6539775" lon="10.4271415"><ele>268.2</ele><time>2026-04-10T04:52:37.246Z</time></trkpt><trkpt lat="45.6539183" lon="10.4270135"><ele>268.8</ele><time>2026-04-10T04:52:38.246Z</time></trkpt><trkpt lat="45.6538696" lon="10.4268925"><ele>269.4</ele><time>2026-04-10T04:52:39.246Z</time></trkpt><trkpt lat="45.6538228" lon="10.4267798"><ele>270.0</ele><time>2026-04-10T04:52:40.246Z</time></trkpt><trkpt lat="45.6537763" lon="10.4266817"><ele>270.0</ele><time>2026-04-10T04:52:41.245Z</time></trkpt><trkpt lat="45.6537247" lon="10.4265705"><ele>270.0</ele><time>2026-04-10T04:52:42.246Z</time></trkpt><trkpt lat="45.653661" lon="10.4264293"><ele>270.0</ele><time>2026-04-10T04:52:43.245Z</time></trkpt><trkpt lat="45.6535882" lon="10.4262576"><ele>270.0</ele><time>2026-04-10T04:52:44.245Z</time></trkpt><trkpt lat="45.6535152" lon="10.4260678"><ele>272.25</ele><time>2026-04-10T04:52:45.246Z</time></trkpt><trkpt lat="45.6534404" lon="10.4258821"><ele>274.5</ele><time>2026-04-10T04:52:46.246Z</time></trkpt><trkpt lat="45.6533717" lon="10.4257055"><ele>276.75</ele><time>2026-04-10T04:52:47.246Z</time></trkpt><trkpt lat="45.6533053" lon="10.4255336"><ele>279.0</ele><time>2026-04-10T04:52:48.245Z</time></trkpt><trkpt lat="45.6532365" lon="10.42535"><ele>280.3333333333333</ele><time>2026-04-10T04:52:49.245Z</time></trkpt><trkpt lat="45.6531674" lon="10.4251583"><ele>281.66666666666663</ele><time>2026-04-10T04:52:50.246Z</time></trkpt><trkpt lat="45.6530979" lon="10.4249692"><ele>283.0</ele><time>2026-04-10T04:52:51.246Z</time></trkpt><trkpt lat="45.653026" lon="10.4247781"><ele>284.0</ele><time>2026-04-10T04:52:52.245Z</time></trkpt><trkpt lat="45.652971" lon="10.4245802"><ele>285.0</ele><time>2026-04-10T04:52:53.246Z</time></trkpt><trkpt lat="45.6529264" lon="10.424375"><ele>286.0</ele><time>2026-04-10T04:52:54.245Z</time></trkpt><trkpt lat="45.6528802" lon="10.4242078"><ele>287.0</ele><time>2026-04-10T04:52:55.246Z</time></trkpt><trkpt lat="45.6528223" lon="10.4240658"><ele>287.75</ele><time>2026-04-10T04:52:56.245Z</time></trkpt><trkpt lat="45.6527603" lon="10.4239171"><ele>288.5</ele><time>2026-04-10T04:52:57.246Z</time></trkpt><trkpt lat="45.6527008" lon="10.4237489"><ele>289.25</ele><time>2026-04-10T04:52:58.246Z</time></trkpt><trkpt lat="45.6526392" lon="10.4235781"><ele>290.0</ele><time>2026-04-10T04:52:59.246Z</time></trkpt><trkpt lat="45.6525831" lon="10.4234103"><ele>290.5</ele><time>2026-04-10T04:53:00.246Z</time></trkpt><trkpt lat="45.6525272" lon="10.4232434"><ele>291.0</ele><time>2026-04-10T04:53:01.246Z</time></trkpt><trkpt lat="45.6524711" lon="10.4230746"><ele>291.5</ele><time>2026-04-10T04:53:02.245Z</time></trkpt><trkpt lat="45.6524147" lon="10.4229081"><ele>292.0</ele><time>2026-04-10T04:53:03.245Z</time></trkpt><trkpt lat="45.6523567" lon="10.4227341"><ele>291.0</ele><time>2026-04-10T04:53:04.245Z</time></trkpt><trkpt lat="45.6522973" lon="10.4225613"><ele>290.0</ele><time>2026-04-10T04:53:05.245Z</time></trkpt><trkpt lat="45.6522442" lon="10.4224034"><ele>289.0</ele><time>2026-04-10T04:53:06.246Z</time></trkpt><trkpt lat="45.6521884" lon="10.4222418"><ele>288.0</ele><time>2026-04-10T04:53:07.245Z</time></trkpt><trkpt lat="45.6521305" lon="10.422066"><ele>287.0</ele><time>2026-04-10T04:53:08.246Z</time></trkpt><trkpt lat="45.6520665" lon="10.4218847"><ele>286.0</ele><time>2026-04-10T04:53:09.246Z</time></trkpt><trkpt lat="45.6519994" lon="10.421702"><ele>285.0</ele><time>2026-04-10T04:53:10.246Z</time></trkpt><trkpt lat="45.6519339" lon="10.4215213"><ele>284.0</ele><time>2026-04-10T04:53:11.246Z</time></trkpt><trkpt lat="45.6518689" lon="10.421334"><ele>283.75</ele><time>2026-04-10T04:53:12.246Z</time></trkpt><trkpt lat="45.6518024" lon="10.4211531"><ele>283.5</ele><time>2026-04-10T04:53:13.245Z</time></trkpt><trkpt lat="45.6517441" lon="10.4209809"><ele>283.25</ele><time>2026-04-10T04:53:14.246Z</time></trkpt><trkpt lat="45.6516931" lon="10.4208202"><ele>283.0</ele><time>2026-04-10T04:53:15.246Z</time></trkpt><trkpt lat="45.6516407" lon="10.4206563"><ele>286.0</ele><time>2026-04-10T04:53:16.245Z</time></trkpt><trkpt lat="45.6515805" lon="10.4204775"><ele>289.0</ele><time>2026-04-10T04:53:17.246Z</time></trkpt><trkpt lat="45.6515145" lon="10.4202862"><ele>292.0</ele><time>2026-04-10T04:53:18.246Z</time></trkpt><trkpt lat="45.6514407" lon="10.420086"><ele>295.0</ele><time>2026-04-10T04:53:19.245Z</time></trkpt><trkpt lat="45.6513601" lon="10.4198661"><ele>294.0</ele><time>2026-04-10T04:53:20.246Z</time></trkpt><trkpt lat="45.6512785" lon="10.419643"><ele>293.0</ele><time>2026-04-10T04:53:21.245Z</time></trkpt><trkpt lat="45.6504781" lon="10.4172071"><ele>292.6666666666667</ele><time>2026-04-10T04:53:32.246Z</time></trkpt><trkpt lat="45.6504216" lon="10.4170293"><ele>292.3333333333333</ele><time>2026-04-10T04:53:33.245Z</time></trkpt><trkpt lat="45.6503502" lon="10.416823"><ele>292.0</ele><time>2026-04-10T04:53:34.246Z</time></trkpt><trkpt lat="45.650274" lon="10.4166187"><ele>292.0</ele><time>2026-04-10T04:53:35.246Z</time></trkpt><trkpt lat="45.6501908" lon="10.4164147"><ele>292.0</ele><time>2026-04-10T04:53:36.246Z</time></trkpt><trkpt lat="45.6501166" lon="10.4162058"><ele>292.0</ele><time>2026-04-10T04:53:37.246Z</time></trkpt><trkpt lat="45.6500441" lon="10.4159827"><ele>290.3333333333333</ele><time>2026-04-10T04:53:38.245Z</time></trkpt><trkpt lat="45.6499793" lon="10.4157611"><ele>288.6666666666667</ele><time>2026-04-10T04:53:39.245Z</time></trkpt><trkpt lat="45.6499139" lon="10.415543"><ele>287.0</ele><time>2026-04-10T04:53:40.245Z</time></trkpt><trkpt lat="45.6498544" lon="10.4153287"><ele>287.0</ele><time>2026-04-10T04:53:41.245Z</time></trkpt><trkpt lat="45.6498043" lon="10.4151163"><ele>287.0</ele><time>2026-04-10T04:53:42.245Z</time></trkpt><trkpt lat="45.6497569" lon="10.4148977"><ele>287.0</ele><time>2026-04-10T04:53:43.244Z</time></trkpt><trkpt lat="45.649719" lon="10.4146768"><ele>289.6666666666667</ele><time>2026-04-10T04:53:44.245Z</time></trkpt><trkpt lat="45.6496829" lon="10.4144475"><ele>292.3333333333333</ele><time>2026-04-10T04:53:45.245Z</time></trkpt><trkpt lat="45.6496491" lon="10.414199"><ele>295.0</ele><time>2026-04-10T04:53:46.245Z</time></trkpt><trkpt lat="45.6496205" lon="10.4139529"><ele>296.3333333333333</ele><time>2026-04-10T04:53:47.245Z</time></trkpt><trkpt lat="45.6496016" lon="10.4137167"><ele>297.6666666666667</ele><time>2026-04-10T04:53:48.245Z</time></trkpt><trkpt lat="45.6495854" lon="10.4134894"><ele>299.0</ele><time>2026-04-10T04:53:49.245Z</time></trkpt><trkpt lat="45.6495767" lon="10.4132654"><ele>299.0</ele><time>2026-04-10T04:53:50.245Z</time></trkpt><trkpt lat="45.6495796" lon="10.4130433"><ele>299.0</ele><time>2026-04-10T04:53:51.244Z</time></trkpt><trkpt lat="45.6495953" lon="10.4128233"><ele>299.0</ele><time>2026-04-10T04:53:52.245Z</time></trkpt><trkpt lat="45.6496136" lon="10.4125998"><ele>299.0</ele><time>2026-04-10T04:53:53.244Z</time></trkpt><trkpt lat="45.6496264" lon="10.4123741"><ele>299.0</ele><time>2026-04-10T04:53:54.244Z</time></trkpt><trkpt lat="45.649641" lon="10.4121419"><ele>299.0</ele><time>2026-04-10T04:53:55.245Z</time></trkpt><trkpt lat="45.6496599" lon="10.411911"><ele>299.0</ele><time>2026-04-10T04:53:56.245Z</time></trkpt><trkpt lat="45.6496853" lon="10.4116868"><ele>299.0</ele><time>2026-04-10T04:53:57.244Z</time></trkpt><trkpt lat="45.6497179" lon="10.411468"><ele>299.0</ele><time>2026-04-10T04:53:58.244Z</time></trkpt><trkpt lat="45.6497559" lon="10.4112567"><ele>298.0</ele><time>2026-04-10T04:53:59.244Z</time></trkpt><trkpt lat="45.6498022" lon="10.4110239"><ele>297.0</ele><time>2026-04-10T04:54:00.245Z</time></trkpt><trkpt lat="45.6498692" lon="10.4107625"><ele>296.0</ele><time>2026-04-10T04:54:01.245Z</time></trkpt><trkpt lat="45.6499483" lon="10.4104761"><ele>296.0</ele><time>2026-04-10T04:54:02.244Z</time></trkpt><trkpt lat="45.6500442" lon="10.4101787"><ele>296.0</ele><time>2026-04-10T04:54:03.245Z</time></trkpt><trkpt lat="45.6501577" lon="10.4098363"><ele>296.0</ele><time>2026-04-10T04:54:04.245Z</time></trkpt><trkpt lat="45.6502824" lon="10.4094555"><ele>296.0</ele><time>2026-04-10T04:54:05.245Z</time></trkpt><trkpt lat="45.6504272" lon="10.4090092"><ele>298.0</ele><time>2026-04-10T04:54:06.245Z</time></trkpt><trkpt lat="45.6505832" lon="10.4085471"><ele>300.0</ele><time>2026-04-10T04:54:07.244Z</time></trkpt><trkpt lat="45.650741" lon="10.4080902"><ele>298.5</ele><time>2026-04-10T04:54:08.245Z</time></trkpt><trkpt lat="45.6509078" lon="10.4076242"><ele>297.0</ele><time>2026-04-10T04:54:09.245Z</time></trkpt><trkpt lat="45.6510738" lon="10.4071522"><ele>298.5</ele><time>2026-04-10T04:54:10.245Z</time></trkpt><trkpt lat="45.6512319" lon="10.4066868"><ele>300.0</ele><time>2026-04-10T04:54:11.245Z</time></trkpt><trkpt lat="45.6513843" lon="10.406239"><ele>300.0</ele><time>2026-04-10T04:54:12.245Z</time></trkpt><trkpt lat="45.651527" lon="10.4057946"><ele>300.0</ele><time>2026-04-10T04:54:13.245Z</time></trkpt><trkpt lat="45.6516739" lon="10.405353"><ele>300.5</ele><time>2026-04-10T04:54:14.245Z</time></trkpt><trkpt lat="45.651816" lon="10.4049188"><ele>301.0</ele><time>2026-04-10T04:54:15.244Z</time></trkpt><trkpt lat="45.6519656" lon="10.40449"><ele>303.5</ele><time>2026-04-10T04:54:16.245Z</time></trkpt><trkpt lat="45.652116" lon="10.4040506"><ele>306.0</ele><time>2026-04-10T04:54:17.244Z</time></trkpt><trkpt lat="45.652264" lon="10.4035977"><ele>306.0</ele><time>2026-04-10T04:54:18.244Z</time></trkpt><trkpt lat="45.6524172" lon="10.4031374"><ele>306.0</ele><time>2026-04-10T04:54:19.245Z</time></trkpt><trkpt lat="45.6525665" lon="10.4026814"><ele>305.0</ele><time>2026-04-10T04:54:20.244Z</time></trkpt><trkpt lat="45.652718" lon="10.4022267"><ele>304.0</ele><time>2026-04-10T04:54:21.245Z</time></trkpt><trkpt lat="45.6528695" lon="10.4017734"><ele>305.0</ele><time>2026-04-10T04:54:22.245Z</time></trkpt><trkpt lat="45.653024" lon="10.4013275"><ele>306.0</ele><time>2026-04-10T04:54:23.244Z</time></trkpt><trkpt lat="45.6531782" lon="10.4008867"><ele>305.0</ele><time>2026-04-10T04:54:24.245Z</time></trkpt><trkpt lat="45.6533241" lon="10.4004408"><ele>304.0</ele><time>2026-04-10T04:54:25.245Z</time></trkpt><trkpt lat="45.6534716" lon="10.3999895"><ele>304.5</ele><time>2026-04-10T04:54:26.245Z</time></trkpt><trkpt lat="45.6536188" lon="10.3995466"><ele>305.0</ele><time>2026-04-10T04:54:27.244Z</time></trkpt><trkpt lat="45.6537628" lon="10.3991083"><ele>306.0</ele><time>2026-04-10T04:54:28.245Z</time></trkpt><trkpt lat="45.6539063" lon="10.3986712"><ele>307.0</ele><time>2026-04-10T04:54:29.244Z</time></trkpt><trkpt lat="45.6540421" lon="10.3982551"><ele>306.0</ele><time>2026-04-10T04:54:30.245Z</time></trkpt><trkpt lat="45.654175" lon="10.3978454"><ele>305.0</ele><time>2026-04-10T04:54:31.245Z</time></trkpt><trkpt lat="45.6543071" lon="10.3974538"><ele>305.0</ele><time>2026-04-10T04:54:32.245Z</time></trkpt><trkpt lat="45.654421" lon="10.3970694"><ele>305.0</ele><time>2026-04-10T04:54:33.244Z</time></trkpt><trkpt lat="45.6545258" lon="10.3966802"><ele>307.0</ele><time>2026-04-10T04:54:34.245Z</time></trkpt><trkpt lat="45.6546131" lon="10.396293"><ele>309.0</ele><time>2026-04-10T04:54:35.244Z</time></trkpt><trkpt lat="45.6546919" lon="10.3959142"><ele>309.0</ele><time>2026-04-10T04:54:36.244Z</time></trkpt><trkpt lat="45.6547611" lon="10.3955576"><ele>309.0</ele><time>2026-04-10T04:54:37.245Z</time></trkpt><trkpt lat="45.6548133" lon="10.3952187"><ele>308.5</ele><time>2026-04-10T04:54:38.245Z</time></trkpt><trkpt lat="45.6548581" lon="10.3948948"><ele>308.0</ele><time>2026-04-10T04:54:39.244Z</time></trkpt><trkpt lat="45.6548934" lon="10.3945841"><ele>308.0</ele><time>2026-04-10T04:54:40.245Z</time></trkpt><trkpt lat="45.6549233" lon="10.3942713"><ele>308.0</ele><time>2026-04-10T04:54:41.244Z</time></trkpt><trkpt lat="45.6549428" lon="10.3939489"><ele>308.0</ele><time>2026-04-10T04:54:42.245Z</time></trkpt><trkpt lat="45.6549452" lon="10.3935904"><ele>309.0</ele><time>2026-04-10T04:54:43.244Z</time></trkpt><trkpt lat="45.6549376" lon="10.3931905"><ele>310.0</ele><time>2026-04-10T04:54:44.244Z</time></trkpt><trkpt lat="45.6549397" lon="10.3927778"><ele>311.0</ele><time>2026-04-10T04:54:45.245Z</time></trkpt><trkpt lat="45.6549375" lon="10.3923803"><ele>312.0</ele><time>2026-04-10T04:54:46.245Z</time></trkpt><trkpt lat="45.6549405" lon="10.3919877"><ele>312.0</ele><time>2026-04-10T04:54:47.245Z</time></trkpt><trkpt lat="45.6549353" lon="10.3916302"><ele>312.0</ele><time>2026-04-10T04:54:48.245Z</time></trkpt><trkpt lat="45.6549398" lon="10.3912957"><ele>311.3333333333333</ele><time>2026-04-10T04:54:49.245Z</time></trkpt><trkpt lat="45.6549333" lon="10.390976"><ele>310.66666666666663</ele><time>2026-04-10T04:54:50.245Z</time></trkpt><trkpt lat="45.6549247" lon="10.3906678"><ele>310.0</ele><time>2026-04-10T04:54:51.245Z</time></trkpt><trkpt lat="45.6549224" lon="10.390377"><ele>310.0</ele><time>2026-04-10T04:54:52.245Z</time></trkpt><trkpt lat="45.6549243" lon="10.3900856"><ele>310.0</ele><time>2026-04-10T04:54:53.245Z</time></trkpt><trkpt lat="45.6549237" lon="10.3897875"><ele>310.0</ele><time>2026-04-10T04:54:54.245Z</time></trkpt><trkpt lat="45.6549231" lon="10.3894875"><ele>309.3333333333333</ele><time>2026-04-10T04:54:55.245Z</time></trkpt><trkpt lat="45.6549184" lon="10.3891981"><ele>308.6666666666667</ele><time>2026-04-10T04:54:56.244Z</time></trkpt><trkpt lat="45.6549198" lon="10.3889268"><ele>308.0</ele><time>2026-04-10T04:54:57.245Z</time></trkpt><trkpt lat="45.654915" lon="10.3886616"><ele>308.0</ele><time>2026-04-10T04:54:58.244Z</time></trkpt><trkpt lat="45.654914" lon="10.388406"><ele>308.0</ele><time>2026-04-10T04:54:59.244Z</time></trkpt><trkpt lat="45.654913" lon="10.388164"><ele>308.0</ele><time>2026-04-10T04:55:00.244Z</time></trkpt><trkpt lat="45.6549111" lon="10.3879336"><ele>308.0</ele><time>2026-04-10T04:55:01.245Z</time></trkpt><trkpt lat="45.6549098" lon="10.3877064"><ele>308.0</ele><time>2026-04-10T04:55:02.245Z</time></trkpt><trkpt lat="45.6549071" lon="10.3874819"><ele>308.0</ele><time>2026-04-10T04:55:03.245Z</time></trkpt><trkpt lat="45.6549039" lon="10.3872634"><ele>308.25</ele><time>2026-04-10T04:55:04.244Z</time></trkpt><trkpt lat="45.6549001" lon="10.3870568"><ele>308.5</ele><time>2026-04-10T04:55:05.245Z</time></trkpt><trkpt lat="45.6548967" lon="10.3868661"><ele>308.75</ele><time>2026-04-10T04:55:06.244Z</time></trkpt><trkpt lat="45.6548948" lon="10.3866798"><ele>309.0</ele><time>2026-04-10T04:55:07.244Z</time></trkpt><trkpt lat="45.6548984" lon="10.3864945"><ele>309.0</ele><time>2026-04-10T04:55:08.245Z</time></trkpt><trkpt lat="45.6548975" lon="10.3863218"><ele>309.0</ele><time>2026-04-10T04:55:09.244Z</time></trkpt><trkpt lat="45.6548942" lon="10.3861594"><ele>309.0</ele><time>2026-04-10T04:55:10.245Z</time></trkpt><trkpt lat="45.6548963" lon="10.3859995"><ele>309.0</ele><time>2026-04-10T04:55:11.245Z</time></trkpt><trkpt lat="45.6549026" lon="10.385856"><ele>309.0</ele><time>2026-04-10T04:55:12.245Z</time></trkpt><trkpt lat="45.654911" lon="10.385725"><ele>309.0</ele><time>2026-04-10T04:55:13.245Z</time></trkpt><trkpt lat="45.6549147" lon="10.3856255"><ele>309.0</ele><time>2026-04-10T04:55:14.244Z</time></trkpt><trkpt lat="45.6549175" lon="10.3854962"><ele>309.0</ele><time>2026-04-10T04:55:16.245Z</time></trkpt><trkpt lat="45.6549156" lon="10.3853856"><ele>309.0</ele><time>2026-04-10T04:55:18.245Z</time></trkpt><trkpt lat="45.6549496" lon="10.3852375"><ele>309.0</ele><time>2026-04-10T04:55:20.245Z</time></trkpt><trkpt lat="45.6549865" lon="10.3851365"><ele>309.0</ele><time>2026-04-10T04:55:21.245Z</time></trkpt><trkpt lat="45.6550261" lon="10.3850624"><ele>308.8</ele><time>2026-04-10T04:55:22.245Z</time></trkpt><trkpt lat="45.6550795" lon="10.384933"><ele>308.59999999999997</ele><time>2026-04-10T04:55:24.245Z</time></trkpt><trkpt lat="45.6550613" lon="10.3847592"><ele>308.4</ele><time>2026-04-10T04:55:26.245Z</time></trkpt><trkpt lat="45.6550149" lon="10.3845999"><ele>308.2</ele><time>2026-04-10T04:55:28.245Z</time></trkpt><trkpt lat="45.6549959" lon="10.3845009"><ele>308.0</ele><time>2026-04-10T04:55:29.244Z</time></trkpt><trkpt lat="45.6549799" lon="10.3843884"><ele>307.83333333333337</ele><time>2026-04-10T04:55:30.244Z</time></trkpt><trkpt lat="45.6549577" lon="10.3842712"><ele>307.6666666666667</ele><time>2026-04-10T04:55:31.245Z</time></trkpt><trkpt lat="45.6549406" lon="10.3841597"><ele>307.5</ele><time>2026-04-10T04:55:32.244Z</time></trkpt><trkpt lat="45.654919" lon="10.3840543"><ele>307.3333333333333</ele><time>2026-04-10T04:55:33.245Z</time></trkpt><trkpt lat="45.6548999" lon="10.3839464"><ele>307.16666666666663</ele><time>2026-04-10T04:55:34.244Z</time></trkpt><trkpt lat="45.6548857" lon="10.3838273"><ele>307.0</ele><time>2026-04-10T04:55:35.245Z</time></trkpt><trkpt lat="45.6548733" lon="10.3836942"><ele>307.5</ele><time>2026-04-10T04:55:36.244Z</time></trkpt><trkpt lat="45.6548669" lon="10.3835439"><ele>308.0</ele><time>2026-04-10T04:55:37.245Z</time></trkpt><trkpt lat="45.6548685" lon="10.3833758"><ele>308.5</ele><time>2026-04-10T04:55:38.245Z</time></trkpt><trkpt lat="45.654862" lon="10.3831928"><ele>309.0</ele><time>2026-04-10T04:55:39.245Z</time></trkpt><trkpt lat="45.6548568" lon="10.3830002"><ele>309.5</ele><time>2026-04-10T04:55:40.245Z</time></trkpt><trkpt lat="45.6548609" lon="10.3828137"><ele>310.0</ele><time>2026-04-10T04:55:41.245Z</time></trkpt><trkpt lat="45.6548588" lon="10.3826141"><ele>310.5</ele><time>2026-04-10T04:55:42.245Z</time></trkpt><trkpt lat="45.6548617" lon="10.3823918"><ele>311.0</ele><time>2026-04-10T04:55:43.245Z</time></trkpt><trkpt lat="45.6548592" lon="10.3821403"><ele>311.0</ele><time>2026-04-10T04:55:44.245Z</time></trkpt><trkpt lat="45.6548669" lon="10.3818922"><ele>311.0</ele><time>2026-04-10T04:55:45.244Z</time></trkpt><trkpt lat="45.6548769" lon="10.3816589"><ele>311.0</ele><time>2026-04-10T04:55:46.245Z</time></trkpt><trkpt lat="45.6548972" lon="10.3814173"><ele>311.0</ele><time>2026-04-10T04:55:47.245Z</time></trkpt><trkpt lat="45.6549187" lon="10.3811787"><ele>311.0</ele><time>2026-04-10T04:55:48.245Z</time></trkpt><trkpt lat="45.6549537" lon="10.380924"><ele>311.0</ele><time>2026-04-10T04:55:49.245Z</time></trkpt><trkpt lat="45.6549892" lon="10.380675"><ele>311.6666666666667</ele><time>2026-04-10T04:55:50.245Z</time></trkpt><trkpt lat="45.655037" lon="10.3804176"><ele>312.3333333333333</ele><time>2026-04-10T04:55:51.244Z</time></trkpt><trkpt lat="45.6550922" lon="10.3801569"><ele>313.0</ele><time>2026-04-10T04:55:52.245Z</time></trkpt><trkpt lat="45.6551547" lon="10.3799022"><ele>313.3333333333333</ele><time>2026-04-10T04:55:53.245Z</time></trkpt><trkpt lat="45.6552258" lon="10.3796516"><ele>313.6666666666667</ele><time>2026-04-10T04:55:54.245Z</time></trkpt><trkpt lat="45.6553037" lon="10.3794065"><ele>314.0</ele><time>2026-04-10T04:55:55.245Z</time></trkpt><trkpt lat="45.6553798" lon="10.3791547"><ele>314.6666666666667</ele><time>2026-04-10T04:55:56.245Z</time></trkpt><trkpt lat="45.6554534" lon="10.378901"><ele>315.3333333333333</ele><time>2026-04-10T04:55:57.245Z</time></trkpt><trkpt lat="45.6555271" lon="10.3786594"><ele>316.0</ele><time>2026-04-10T04:55:58.245Z</time></trkpt><trkpt lat="45.6555997" lon="10.3784072"><ele>316.0</ele><time>2026-04-10T04:55:59.245Z</time></trkpt><trkpt lat="45.6556774" lon="10.3781572"><ele>316.0</ele><time>2026-04-10T04:56:00.245Z</time></trkpt><trkpt lat="45.6557527" lon="10.3779074"><ele>316.0</ele><time>2026-04-10T04:56:01.244Z</time></trkpt><trkpt lat="45.6558312" lon="10.377656"><ele>315.66666666666663</ele><time>2026-04-10T04:56:02.244Z</time></trkpt><trkpt lat="45.655912" lon="10.3773912"><ele>315.3333333333333</ele><time>2026-04-10T04:56:03.245Z</time></trkpt><trkpt lat="45.6559923" lon="10.3771104"><ele>315.0</ele><time>2026-04-10T04:56:04.245Z</time></trkpt><trkpt lat="45.6560636" lon="10.3768066"><ele>315.0</ele><time>2026-04-10T04:56:05.245Z</time></trkpt><trkpt lat="45.6561155" lon="10.3764939"><ele>315.0</ele><time>2026-04-10T04:56:06.244Z</time></trkpt><trkpt lat="45.6561639" lon="10.3761639"><ele>317.5</ele><time>2026-04-10T04:56:07.245Z</time></trkpt><trkpt lat="45.656198" lon="10.3758335"><ele>320.0</ele><time>2026-04-10T04:56:08.245Z</time></trkpt><trkpt lat="45.6562167" lon="10.3754908"><ele>320.0</ele><time>2026-04-10T04:56:09.245Z</time></trkpt><trkpt lat="45.6562195" lon="10.3751363"><ele>320.0</ele><time>2026-04-10T04:56:10.244Z</time></trkpt><trkpt lat="45.6562147" lon="10.3747608"><ele>319.0</ele><time>2026-04-10T04:56:11.245Z</time></trkpt><trkpt lat="45.6561947" lon="10.3743707"><ele>318.0</ele><time>2026-04-10T04:56:12.245Z</time></trkpt><trkpt lat="45.6561738" lon="10.3739697"><ele>318.0</ele><time>2026-04-10T04:56:13.245Z</time></trkpt><trkpt lat="45.6561506" lon="10.3735702"><ele>318.0</ele><time>2026-04-10T04:56:14.244Z</time></trkpt><trkpt lat="45.6561256" lon="10.3731647"><ele>317.5</ele><time>2026-04-10T04:56:15.245Z</time></trkpt><trkpt lat="45.6560942" lon="10.372769"><ele>317.0</ele><time>2026-04-10T04:56:16.245Z</time></trkpt><trkpt lat="45.656065" lon="10.3723679"><ele>318.0</ele><time>2026-04-10T04:56:17.245Z</time></trkpt><trkpt lat="45.6560373" lon="10.3719562"><ele>319.0</ele><time>2026-04-10T04:56:18.245Z</time></trkpt><trkpt lat="45.6560072" lon="10.3715538"><ele>320.0</ele><time>2026-04-10T04:56:19.244Z</time></trkpt><trkpt lat="45.6559788" lon="10.3711502"><ele>321.0</ele><time>2026-04-10T04:56:20.245Z</time></trkpt><trkpt lat="45.6559478" lon="10.3707469"><ele>321.5</ele><time>2026-04-10T04:56:21.244Z</time></trkpt><trkpt lat="45.6559147" lon="10.3703447"><ele>322.0</ele><time>2026-04-10T04:56:22.245Z</time></trkpt><trkpt lat="45.6558854" lon="10.3699414"><ele>322.5</ele><time>2026-04-10T04:56:23.245Z</time></trkpt><trkpt lat="45.6558478" lon="10.3695407"><ele>323.0</ele><time>2026-04-10T04:56:24.244Z</time></trkpt><trkpt lat="45.6558176" lon="10.3691394"><ele>324.5</ele><time>2026-04-10T04:56:25.245Z</time></trkpt><trkpt lat="45.6557855" lon="10.3687382"><ele>326.0</ele><time>2026-04-10T04:56:26.245Z</time></trkpt><trkpt lat="45.6557579" lon="10.3683393"><ele>326.0</ele><time>2026-04-10T04:56:27.244Z</time></trkpt><trkpt lat="45.6557389" lon="10.3679458"><ele>326.0</ele><time>2026-04-10T04:56:28.245Z</time></trkpt><trkpt lat="45.6557281" lon="10.3675451"><ele>325.5</ele><time>2026-04-10T04:56:29.244Z</time></trkpt><trkpt lat="45.6557386" lon="10.367143"><ele>325.0</ele><time>2026-04-10T04:56:30.245Z</time></trkpt><trkpt lat="45.6557709" lon="10.3667456"><ele>325.0</ele><time>2026-04-10T04:56:31.245Z</time></trkpt><trkpt lat="45.6558274" lon="10.3663573"><ele>325.0</ele><time>2026-04-10T04:56:32.245Z</time></trkpt><trkpt lat="45.6559132" lon="10.3659857"><ele>325.0</ele><time>2026-04-10T04:56:33.245Z</time></trkpt><trkpt lat="45.6560168" lon="10.3656137"><ele>325.0</ele><time>2026-04-10T04:56:34.245Z</time></trkpt><trkpt lat="45.6561371" lon="10.3652538"><ele>328.5</ele><time>2026-04-10T04:56:35.245Z</time></trkpt><trkpt lat="45.6562724" lon="10.3648947"><ele>332.0</ele><time>2026-04-10T04:56:36.245Z</time></trkpt><trkpt lat="45.6564173" lon="10.3645331"><ele>332.5</ele><time>2026-04-10T04:56:37.244Z</time></trkpt><trkpt lat="45.656557" lon="10.3641664"><ele>333.0</ele><time>2026-04-10T04:56:38.245Z</time></trkpt><trkpt lat="45.6566934" lon="10.3637889"><ele>333.5</ele><time>2026-04-10T04:56:39.245Z</time></trkpt><trkpt lat="45.6568324" lon="10.363407"><ele>334.0</ele><time>2026-04-10T04:56:40.245Z</time></trkpt><trkpt lat="45.6569758" lon="10.3630272"><ele>338.0</ele><time>2026-04-10T04:56:41.244Z</time></trkpt><trkpt lat="45.6571151" lon="10.3626476"><ele>342.0</ele><time>2026-04-10T04:56:42.244Z</time></trkpt><trkpt lat="45.6572611" lon="10.3622584"><ele>342.0</ele><time>2026-04-10T04:56:43.245Z</time></trkpt><trkpt lat="45.6574081" lon="10.3618689"><ele>342.0</ele><time>2026-04-10T04:56:44.245Z</time></trkpt><trkpt lat="45.6575616" lon="10.3614753"><ele>342.0</ele><time>2026-04-10T04:56:45.244Z</time></trkpt><trkpt lat="45.6577134" lon="10.3610888"><ele>342.0</ele><time>2026-04-10T04:56:46.245Z</time></trkpt><trkpt lat="45.6578731" lon="10.3607089"><ele>344.0</ele><time>2026-04-10T04:56:47.245Z</time></trkpt><trkpt lat="45.6580406" lon="10.3603321"><ele>346.0</ele><time>2026-04-10T04:56:48.244Z</time></trkpt><trkpt lat="45.6581992" lon="10.3599601"><ele>347.0</ele><time>2026-04-10T04:56:49.245Z</time></trkpt><trkpt lat="45.6583625" lon="10.3595877"><ele>348.0</ele><time>2026-04-10T04:56:50.245Z</time></trkpt><trkpt lat="45.6585291" lon="10.3592256"><ele>350.5</ele><time>2026-04-10T04:56:51.245Z</time></trkpt><trkpt lat="45.6587051" lon="10.3588651"><ele>353.0</ele><time>2026-04-10T04:56:52.245Z</time></trkpt><trkpt lat="45.65888" lon="10.3585039"><ele>353.0</ele><time>2026-04-10T04:56:53.245Z</time></trkpt><trkpt lat="45.6590547" lon="10.3581383"><ele>353.0</ele><time>2026-04-10T04:56:54.245Z</time></trkpt><trkpt lat="45.6592293" lon="10.3577707"><ele>354.0</ele><time>2026-04-10T04:56:55.245Z</time></trkpt><trkpt lat="45.6594007" lon="10.3574046"><ele>355.0</ele><time>2026-04-10T04:56:56.245Z</time></trkpt><trkpt lat="45.6595741" lon="10.3570343"><ele>357.5</ele><time>2026-04-10T04:56:57.245Z</time></trkpt><trkpt lat="45.659747" lon="10.3566688"><ele>360.0</ele><time>2026-04-10T04:56:58.245Z</time></trkpt><trkpt lat="45.6599135" lon="10.3562989"><ele>360.5</ele><time>2026-04-10T04:56:59.245Z</time></trkpt><trkpt lat="45.6600874" lon="10.3559338"><ele>361.0</ele><time>2026-04-10T04:57:00.244Z</time></trkpt><trkpt lat="45.6602607" lon="10.3555613"><ele>367.0</ele><time>2026-04-10T04:57:01.245Z</time></trkpt><trkpt lat="45.6604331" lon="10.3551932"><ele>373.0</ele><time>2026-04-10T04:57:02.245Z</time></trkpt><trkpt lat="45.6606086" lon="10.3548239"><ele>372.0</ele><time>2026-04-10T04:57:03.244Z</time></trkpt><trkpt lat="45.6607765" lon="10.354445"><ele>371.0</ele><time>2026-04-10T04:57:04.245Z</time></trkpt><trkpt lat="45.660945" lon="10.3540804"><ele>370.5</ele><time>2026-04-10T04:57:05.245Z</time></trkpt><trkpt lat="45.6611141" lon="10.3537062"><ele>370.0</ele><time>2026-04-10T04:57:06.244Z</time></trkpt><trkpt lat="45.6612871" lon="10.3533442"><ele>374.5</ele><time>2026-04-10T04:57:07.245Z</time></trkpt><trkpt lat="45.6614502" lon="10.3529831"><ele>379.0</ele><time>2026-04-10T04:57:08.245Z</time></trkpt><trkpt lat="45.6616086" lon="10.3526481"><ele>379.0</ele><time>2026-04-10T04:57:09.245Z</time></trkpt><trkpt lat="45.6617777" lon="10.3523323"><ele>379.0</ele><time>2026-04-10T04:57:10.245Z</time></trkpt><trkpt lat="45.6619698" lon="10.3520517"><ele>384.5</ele><time>2026-04-10T04:57:11.244Z</time></trkpt><trkpt lat="45.6621762" lon="10.3517967"><ele>390.0</ele><time>2026-04-10T04:57:12.244Z</time></trkpt><trkpt lat="45.6623915" lon="10.3515703"><ele>393.0</ele><time>2026-04-10T04:57:13.244Z</time></trkpt><trkpt lat="45.6626285" lon="10.3513508"><ele>396.0</ele><time>2026-04-10T04:57:14.244Z</time></trkpt><trkpt lat="45.6628644" lon="10.3511276"><ele>396.0</ele><time>2026-04-10T04:57:15.244Z</time></trkpt><trkpt lat="45.6631005" lon="10.3508922"><ele>396.0</ele><time>2026-04-10T04:57:16.245Z</time></trkpt><trkpt lat="45.6633283" lon="10.3506388"><ele>393.0</ele><time>2026-04-10T04:57:17.245Z</time></trkpt><trkpt lat="45.6635491" lon="10.3503724"><ele>390.0</ele><time>2026-04-10T04:57:18.245Z</time></trkpt><trkpt lat="45.6637591" lon="10.3500955"><ele>394.0</ele><time>2026-04-10T04:57:19.245Z</time></trkpt><trkpt lat="45.6639537" lon="10.3498232"><ele>398.0</ele><time>2026-04-10T04:57:20.245Z</time></trkpt><trkpt lat="45.664134" lon="10.3495763"><ele>398.0</ele><time>2026-04-10T04:57:21.245Z</time></trkpt><trkpt lat="45.6643046" lon="10.3493529"><ele>398.0</ele><time>2026-04-10T04:57:22.244Z</time></trkpt><trkpt lat="45.6644612" lon="10.3491379"><ele>398.0</ele><time>2026-04-10T04:57:23.244Z</time></trkpt><trkpt lat="45.6646058" lon="10.3489302"><ele>401.25</ele><time>2026-04-10T04:57:24.245Z</time></trkpt><trkpt lat="45.6647428" lon="10.348748"><ele>404.5</ele><time>2026-04-10T04:57:25.245Z</time></trkpt><trkpt lat="45.6648535" lon="10.3486069"><ele>407.75</ele><time>2026-04-10T04:57:26.245Z</time></trkpt><trkpt lat="45.6649312" lon="10.3484981"><ele>411.0</ele><time>2026-04-10T04:57:27.244Z</time></trkpt><trkpt lat="45.6649628" lon="10.3483931"><ele>411.0</ele><time>2026-04-10T04:57:28.245Z</time></trkpt><trkpt lat="45.6649545" lon="10.3482751"><ele>411.0</ele><time>2026-04-10T04:57:29.245Z</time></trkpt><trkpt lat="45.664907" lon="10.348139"><ele>411.0</ele><time>2026-04-10T04:57:30.245Z</time></trkpt><trkpt lat="45.6648487" lon="10.348022"><ele>411.0</ele><time>2026-04-10T04:57:31.245Z</time></trkpt><trkpt lat="45.6647596" lon="10.3479589"><ele>411.0</ele><time>2026-04-10T04:57:32.245Z</time></trkpt><trkpt lat="45.6646562" lon="10.3479314"><ele>409.0</ele><time>2026-04-10T04:57:33.245Z</time></trkpt><trkpt lat="45.6645316" lon="10.3479352"><ele>407.0</ele><time>2026-04-10T04:57:34.245Z</time></trkpt><trkpt lat="45.6643741" lon="10.3479837"><ele>405.0</ele><time>2026-04-10T04:57:35.245Z</time></trkpt><trkpt lat="45.6641898" lon="10.3480554"><ele>405.0</ele><time>2026-04-10T04:57:36.244Z</time></trkpt><trkpt lat="45.6639451" lon="10.3481137"><ele>405.0</ele><time>2026-04-10T04:57:37.245Z</time></trkpt><trkpt lat="45.6636662" lon="10.3481902"><ele>405.5</ele><time>2026-04-10T04:57:38.245Z</time></trkpt><trkpt lat="45.6634107" lon="10.3482747"><ele>406.0</ele><time>2026-04-10T04:57:39.245Z</time></trkpt><trkpt lat="45.6631851" lon="10.3483527"><ele>406.0</ele><time>2026-04-10T04:57:40.245Z</time></trkpt><trkpt lat="45.6630095" lon="10.3484198"><ele>406.0</ele><time>2026-04-10T04:57:41.244Z</time></trkpt><trkpt lat="45.6628684" lon="10.3484721"><ele>406.0</ele><time>2026-04-10T04:57:42.245Z</time></trkpt><trkpt lat="45.6627549" lon="10.3484989"><ele>406.0</ele><time>2026-04-10T04:57:43.244Z</time></trkpt><trkpt lat="45.6626611" lon="10.3484627"><ele>406.4</ele><time>2026-04-10T04:57:44.245Z</time></trkpt><trkpt lat="45.6625751" lon="10.3483749"><ele>406.8</ele><time>2026-04-10T04:57:45.244Z</time></trkpt><trkpt lat="45.6625198" lon="10.3482561"><ele>407.2</ele><time>2026-04-10T04:57:46.245Z</time></trkpt><trkpt lat="45.6624999" lon="10.3481034"><ele>407.59999999999997</ele><time>2026-04-10T04:57:47.245Z</time></trkpt><trkpt lat="45.6625102" lon="10.347933"><ele>408.0</ele><time>2026-04-10T04:57:48.245Z</time></trkpt><trkpt lat="45.6625752" lon="10.3477637"><ele>408.0</ele><time>2026-04-10T04:57:49.245Z</time></trkpt><trkpt lat="45.6626631" lon="10.3475657"><ele>408.0</ele><time>2026-04-10T04:57:50.245Z</time></trkpt><trkpt lat="45.6627945" lon="10.3473469"><ele>408.0</ele><time>2026-04-10T04:57:51.245Z</time></trkpt><trkpt lat="45.6629363" lon="10.3470989"><ele>415.5</ele><time>2026-04-10T04:57:52.245Z</time></trkpt><trkpt lat="45.6630689" lon="10.346812"><ele>423.0</ele><time>2026-04-10T04:57:53.245Z</time></trkpt><trkpt lat="45.6632043" lon="10.3465039"><ele>420.5</ele><time>2026-04-10T04:57:54.245Z</time></trkpt><trkpt lat="45.6633294" lon="10.3461633"><ele>418.0</ele><time>2026-04-10T04:57:55.245Z</time></trkpt><trkpt lat="45.6634523" lon="10.3457978"><ele>417.5</ele><time>2026-04-10T04:57:56.245Z</time></trkpt><trkpt lat="45.663554" lon="10.34542"><ele>417.0</ele><time>2026-04-10T04:57:57.244Z</time></trkpt><trkpt lat="45.6636433" lon="10.3450284"><ele>432.0</ele><time>2026-04-10T04:57:58.245Z</time></trkpt><trkpt lat="45.6637387" lon="10.3446275"><ele>447.0</ele><time>2026-04-10T04:57:59.245Z</time></trkpt><trkpt lat="45.663827" lon="10.3442236"><ele>445.0</ele><time>2026-04-10T04:58:00.245Z</time></trkpt><trkpt lat="45.6639086" lon="10.3438407"><ele>443.0</ele><time>2026-04-10T04:58:01.244Z</time></trkpt><trkpt lat="45.6639912" lon="10.3434878"><ele>443.0</ele><time>2026-04-10T04:58:02.244Z</time></trkpt><trkpt lat="45.6640608" lon="10.3431576"><ele>443.0</ele><time>2026-04-10T04:58:03.245Z</time></trkpt><trkpt lat="45.6641097" lon="10.342841"><ele>441.0</ele><time>2026-04-10T04:58:04.245Z</time></trkpt><trkpt lat="45.6641221" lon="10.3425126"><ele>439.0</ele><time>2026-04-10T04:58:05.245Z</time></trkpt><trkpt lat="45.6641133" lon="10.3421941"><ele>441.6666666666667</ele><time>2026-04-10T04:58:06.245Z</time></trkpt><trkpt lat="45.6640744" lon="10.3418891"><ele>444.33333333333337</ele><time>2026-04-10T04:58:07.245Z</time></trkpt><trkpt lat="45.6640336" lon="10.3416185"><ele>447.0</ele><time>2026-04-10T04:58:08.245Z</time></trkpt><trkpt lat="45.6639929" lon="10.341391"><ele>450.25</ele><time>2026-04-10T04:58:09.245Z</time></trkpt><trkpt lat="45.6639481" lon="10.3412139"><ele>453.5</ele><time>2026-04-10T04:58:10.245Z</time></trkpt><trkpt lat="45.663868" lon="10.3410647"><ele>456.75</ele><time>2026-04-10T04:58:11.245Z</time></trkpt><trkpt lat="45.6637727" lon="10.3409318"><ele>460.0</ele><time>2026-04-10T04:58:12.245Z</time></trkpt><trkpt lat="45.6636634" lon="10.3408346"><ele>459.25</ele><time>2026-04-10T04:58:13.244Z</time></trkpt><trkpt lat="45.6635372" lon="10.3407849"><ele>458.5</ele><time>2026-04-10T04:58:14.245Z</time></trkpt><trkpt lat="45.6634016" lon="10.3407914"><ele>457.75</ele><time>2026-04-10T04:58:15.245Z</time></trkpt><trkpt lat="45.6632605" lon="10.3408692"><ele>457.0</ele><time>2026-04-10T04:58:16.245Z</time></trkpt><trkpt lat="45.663129" lon="10.3409903"><ele>457.0</ele><time>2026-04-10T04:58:17.245Z</time></trkpt><trkpt lat="45.6629875" lon="10.3411367"><ele>457.0</ele><time>2026-04-10T04:58:18.245Z</time></trkpt><trkpt lat="45.6628114" lon="10.3413056"><ele>457.0</ele><time>2026-04-10T04:58:19.245Z</time></trkpt><trkpt lat="45.662607" lon="10.34149"><ele>461.0</ele><time>2026-04-10T04:58:20.245Z</time></trkpt><trkpt lat="45.6623829" lon="10.3416884"><ele>465.0</ele><time>2026-04-10T04:58:21.245Z</time></trkpt><trkpt lat="45.6621188" lon="10.3419168"><ele>466.0</ele><time>2026-04-10T04:58:22.244Z</time></trkpt><trkpt lat="45.6618264" lon="10.342194"><ele>467.0</ele><time>2026-04-10T04:58:23.244Z</time></trkpt><trkpt lat="45.6615548" lon="10.3424894"><ele>467.0</ele><time>2026-04-10T04:58:24.245Z</time></trkpt><trkpt lat="45.6613089" lon="10.3427744"><ele>467.0</ele><time>2026-04-10T04:58:25.245Z</time></trkpt><trkpt lat="45.6610913" lon="10.3430357"><ele>471.0</ele><time>2026-04-10T04:58:26.245Z</time></trkpt><trkpt lat="45.6608916" lon="10.3432735"><ele>475.0</ele><time>2026-04-10T04:58:27.245Z</time></trkpt><trkpt lat="45.6606896" lon="10.3434781"><ele>475.0</ele><time>2026-04-10T04:58:28.245Z</time></trkpt><trkpt lat="45.6604778" lon="10.3436444"><ele>475.0</ele><time>2026-04-10T04:58:29.245Z</time></trkpt><trkpt lat="45.660269" lon="10.3437644"><ele>473.33333333333337</ele><time>2026-04-10T04:58:30.245Z</time></trkpt><trkpt lat="45.6600494" lon="10.3438423"><ele>471.66666666666663</ele><time>2026-04-10T04:58:31.245Z</time></trkpt><trkpt lat="45.6598431" lon="10.3438737"><ele>470.0</ele><time>2026-04-10T04:58:32.245Z</time></trkpt><trkpt lat="45.6596495" lon="10.3438925"><ele>470.0</ele><time>2026-04-10T04:58:33.244Z</time></trkpt><trkpt lat="45.6594839" lon="10.3439034"><ele>470.0</ele><time>2026-04-10T04:58:34.245Z</time></trkpt><trkpt lat="45.6593464" lon="10.3439056"><ele>470.0</ele><time>2026-04-10T04:58:35.245Z</time></trkpt><trkpt lat="45.6592191" lon="10.343909"><ele>470.0</ele><time>2026-04-10T04:58:36.245Z</time></trkpt><trkpt lat="45.6591239" lon="10.3438563"><ele>475.2</ele><time>2026-04-10T04:58:37.244Z</time></trkpt><trkpt lat="45.6590332" lon="10.343761"><ele>480.4</ele><time>2026-04-10T04:58:38.244Z</time></trkpt><trkpt lat="45.6589603" lon="10.3436889"><ele>485.6</ele><time>2026-04-10T04:58:39.244Z</time></trkpt><trkpt lat="45.6588759" lon="10.3436623"><ele>490.8</ele><time>2026-04-10T04:58:40.244Z</time></trkpt><trkpt lat="45.6587806" lon="10.3436931"><ele>496.0</ele><time>2026-04-10T04:58:41.245Z</time></trkpt><trkpt lat="45.6586521" lon="10.3437806"><ele>494.0</ele><time>2026-04-10T04:58:42.244Z</time></trkpt><trkpt lat="45.6584891" lon="10.3438823"><ele>492.0</ele><time>2026-04-10T04:58:43.245Z</time></trkpt><trkpt lat="45.6582934" lon="10.343934"><ele>490.0</ele><time>2026-04-10T04:58:44.245Z</time></trkpt><trkpt lat="45.6580782" lon="10.3439785"><ele>490.0</ele><time>2026-04-10T04:58:45.245Z</time></trkpt><trkpt lat="45.6578539" lon="10.3440478"><ele>490.0</ele><time>2026-04-10T04:58:46.244Z</time></trkpt><trkpt lat="45.6576358" lon="10.3441815"><ele>494.5</ele><time>2026-04-10T04:58:47.245Z</time></trkpt><trkpt lat="45.657407" lon="10.3443419"><ele>499.0</ele><time>2026-04-10T04:58:48.245Z</time></trkpt><trkpt lat="45.6571883" lon="10.3445055"><ele>499.0</ele><time>2026-04-10T04:58:49.245Z</time></trkpt><trkpt lat="45.6569752" lon="10.3446712"><ele>499.0</ele><time>2026-04-10T04:58:50.245Z</time></trkpt><trkpt lat="45.6567768" lon="10.3448014"><ele>497.33333333333337</ele><time>2026-04-10T04:58:51.245Z</time></trkpt><trkpt lat="45.6565763" lon="10.344913"><ele>495.66666666666663</ele><time>2026-04-10T04:58:52.244Z</time></trkpt><trkpt lat="45.6563753" lon="10.3449988"><ele>494.0</ele><time>2026-04-10T04:58:53.244Z</time></trkpt><trkpt lat="45.6561726" lon="10.3450443"><ele>497.3333333333333</ele><time>2026-04-10T04:58:54.245Z</time></trkpt><trkpt lat="45.6559737" lon="10.3450663"><ele>500.66666666666663</ele><time>2026-04-10T04:58:55.244Z</time></trkpt><trkpt lat="45.6557874" lon="10.3450795"><ele>504.0</ele><time>2026-04-10T04:58:56.245Z</time></trkpt><trkpt lat="45.6556029" lon="10.345064"><ele>504.0</ele><time>2026-04-10T04:58:57.244Z</time></trkpt><trkpt lat="45.6554289" lon="10.3450424"><ele>504.0</ele><time>2026-04-10T04:58:58.244Z</time></trkpt><trkpt lat="45.6552675" lon="10.3450302"><ele>504.0</ele><time>2026-04-10T04:58:59.245Z</time></trkpt><trkpt lat="45.6551051" lon="10.3450281"><ele>505.33333333333337</ele><time>2026-04-10T04:59:00.245Z</time></trkpt><trkpt lat="45.6549433" lon="10.3450444"><ele>506.6666666666667</ele><time>2026-04-10T04:59:01.244Z</time></trkpt><trkpt lat="45.6547746" lon="10.3450592"><ele>508.0</ele><time>2026-04-10T04:59:02.245Z</time></trkpt><trkpt lat="45.654592" lon="10.3450825"><ele>511.33333333333337</ele><time>2026-04-10T04:59:03.245Z</time></trkpt><trkpt lat="45.6543809" lon="10.3451323"><ele>514.6666666666666</ele><time>2026-04-10T04:59:04.245Z</time></trkpt><trkpt lat="45.6541624" lon="10.3452199"><ele>518.0</ele><time>2026-04-10T04:59:05.245Z</time></trkpt><trkpt lat="45.6539095" lon="10.3453388"><ele>518.0</ele><time>2026-04-10T04:59:06.245Z</time></trkpt><trkpt lat="45.6536336" lon="10.345491"><ele>518.0</ele><time>2026-04-10T04:59:07.245Z</time></trkpt><trkpt lat="45.6533505" lon="10.3456471"><ele>515.0</ele><time>2026-04-10T04:59:08.244Z</time></trkpt><trkpt lat="45.6530642" lon="10.3458024"><ele>512.0</ele><time>2026-04-10T04:59:09.244Z</time></trkpt><trkpt lat="45.652773" lon="10.3459631"><ele>519.0</ele><time>2026-04-10T04:59:10.245Z</time></trkpt><trkpt lat="45.6524887" lon="10.3461196"><ele>526.0</ele><time>2026-04-10T04:59:11.245Z</time></trkpt><trkpt lat="45.6522124" lon="10.3462563"><ele>527.5</ele><time>2026-04-10T04:59:12.244Z</time></trkpt><trkpt lat="45.6519406" lon="10.3463931"><ele>529.0</ele><time>2026-04-10T04:59:13.245Z</time></trkpt><trkpt lat="45.6516709" lon="10.3465329"><ele>529.0</ele><time>2026-04-10T04:59:14.245Z</time></trkpt><trkpt lat="45.6514258" lon="10.346653"><ele>529.0</ele><time>2026-04-10T04:59:15.245Z</time></trkpt><trkpt lat="45.6511949" lon="10.346781"><ele>539.0</ele><time>2026-04-10T04:59:16.244Z</time></trkpt><trkpt lat="45.6509824" lon="10.3468875"><ele>549.0</ele><time>2026-04-10T04:59:17.245Z</time></trkpt><trkpt lat="45.6507725" lon="10.347001"><ele>549.0</ele><time>2026-04-10T04:59:18.245Z</time></trkpt><trkpt lat="45.6505862" lon="10.3471202"><ele>549.0</ele><time>2026-04-10T04:59:19.244Z</time></trkpt><trkpt lat="45.6504211" lon="10.3472482"><ele>549.0</ele><time>2026-04-10T04:59:20.245Z</time></trkpt><trkpt lat="45.6502949" lon="10.3473985"><ele>548.6666666666666</ele><time>2026-04-10T04:59:21.245Z</time></trkpt><trkpt lat="45.6502028" lon="10.3476168"><ele>548.3333333333333</ele><time>2026-04-10T04:59:22.245Z</time></trkpt><trkpt lat="45.6501323" lon="10.3478577"><ele>548.0</ele><time>2026-04-10T04:59:23.244Z</time></trkpt><trkpt lat="45.6500443" lon="10.3480968"><ele>548.0</ele><time>2026-04-10T04:59:24.245Z</time></trkpt><trkpt lat="45.6499409" lon="10.348315"><ele>548.0</ele><time>2026-04-10T04:59:25.245Z</time></trkpt><trkpt lat="45.6498166" lon="10.3485132"><ele>548.0</ele><time>2026-04-10T04:59:26.245Z</time></trkpt><trkpt lat="45.6496733" lon="10.3486686"><ele>548.0</ele><time>2026-04-10T04:59:27.244Z</time></trkpt><trkpt lat="45.6495328" lon="10.3488063"><ele>548.0</ele><time>2026-04-10T04:59:28.244Z</time></trkpt><trkpt lat="45.6494095" lon="10.3489399"><ele>548.0</ele><time>2026-04-10T04:59:29.245Z</time></trkpt><trkpt lat="45.6493077" lon="10.3490635"><ele>549.75</ele><time>2026-04-10T04:59:30.245Z</time></trkpt><trkpt lat="45.6492112" lon="10.3491726"><ele>551.5</ele><time>2026-04-10T04:59:31.244Z</time></trkpt><trkpt lat="45.6491202" lon="10.3492691"><ele>553.25</ele><time>2026-04-10T04:59:32.245Z</time></trkpt><trkpt lat="45.649023" lon="10.3493599"><ele>555.0</ele><time>2026-04-10T04:59:33.245Z</time></trkpt><trkpt lat="45.6489275" lon="10.3494352"><ele>555.0</ele><time>2026-04-10T04:59:34.245Z</time></trkpt><trkpt lat="45.6488063" lon="10.3494741"><ele>555.0</ele><time>2026-04-10T04:59:35.245Z</time></trkpt><trkpt lat="45.648692" lon="10.3494639"><ele>555.0</ele><time>2026-04-10T04:59:36.245Z</time></trkpt><trkpt lat="45.648567" lon="10.3494386"><ele>555.0</ele><time>2026-04-10T04:59:37.244Z</time></trkpt><trkpt lat="45.6484594" lon="10.3493555"><ele>555.0</ele><time>2026-04-10T04:59:38.245Z</time></trkpt><trkpt lat="45.6483601" lon="10.3492414"><ele>555.0</ele><time>2026-04-10T04:59:39.245Z</time></trkpt><trkpt lat="45.648263" lon="10.3491108"><ele>555.0</ele><time>2026-04-10T04:59:40.244Z</time></trkpt><trkpt lat="45.6481636" lon="10.3489863"><ele>555.0</ele><time>2026-04-10T04:59:41.245Z</time></trkpt><trkpt lat="45.648048" lon="10.3488345"><ele>555.6666666666666</ele><time>2026-04-10T04:59:42.245Z</time></trkpt><trkpt lat="45.6479199" lon="10.3487002"><ele>556.3333333333333</ele><time>2026-04-10T04:59:43.245Z</time></trkpt><trkpt lat="45.6478" lon="10.3485706"><ele>557.0</ele><time>2026-04-10T04:59:44.245Z</time></trkpt><trkpt lat="45.6476921" lon="10.3484404"><ele>557.0</ele><time>2026-04-10T04:59:45.245Z</time></trkpt><trkpt lat="45.6475841" lon="10.3483044"><ele>557.0</ele><time>2026-04-10T04:59:46.245Z</time></trkpt><trkpt lat="45.6474863" lon="10.3481641"><ele>557.0</ele><time>2026-04-10T04:59:47.244Z</time></trkpt><trkpt lat="45.6474102" lon="10.3479907"><ele>557.0</ele><time>2026-04-10T04:59:48.245Z</time></trkpt><trkpt lat="45.647356" lon="10.3477901"><ele>561.75</ele><time>2026-04-10T04:59:49.245Z</time></trkpt><trkpt lat="45.647307" lon="10.347573"><ele>566.5</ele><time>2026-04-10T04:59:50.245Z</time></trkpt><trkpt lat="45.6472769" lon="10.3473673"><ele>571.25</ele><time>2026-04-10T04:59:51.245Z</time></trkpt><trkpt lat="45.6472538" lon="10.3471685"><ele>576.0</ele><time>2026-04-10T04:59:52.245Z</time></trkpt><trkpt lat="45.6472258" lon="10.346975"><ele>577.0</ele><time>2026-04-10T04:59:53.245Z</time></trkpt><trkpt lat="45.6471994" lon="10.3467694"><ele>578.0</ele><time>2026-04-10T04:59:54.244Z</time></trkpt><trkpt lat="45.6471549" lon="10.3465507"><ele>579.0</ele><time>2026-04-10T04:59:55.245Z</time></trkpt><trkpt lat="45.6470996" lon="10.3463102"><ele>581.0</ele><time>2026-04-10T04:59:56.245Z</time></trkpt><trkpt lat="45.647045" lon="10.3460192"><ele>583.0</ele><time>2026-04-10T04:59:57.245Z</time></trkpt><trkpt lat="45.6469855" lon="10.345722"><ele>585.0</ele><time>2026-04-10T04:59:58.244Z</time></trkpt><trkpt lat="45.646919" lon="10.34541"><ele>575.0</ele><time>2026-04-10T04:59:59.245Z</time></trkpt><trkpt lat="45.6468481" lon="10.3450783"><ele>565.0</ele><time>2026-04-10T05:00:00.245Z</time></trkpt><trkpt lat="45.6467655" lon="10.3447435"><ele>571.5</ele><time>2026-04-10T05:00:01.245Z</time></trkpt><trkpt lat="45.646684" lon="10.3443916"><ele>578.0</ele><time>2026-04-10T05:00:02.245Z</time></trkpt><trkpt lat="45.646598" lon="10.344039"><ele>580.0</ele><time>2026-04-10T05:00:03.245Z</time></trkpt><trkpt lat="45.6465103" lon="10.343703"><ele>582.0</ele><time>2026-04-10T05:00:04.245Z</time></trkpt><trkpt lat="45.646424" lon="10.3433908"><ele>582.0</ele><time>2026-04-10T05:00:05.244Z</time></trkpt><trkpt lat="45.6463565" lon="10.3431053"><ele>582.0</ele><time>2026-04-10T05:00:06.245Z</time></trkpt><trkpt lat="45.6462994" lon="10.3428507"><ele>582.0</ele><time>2026-04-10T05:00:07.245Z</time></trkpt><trkpt lat="45.6462442" lon="10.3426198"><ele>582.0</ele><time>2026-04-10T05:00:08.244Z</time></trkpt><trkpt lat="45.6461971" lon="10.3424313"><ele>582.0</ele><time>2026-04-10T05:00:09.245Z</time></trkpt><trkpt lat="45.6461718" lon="10.3422702"><ele>582.0</ele><time>2026-04-10T05:00:10.245Z</time></trkpt><trkpt lat="45.6461893" lon="10.3421217"><ele>582.0</ele><time>2026-04-10T05:00:11.245Z</time></trkpt><trkpt lat="45.6462354" lon="10.3419754"><ele>582.0</ele><time>2026-04-10T05:00:12.245Z</time></trkpt><trkpt lat="45.64632" lon="10.341906"><ele>582.0</ele><time>2026-04-10T05:00:13.245Z</time></trkpt><trkpt lat="45.6464256" lon="10.3419049"><ele>582.0</ele><time>2026-04-10T05:00:14.245Z</time></trkpt><trkpt lat="45.646543" lon="10.3419558"><ele>582.0</ele><time>2026-04-10T05:00:15.245Z</time></trkpt><trkpt lat="45.6466177" lon="10.3420733"><ele>582.0</ele><time>2026-04-10T05:00:16.244Z</time></trkpt><trkpt lat="45.6466704" lon="10.342235"><ele>582.0</ele><time>2026-04-10T05:00:17.245Z</time></trkpt><trkpt lat="45.6467157" lon="10.3424625"><ele>582.0</ele><time>2026-04-10T05:00:18.245Z</time></trkpt><trkpt lat="45.6467641" lon="10.3427428"><ele>582.0</ele><time>2026-04-10T05:00:19.245Z</time></trkpt><trkpt lat="45.6468251" lon="10.34304"><ele>582.0</ele><time>2026-04-10T05:00:20.245Z</time></trkpt><trkpt lat="45.6468948" lon="10.3433327"><ele>582.0</ele><time>2026-04-10T05:00:21.245Z</time></trkpt><trkpt lat="45.6469714" lon="10.3436336"><ele>582.0</ele><time>2026-04-10T05:00:22.244Z</time></trkpt><trkpt lat="45.6470637" lon="10.3439385"><ele>593.5</ele><time>2026-04-10T05:00:23.244Z</time></trkpt><trkpt lat="45.6471739" lon="10.3442541"><ele>605.0</ele><time>2026-04-10T05:00:24.245Z</time></trkpt><trkpt lat="45.6472964" lon="10.344552"><ele>601.6666666666666</ele><time>2026-04-10T05:00:25.245Z</time></trkpt><trkpt lat="45.6474262" lon="10.3448224"><ele>598.3333333333334</ele><time>2026-04-10T05:00:26.245Z</time></trkpt><trkpt lat="45.6475412" lon="10.3450593"><ele>595.0</ele><time>2026-04-10T05:00:27.245Z</time></trkpt><trkpt lat="45.6476485" lon="10.3452818"><ele>595.0</ele><time>2026-04-10T05:00:28.245Z</time></trkpt><trkpt lat="45.6477349" lon="10.3454792"><ele>595.0</ele><time>2026-04-10T05:00:29.245Z</time></trkpt><trkpt lat="45.6478153" lon="10.3456443"><ele>595.0</ele><time>2026-04-10T05:00:30.245Z</time></trkpt><trkpt lat="45.6478823" lon="10.3457888"><ele>595.0</ele><time>2026-04-10T05:00:31.245Z</time></trkpt><trkpt lat="45.6479589" lon="10.3459141"><ele>599.8333333333334</ele><time>2026-04-10T05:00:32.245Z</time></trkpt><trkpt lat="45.6480259" lon="10.3459682"><ele>604.6666666666667</ele><time>2026-04-10T05:00:33.244Z</time></trkpt><trkpt lat="45.6481274" lon="10.3459763"><ele>609.5</ele><time>2026-04-10T05:00:34.245Z</time></trkpt><trkpt lat="45.6482073" lon="10.3459436"><ele>614.3333333333334</ele><time>2026-04-10T05:00:35.244Z</time></trkpt><trkpt lat="45.6482522" lon="10.34588"><ele>619.1666666666666</ele><time>2026-04-10T05:00:36.245Z</time></trkpt><trkpt lat="45.6482656" lon="10.3457571"><ele>624.0</ele><time>2026-04-10T05:00:37.244Z</time></trkpt><trkpt lat="45.6482108" lon="10.3455317"><ele>626.0</ele><time>2026-04-10T05:00:38.245Z</time></trkpt><trkpt lat="45.6481356" lon="10.3452634"><ele>628.0</ele><time>2026-04-10T05:00:39.245Z</time></trkpt><trkpt lat="45.6480564" lon="10.3448985"><ele>634.0</ele><time>2026-04-10T05:00:40.245Z</time></trkpt><trkpt lat="45.6479672" lon="10.344498"><ele>640.0</ele><time>2026-04-10T05:00:41.245Z</time></trkpt><trkpt lat="45.647902" lon="10.3441417"><ele>643.5</ele><time>2026-04-10T05:00:42.245Z</time></trkpt><trkpt lat="45.6478642" lon="10.3437964"><ele>647.0</ele><time>2026-04-10T05:00:43.245Z</time></trkpt><trkpt lat="45.647859" lon="10.3434578"><ele>647.0</ele><time>2026-04-10T05:00:44.244Z</time></trkpt><trkpt lat="45.6478894" lon="10.3430971"><ele>647.0</ele><time>2026-04-10T05:00:45.244Z</time></trkpt><trkpt lat="45.647961" lon="10.3427524"><ele>643.0</ele><time>2026-04-10T05:00:46.245Z</time></trkpt><trkpt lat="45.648075" lon="10.3424323"><ele>639.0</ele><time>2026-04-10T05:00:47.244Z</time></trkpt><trkpt lat="45.6482161" lon="10.3421335"><ele>632.5</ele><time>2026-04-10T05:00:48.245Z</time></trkpt><trkpt lat="45.6484052" lon="10.3418426"><ele>626.0</ele><time>2026-04-10T05:00:49.244Z</time></trkpt><trkpt lat="45.6486305" lon="10.3415208"><ele>633.5</ele><time>2026-04-10T05:00:50.244Z</time></trkpt><trkpt lat="45.6488337" lon="10.3412132"><ele>641.0</ele><time>2026-04-10T05:00:51.245Z</time></trkpt><trkpt lat="45.6489963" lon="10.3409455"><ele>641.0</ele><time>2026-04-10T05:00:52.244Z</time></trkpt><trkpt lat="45.6491501" lon="10.3407017"><ele>641.0</ele><time>2026-04-10T05:00:53.245Z</time></trkpt><trkpt lat="45.649282" lon="10.3404709"><ele>641.0</ele><time>2026-04-10T05:00:54.245Z</time></trkpt><trkpt lat="45.6493502" lon="10.340217"><ele>640.3333333333333</ele><time>2026-04-10T05:00:55.245Z</time></trkpt><trkpt lat="45.6493809" lon="10.3399458"><ele>639.6666666666666</ele><time>2026-04-10T05:00:56.245Z</time></trkpt><trkpt lat="45.6493607" lon="10.3396679"><ele>639.0</ele><time>2026-04-10T05:00:57.245Z</time></trkpt><trkpt lat="45.6493057" lon="10.3394078"><ele>639.0</ele><time>2026-04-10T05:00:58.244Z</time></trkpt><trkpt lat="45.6492221" lon="10.3391499"><ele>639.0</ele><time>2026-04-10T05:00:59.245Z</time></trkpt><trkpt lat="45.649109" lon="10.3389256"><ele>639.0</ele><time>2026-04-10T05:01:00.245Z</time></trkpt><trkpt lat="45.6489574" lon="10.3387437"><ele>643.5</ele><time>2026-04-10T05:01:01.245Z</time></trkpt><trkpt lat="45.6487603" lon="10.3386146"><ele>648.0</ele><time>2026-04-10T05:01:02.245Z</time></trkpt><trkpt lat="45.6485321" lon="10.3384787"><ele>650.5</ele><time>2026-04-10T05:01:03.245Z</time></trkpt><trkpt lat="45.6482574" lon="10.3383322"><ele>653.0</ele><time>2026-04-10T05:01:04.245Z</time></trkpt><trkpt lat="45.6480044" lon="10.3381706"><ele>656.0</ele><time>2026-04-10T05:01:05.245Z</time></trkpt><trkpt lat="45.6477948" lon="10.3379892"><ele>659.0</ele><time>2026-04-10T05:01:06.244Z</time></trkpt><trkpt lat="45.6476088" lon="10.3377718"><ele>659.0</ele><time>2026-04-10T05:01:07.244Z</time></trkpt><trkpt lat="45.6474384" lon="10.3375329"><ele>659.0</ele><time>2026-04-10T05:01:08.244Z</time></trkpt><trkpt lat="45.6473093" lon="10.3372417"><ele>670.0</ele><time>2026-04-10T05:01:09.243Z</time></trkpt><trkpt lat="45.6472028" lon="10.3369263"><ele>681.0</ele><time>2026-04-10T05:01:10.244Z</time></trkpt><trkpt lat="45.6471372" lon="10.3365777"><ele>682.0</ele><time>2026-04-10T05:01:11.244Z</time></trkpt><trkpt lat="45.6471162" lon="10.3362172"><ele>683.0</ele><time>2026-04-10T05:01:12.244Z</time></trkpt><trkpt lat="45.6471456" lon="10.3358284"><ele>681.5</ele><time>2026-04-10T05:01:13.243Z</time></trkpt><trkpt lat="45.6471672" lon="10.3353775"><ele>680.0</ele><time>2026-04-10T05:01:14.244Z</time></trkpt><trkpt lat="45.647192" lon="10.3349073"><ele>680.5</ele><time>2026-04-10T05:01:15.244Z</time></trkpt><trkpt lat="45.6472143" lon="10.3344463"><ele>681.0</ele><time>2026-04-10T05:01:16.243Z</time></trkpt><trkpt lat="45.647205" lon="10.3340018"><ele>682.5</ele><time>2026-04-10T05:01:17.244Z</time></trkpt><trkpt lat="45.6471711" lon="10.3335502"><ele>684.0</ele><time>2026-04-10T05:01:18.244Z</time></trkpt><trkpt lat="45.6471089" lon="10.3330961"><ele>694.0</ele><time>2026-04-10T05:01:19.243Z</time></trkpt><trkpt lat="45.6470374" lon="10.3326238"><ele>704.0</ele><time>2026-04-10T05:01:20.243Z</time></trkpt><trkpt lat="45.6469684" lon="10.3321534"><ele>722.0</ele><time>2026-04-10T05:01:21.244Z</time></trkpt><trkpt lat="45.6463976" lon="10.3236357"><ele>722.0</ele><time>2026-04-10T05:01:39.243Z</time></trkpt><trkpt lat="45.646561" lon="10.3230872"><ele>722.0</ele><time>2026-04-10T05:01:40.244Z</time></trkpt><trkpt lat="45.6467191" lon="10.322627"><ele>715.0</ele><time>2026-04-10T05:01:41.244Z</time></trkpt><trkpt lat="45.6484358" lon="10.3176167"><ele>715.0</ele><time>2026-04-10T05:01:52.244Z</time></trkpt><trkpt lat="45.6484877" lon="10.317264"><ele>715.0</ele><time>2026-04-10T05:01:53.244Z</time></trkpt><trkpt lat="45.6485172" lon="10.3169146"><ele>709.0</ele><time>2026-04-10T05:01:54.244Z</time></trkpt><trkpt lat="45.6485014" lon="10.3165952"><ele>703.0</ele><time>2026-04-10T05:01:55.244Z</time></trkpt><trkpt lat="45.6484396" lon="10.3162611"><ele>694.5</ele><time>2026-04-10T05:01:56.243Z</time></trkpt><trkpt lat="45.64837" lon="10.3158801"><ele>686.0</ele><time>2026-04-10T05:01:57.244Z</time></trkpt><trkpt lat="45.6482893" lon="10.3154518"><ele>690.0</ele><time>2026-04-10T05:01:58.243Z</time></trkpt><trkpt lat="45.6482082" lon="10.3149856"><ele>694.0</ele><time>2026-04-10T05:01:59.243Z</time></trkpt><trkpt lat="45.6481182" lon="10.314496"><ele>694.0</ele><time>2026-04-10T05:02:00.244Z</time></trkpt><trkpt lat="45.6480257" lon="10.3139758"><ele>694.0</ele><time>2026-04-10T05:02:01.244Z</time></trkpt><trkpt lat="45.6479349" lon="10.3134474"><ele>704.0</ele><time>2026-04-10T05:02:02.243Z</time></trkpt><trkpt lat="45.6478381" lon="10.3129151"><ele>714.0</ele><time>2026-04-10T05:02:03.243Z</time></trkpt><trkpt lat="45.6474528" lon="10.3093285"><ele>700.0</ele><time>2026-04-10T05:02:09.244Z</time></trkpt><trkpt lat="45.6474292" lon="10.308664"><ele>697.0</ele><time>2026-04-10T05:02:10.244Z</time></trkpt><trkpt lat="45.6473851" lon="10.3080499"><ele>694.0</ele><time>2026-04-10T05:02:11.244Z</time></trkpt><trkpt lat="45.6473524" lon="10.3074912"><ele>702.0</ele><time>2026-04-10T05:02:12.243Z</time></trkpt><trkpt lat="45.6473023" lon="10.3069719"><ele>710.0</ele><time>2026-04-10T05:02:13.243Z</time></trkpt><trkpt lat="45.647252" lon="10.3064935"><ele>716.0</ele><time>2026-04-10T05:02:14.244Z</time></trkpt><trkpt lat="45.6472207" lon="10.3060413"><ele>722.0</ele><time>2026-04-10T05:02:15.243Z</time></trkpt><trkpt lat="45.6471812" lon="10.3056147"><ele>731.5</ele><time>2026-04-10T05:02:16.244Z</time></trkpt><trkpt lat="45.6471471" lon="10.3052196"><ele>741.0</ele><time>2026-04-10T05:02:17.244Z</time></trkpt><trkpt lat="45.647121" lon="10.30485"><ele>745.0</ele><time>2026-04-10T05:02:18.244Z</time></trkpt><trkpt lat="45.6471267" lon="10.304514"><ele>749.0</ele><time>2026-04-10T05:02:19.244Z</time></trkpt><trkpt lat="45.6471668" lon="10.3041973"><ele>748.6666666666666</ele><time>2026-04-10T05:02:20.244Z</time></trkpt><trkpt lat="45.6472239" lon="10.3038845"><ele>748.3333333333334</ele><time>2026-04-10T05:02:21.243Z</time></trkpt><trkpt lat="45.6472836" lon="10.3036144"><ele>748.0</ele><time>2026-04-10T05:02:22.243Z</time></trkpt><trkpt lat="45.647361" lon="10.3033551"><ele>748.0</ele><time>2026-04-10T05:02:23.244Z</time></trkpt><trkpt lat="45.647428" lon="10.3031052"><ele>748.0</ele><time>2026-04-10T05:02:24.244Z</time></trkpt><trkpt lat="45.6474838" lon="10.3028748"><ele>748.0</ele><time>2026-04-10T05:02:25.243Z</time></trkpt><trkpt lat="45.6475305" lon="10.3026709"><ele>743.75</ele><time>2026-04-10T05:02:26.243Z</time></trkpt><trkpt lat="45.6475796" lon="10.3024756"><ele>739.5</ele><time>2026-04-10T05:02:27.244Z</time></trkpt><trkpt lat="45.6476283" lon="10.3022871"><ele>735.25</ele><time>2026-04-10T05:02:28.244Z</time></trkpt><trkpt lat="45.6476722" lon="10.3020913"><ele>731.0</ele><time>2026-04-10T05:02:29.244Z</time></trkpt><trkpt lat="45.6477168" lon="10.3018745"><ele>735.3333333333333</ele><time>2026-04-10T05:02:30.244Z</time></trkpt><trkpt lat="45.6477729" lon="10.3016536"><ele>739.6666666666666</ele><time>2026-04-10T05:02:31.244Z</time></trkpt><trkpt lat="45.6478283" lon="10.3014442"><ele>744.0</ele><time>2026-04-10T05:02:32.244Z</time></trkpt><trkpt lat="45.6478704" lon="10.3012451"><ele>744.0</ele><time>2026-04-10T05:02:33.244Z</time></trkpt><trkpt lat="45.6479108" lon="10.3010625"><ele>744.0</ele><time>2026-04-10T05:02:34.244Z</time></trkpt><trkpt lat="45.647958" lon="10.3008741"><ele>744.0</ele><time>2026-04-10T05:02:35.244Z</time></trkpt><trkpt lat="45.6480051" lon="10.3006829"><ele>744.0</ele><time>2026-04-10T05:02:36.244Z</time></trkpt><trkpt lat="45.6480258" lon="10.3004815"><ele>744.3333333333334</ele><time>2026-04-10T05:02:37.243Z</time></trkpt><trkpt lat="45.6480228" lon="10.300244"><ele>744.6666666666667</ele><time>2026-04-10T05:02:38.244Z</time></trkpt><trkpt lat="45.648001" lon="10.2999852"><ele>745.0</ele><time>2026-04-10T05:02:39.244Z</time></trkpt><trkpt lat="45.6479688" lon="10.299702"><ele>747.3333333333334</ele><time>2026-04-10T05:02:40.244Z</time></trkpt><trkpt lat="45.6479284" lon="10.2994118"><ele>749.6666666666666</ele><time>2026-04-10T05:02:41.244Z</time></trkpt><trkpt lat="45.6478873" lon="10.2991221"><ele>752.0</ele><time>2026-04-10T05:02:42.243Z</time></trkpt><trkpt lat="45.6478555" lon="10.2988458"><ele>752.0</ele><time>2026-04-10T05:02:43.243Z</time></trkpt><trkpt lat="45.6478415" lon="10.2985755"><ele>752.0</ele><time>2026-04-10T05:02:44.244Z</time></trkpt><trkpt lat="45.6478604" lon="10.2983136"><ele>752.0</ele><time>2026-04-10T05:02:45.244Z</time></trkpt><trkpt lat="45.6479028" lon="10.298054"><ele>745.6666666666666</ele><time>2026-04-10T05:02:46.244Z</time></trkpt><trkpt lat="45.6479701" lon="10.2977864"><ele>739.3333333333334</ele><time>2026-04-10T05:02:47.244Z</time></trkpt><trkpt lat="45.6480615" lon="10.2975057"><ele>733.0</ele><time>2026-04-10T05:02:48.244Z</time></trkpt><trkpt lat="45.648139" lon="10.2972046"><ele>725.0</ele><time>2026-04-10T05:02:49.243Z</time></trkpt><trkpt lat="45.6483141" lon="10.2966289"><ele>717.0</ele><time>2026-04-10T05:02:51.244Z</time></trkpt><trkpt lat="45.6487866" lon="10.2953077"><ele>707.5</ele><time>2026-04-10T05:02:55.244Z</time></trkpt><trkpt lat="45.6489096" lon="10.294937"><ele>698.0</ele><time>2026-04-10T05:02:56.244Z</time></trkpt><trkpt lat="45.6490086" lon="10.2945835"><ele>698.0</ele><time>2026-04-10T05:02:57.244Z</time></trkpt><trkpt lat="45.6491057" lon="10.2942651"><ele>698.0</ele><time>2026-04-10T05:02:58.244Z</time></trkpt><trkpt lat="45.649209" lon="10.2939397"><ele>689.5</ele><time>2026-04-10T05:02:59.244Z</time></trkpt><trkpt lat="45.6493191" lon="10.2936224"><ele>681.0</ele><time>2026-04-10T05:03:00.244Z</time></trkpt><trkpt lat="45.6494189" lon="10.2933182"><ele>693.0</ele><time>2026-04-10T05:03:01.244Z</time></trkpt><trkpt lat="45.6495244" lon="10.293026"><ele>705.0</ele><time>2026-04-10T05:03:02.244Z</time></trkpt><trkpt lat="45.6496234" lon="10.2927362"><ele>705.0</ele><time>2026-04-10T05:03:03.244Z</time></trkpt><trkpt lat="45.6497253" lon="10.2924646"><ele>705.0</ele><time>2026-04-10T05:03:04.243Z</time></trkpt><trkpt lat="45.6498433" lon="10.2922106"><ele>705.0</ele><time>2026-04-10T05:03:05.243Z</time></trkpt><trkpt lat="45.649987" lon="10.2919744"><ele>707.5</ele><time>2026-04-10T05:03:06.243Z</time></trkpt><trkpt lat="45.6501467" lon="10.2917493"><ele>710.0</ele><time>2026-04-10T05:03:07.244Z</time></trkpt><trkpt lat="45.6503188" lon="10.2915279"><ele>695.0</ele><time>2026-04-10T05:03:08.243Z</time></trkpt><trkpt lat="45.6504953" lon="10.2913088"><ele>680.0</ele><time>2026-04-10T05:03:09.244Z</time></trkpt><trkpt lat="45.6506877" lon="10.2910929"><ele>680.0</ele><time>2026-04-10T05:03:10.244Z</time></trkpt><trkpt lat="45.6508777" lon="10.2908803"><ele>680.0</ele><time>2026-04-10T05:03:11.244Z</time></trkpt><trkpt lat="45.6510711" lon="10.290677"><ele>679.5</ele><time>2026-04-10T05:03:12.244Z</time></trkpt><trkpt lat="45.6512554" lon="10.2904817"><ele>679.0</ele><time>2026-04-10T05:03:13.243Z</time></trkpt><trkpt lat="45.6514378" lon="10.2902875"><ele>679.0</ele><time>2026-04-10T05:03:14.244Z</time></trkpt><trkpt lat="45.6516117" lon="10.290102"><ele>679.0</ele><time>2026-04-10T05:03:15.244Z</time></trkpt><trkpt lat="45.6517765" lon="10.2899269"><ele>679.0</ele><time>2026-04-10T05:03:16.244Z</time></trkpt><trkpt lat="45.6519336" lon="10.2897627"><ele>677.0</ele><time>2026-04-10T05:03:17.244Z</time></trkpt><trkpt lat="45.6520793" lon="10.2895987"><ele>675.0</ele><time>2026-04-10T05:03:18.244Z</time></trkpt><trkpt lat="45.6522225" lon="10.2894426"><ele>673.0</ele><time>2026-04-10T05:03:19.244Z</time></trkpt><trkpt lat="45.6523634" lon="10.2892837"><ele>673.0</ele><time>2026-04-10T05:03:20.243Z</time></trkpt><trkpt lat="45.6525017" lon="10.2891135"><ele>673.0</ele><time>2026-04-10T05:03:21.243Z</time></trkpt><trkpt lat="45.6526244" lon="10.2889265"><ele>673.0</ele><time>2026-04-10T05:03:22.244Z</time></trkpt><trkpt lat="45.6527324" lon="10.2887162"><ele>681.6666666666667</ele><time>2026-04-10T05:03:23.244Z</time></trkpt><trkpt lat="45.6528172" lon="10.2884923"><ele>690.3333333333334</ele><time>2026-04-10T05:03:24.244Z</time></trkpt><trkpt lat="45.652885" lon="10.2882351"><ele>699.0</ele><time>2026-04-10T05:03:25.243Z</time></trkpt><trkpt lat="45.6529404" lon="10.2879633"><ele>699.0</ele><time>2026-04-10T05:03:26.244Z</time></trkpt><trkpt lat="45.652991" lon="10.2876917"><ele>699.0</ele><time>2026-04-10T05:03:27.244Z</time></trkpt><trkpt lat="45.6530396" lon="10.2874147"><ele>699.0</ele><time>2026-04-10T05:03:28.243Z</time></trkpt><trkpt lat="45.6530883" lon="10.2871455"><ele>695.3333333333334</ele><time>2026-04-10T05:03:29.244Z</time></trkpt><trkpt lat="45.6531347" lon="10.2868816"><ele>691.6666666666667</ele><time>2026-04-10T05:03:30.244Z</time></trkpt><trkpt lat="45.6531806" lon="10.2866229"><ele>688.0</ele><time>2026-04-10T05:03:31.244Z</time></trkpt><trkpt lat="45.6532277" lon="10.2863722"><ele>684.6666666666667</ele><time>2026-04-10T05:03:32.244Z</time></trkpt><trkpt lat="45.6532891" lon="10.2861292"><ele>681.3333333333334</ele><time>2026-04-10T05:03:33.244Z</time></trkpt><trkpt lat="45.6533709" lon="10.2858844"><ele>678.0</ele><time>2026-04-10T05:03:34.244Z</time></trkpt><trkpt lat="45.6534771" lon="10.2856608"><ele>676.3333333333334</ele><time>2026-04-10T05:03:35.244Z</time></trkpt><trkpt lat="45.6536006" lon="10.2854441"><ele>674.6666666666667</ele><time>2026-04-10T05:03:36.244Z</time></trkpt><trkpt lat="45.6537425" lon="10.2852289"><ele>673.0</ele><time>2026-04-10T05:03:37.244Z</time></trkpt><trkpt lat="45.6538843" lon="10.2850316"><ele>673.0</ele><time>2026-04-10T05:03:38.244Z</time></trkpt><trkpt lat="45.6540114" lon="10.2848371"><ele>673.0</ele><time>2026-04-10T05:03:39.244Z</time></trkpt><trkpt lat="45.6541308" lon="10.2846545"><ele>673.0</ele><time>2026-04-10T05:03:40.244Z</time></trkpt><trkpt lat="45.654239" lon="10.2844737"><ele>673.0</ele><time>2026-04-10T05:03:41.244Z</time></trkpt><trkpt lat="45.6543155" lon="10.2842929"><ele>673.0</ele><time>2026-04-10T05:03:42.244Z</time></trkpt><trkpt lat="45.6543648" lon="10.2840795"><ele>673.0</ele><time>2026-04-10T05:03:43.244Z</time></trkpt><trkpt lat="45.6543936" lon="10.2838538"><ele>670.6666666666667</ele><time>2026-04-10T05:03:44.243Z</time></trkpt><trkpt lat="45.6544042" lon="10.2836093"><ele>668.3333333333334</ele><time>2026-04-10T05:03:45.244Z</time></trkpt><trkpt lat="45.654402" lon="10.2833468"><ele>666.0</ele><time>2026-04-10T05:03:46.244Z</time></trkpt><trkpt lat="45.6544042" lon="10.2830926"><ele>665.25</ele><time>2026-04-10T05:03:47.244Z</time></trkpt><trkpt lat="45.6544041" lon="10.2828611"><ele>664.5</ele><time>2026-04-10T05:03:48.243Z</time></trkpt><trkpt lat="45.6544075" lon="10.2826453"><ele>663.75</ele><time>2026-04-10T05:03:49.243Z</time></trkpt><trkpt lat="45.6544235" lon="10.2824526"><ele>663.0</ele><time>2026-04-10T05:03:50.244Z</time></trkpt><trkpt lat="45.6544618" lon="10.2822949"><ele>664.4</ele><time>2026-04-10T05:03:51.244Z</time></trkpt><trkpt lat="45.6545199" lon="10.2821541"><ele>665.8</ele><time>2026-04-10T05:03:52.244Z</time></trkpt><trkpt lat="45.6545924" lon="10.2820532"><ele>667.2</ele><time>2026-04-10T05:03:53.243Z</time></trkpt><trkpt lat="45.6546898" lon="10.2820123"><ele>668.6</ele><time>2026-04-10T05:03:54.244Z</time></trkpt><trkpt lat="45.6548044" lon="10.2819936"><ele>670.0</ele><time>2026-04-10T05:03:55.244Z</time></trkpt><trkpt lat="45.6549256" lon="10.2820022"><ele>670.0</ele><time>2026-04-10T05:03:56.243Z</time></trkpt><trkpt lat="45.6550469" lon="10.2820236"><ele>670.0</ele><time>2026-04-10T05:03:57.244Z</time></trkpt><trkpt lat="45.6551783" lon="10.282043"><ele>670.0</ele><time>2026-04-10T05:03:58.244Z</time></trkpt><trkpt lat="45.6552964" lon="10.2820548"><ele>670.0</ele><time>2026-04-10T05:03:59.244Z</time></trkpt><trkpt lat="45.6554088" lon="10.2820314"><ele>673.4</ele><time>2026-04-10T05:04:00.244Z</time></trkpt><trkpt lat="45.6555121" lon="10.2819609"><ele>676.8</ele><time>2026-04-10T05:04:01.244Z</time></trkpt><trkpt lat="45.6556008" lon="10.2818737"><ele>680.2</ele><time>2026-04-10T05:04:02.244Z</time></trkpt><trkpt lat="45.6556564" lon="10.2817725"><ele>683.6</ele><time>2026-04-10T05:04:03.243Z</time></trkpt><trkpt lat="45.6556854" lon="10.2816569"><ele>687.0</ele><time>2026-04-10T05:04:04.244Z</time></trkpt><trkpt lat="45.6556884" lon="10.281545"><ele>686.8</ele><time>2026-04-10T05:04:05.244Z</time></trkpt><trkpt lat="45.6556817" lon="10.281423"><ele>686.6</ele><time>2026-04-10T05:04:06.244Z</time></trkpt><trkpt lat="45.655659" lon="10.2812869"><ele>686.4</ele><time>2026-04-10T05:04:07.243Z</time></trkpt><trkpt lat="45.6556125" lon="10.2811418"><ele>686.1999999999999</ele><time>2026-04-10T05:04:08.244Z</time></trkpt><trkpt lat="45.6555623" lon="10.281005"><ele>686.0</ele><time>2026-04-10T05:04:09.244Z</time></trkpt><trkpt lat="45.6555185" lon="10.2808557"><ele>686.0</ele><time>2026-04-10T05:04:10.244Z</time></trkpt><trkpt lat="45.655483" lon="10.2807041"><ele>686.0</ele><time>2026-04-10T05:04:11.244Z</time></trkpt><trkpt lat="45.6554478" lon="10.2805333"><ele>686.0</ele><time>2026-04-10T05:04:12.244Z</time></trkpt><trkpt lat="45.655424" lon="10.2803539"><ele>686.0</ele><time>2026-04-10T05:04:13.244Z</time></trkpt><trkpt lat="45.655421" lon="10.2801677"><ele>685.0</ele><time>2026-04-10T05:04:14.244Z</time></trkpt><trkpt lat="45.6554287" lon="10.2799908"><ele>684.0</ele><time>2026-04-10T05:04:15.244Z</time></trkpt><trkpt lat="45.655437" lon="10.2798183"><ele>683.0</ele><time>2026-04-10T05:04:16.244Z</time></trkpt><trkpt lat="45.6554409" lon="10.2796401"><ele>682.0</ele><time>2026-04-10T05:04:17.244Z</time></trkpt><trkpt lat="45.6554427" lon="10.2794614"><ele>680.0</ele><time>2026-04-10T05:04:18.244Z</time></trkpt><trkpt lat="45.6554443" lon="10.2792791"><ele>678.0</ele><time>2026-04-10T05:04:19.244Z</time></trkpt><trkpt lat="45.6554402" lon="10.2790994"><ele>676.0</ele><time>2026-04-10T05:04:20.244Z</time></trkpt><trkpt lat="45.6554382" lon="10.2789168"><ele>674.0</ele><time>2026-04-10T05:04:21.244Z</time></trkpt><trkpt lat="45.6554457" lon="10.278734"><ele>673.5</ele><time>2026-04-10T05:04:22.244Z</time></trkpt><trkpt lat="45.6554555" lon="10.2785563"><ele>673.0</ele><time>2026-04-10T05:04:23.244Z</time></trkpt><trkpt lat="45.6554559" lon="10.2783883"><ele>672.5</ele><time>2026-04-10T05:04:24.244Z</time></trkpt><trkpt lat="45.655455" lon="10.2782218"><ele>672.0</ele><time>2026-04-10T05:04:25.244Z</time></trkpt><trkpt lat="45.65545" lon="10.2780564"><ele>673.75</ele><time>2026-04-10T05:04:26.243Z</time></trkpt><trkpt lat="45.6554373" lon="10.2778899"><ele>675.5</ele><time>2026-04-10T05:04:27.244Z</time></trkpt><trkpt lat="45.6554155" lon="10.2777179"><ele>677.25</ele><time>2026-04-10T05:04:28.244Z</time></trkpt><trkpt lat="45.6553899" lon="10.2775353"><ele>679.0</ele><time>2026-04-10T05:04:29.243Z</time></trkpt><trkpt lat="45.6553664" lon="10.2773545"><ele>681.0</ele><time>2026-04-10T05:04:30.244Z</time></trkpt><trkpt lat="45.6553445" lon="10.2771857"><ele>683.0</ele><time>2026-04-10T05:04:31.244Z</time></trkpt><trkpt lat="45.6553238" lon="10.2770194"><ele>685.0</ele><time>2026-04-10T05:04:32.244Z</time></trkpt><trkpt lat="45.6553157" lon="10.276838"><ele>687.0</ele><time>2026-04-10T05:04:33.244Z</time></trkpt><trkpt lat="45.6553118" lon="10.2766597"><ele>687.0</ele><time>2026-04-10T05:04:34.244Z</time></trkpt><trkpt lat="45.6553224" lon="10.2764699"><ele>687.0</ele><time>2026-04-10T05:04:35.244Z</time></trkpt><trkpt lat="45.655347" lon="10.2762973"><ele>687.0</ele><time>2026-04-10T05:04:36.244Z</time></trkpt><trkpt lat="45.6553791" lon="10.2761348"><ele>687.0</ele><time>2026-04-10T05:04:37.244Z</time></trkpt><trkpt lat="45.6554248" lon="10.2759749"><ele>683.6666666666666</ele><time>2026-04-10T05:04:38.243Z</time></trkpt><trkpt lat="45.6554764" lon="10.2757993"><ele>680.3333333333333</ele><time>2026-04-10T05:04:39.244Z</time></trkpt><trkpt lat="45.6555356" lon="10.2755995"><ele>677.0</ele><time>2026-04-10T05:04:40.244Z</time></trkpt><trkpt lat="45.6556085" lon="10.2753758"><ele>671.3333333333333</ele><time>2026-04-10T05:04:41.244Z</time></trkpt><trkpt lat="45.6556853" lon="10.2751349"><ele>665.6666666666666</ele><time>2026-04-10T05:04:42.244Z</time></trkpt><trkpt lat="45.6557746" lon="10.2748718"><ele>660.0</ele><time>2026-04-10T05:04:43.243Z</time></trkpt><trkpt lat="45.6558636" lon="10.2746041"><ele>658.6666666666666</ele><time>2026-04-10T05:04:44.244Z</time></trkpt><trkpt lat="45.6559522" lon="10.2743651"><ele>657.3333333333333</ele><time>2026-04-10T05:04:45.244Z</time></trkpt><trkpt lat="45.6560358" lon="10.2741404"><ele>656.0</ele><time>2026-04-10T05:04:46.244Z</time></trkpt><trkpt lat="45.6561065" lon="10.2739384"><ele>661.0</ele><time>2026-04-10T05:04:47.243Z</time></trkpt><trkpt lat="45.6561796" lon="10.2737554"><ele>666.0</ele><time>2026-04-10T05:04:48.244Z</time></trkpt><trkpt lat="45.6562402" lon="10.2735886"><ele>671.0</ele><time>2026-04-10T05:04:49.244Z</time></trkpt><trkpt lat="45.6562963" lon="10.2734265"><ele>676.0</ele><time>2026-04-10T05:04:50.244Z</time></trkpt><trkpt lat="45.656331" lon="10.2732727"><ele>676.0</ele><time>2026-04-10T05:04:51.244Z</time></trkpt><trkpt lat="45.6563553" lon="10.2731165"><ele>676.0</ele><time>2026-04-10T05:04:52.244Z</time></trkpt><trkpt lat="45.6563368" lon="10.2729847"><ele>676.0</ele><time>2026-04-10T05:04:53.244Z</time></trkpt><trkpt lat="45.6562692" lon="10.2728807"><ele>676.0</ele><time>2026-04-10T05:04:54.244Z</time></trkpt><trkpt lat="45.6561622" lon="10.2728419"><ele>676.0</ele><time>2026-04-10T05:04:55.244Z</time></trkpt><trkpt lat="45.6560477" lon="10.2728604"><ele>669.5</ele><time>2026-04-10T05:04:56.244Z</time></trkpt><trkpt lat="45.6559505" lon="10.2729376"><ele>663.0</ele><time>2026-04-10T05:04:57.244Z</time></trkpt><trkpt lat="45.6558607" lon="10.2730642"><ele>656.5</ele><time>2026-04-10T05:04:58.244Z</time></trkpt><trkpt lat="45.6557737" lon="10.2732205"><ele>650.0</ele><time>2026-04-10T05:04:59.243Z</time></trkpt><trkpt lat="45.6556781" lon="10.2734214"><ele>650.0</ele><time>2026-04-10T05:05:00.244Z</time></trkpt><trkpt lat="45.6555989" lon="10.273635"><ele>650.0</ele><time>2026-04-10T05:05:01.244Z</time></trkpt><trkpt lat="45.6555154" lon="10.2738498"><ele>650.0</ele><time>2026-04-10T05:05:02.243Z</time></trkpt><trkpt lat="45.6554255" lon="10.2740508"><ele>652.0</ele><time>2026-04-10T05:05:03.243Z</time></trkpt><trkpt lat="45.6553315" lon="10.2742456"><ele>654.0</ele><time>2026-04-10T05:05:04.243Z</time></trkpt><trkpt lat="45.6552438" lon="10.2744401"><ele>656.0</ele><time>2026-04-10T05:05:05.244Z</time></trkpt><trkpt lat="45.6551572" lon="10.2746171"><ele>653.0</ele><time>2026-04-10T05:05:06.244Z</time></trkpt><trkpt lat="45.6550803" lon="10.2747736"><ele>650.0</ele><time>2026-04-10T05:05:07.244Z</time></trkpt><trkpt lat="45.6550141" lon="10.2749297"><ele>647.0</ele><time>2026-04-10T05:05:08.244Z</time></trkpt><trkpt lat="45.6549509" lon="10.2750764"><ele>644.0</ele><time>2026-04-10T05:05:09.244Z</time></trkpt><trkpt lat="45.6548942" lon="10.2752356"><ele>644.0</ele><time>2026-04-10T05:05:10.244Z</time></trkpt><trkpt lat="45.6548623" lon="10.2753941"><ele>644.0</ele><time>2026-04-10T05:05:11.243Z</time></trkpt><trkpt lat="45.6548525" lon="10.2755687"><ele>644.0</ele><time>2026-04-10T05:05:12.244Z</time></trkpt><trkpt lat="45.6548664" lon="10.2757304"><ele>644.0</ele><time>2026-04-10T05:05:13.244Z</time></trkpt><trkpt lat="45.6548834" lon="10.2758831"><ele>644.0</ele><time>2026-04-10T05:05:14.244Z</time></trkpt><trkpt lat="45.6549051" lon="10.276022"><ele>644.0</ele><time>2026-04-10T05:05:15.243Z</time></trkpt><trkpt lat="45.6549194" lon="10.276154"><ele>644.0</ele><time>2026-04-10T05:05:16.244Z</time></trkpt><trkpt lat="45.6549091" lon="10.2762676"><ele>644.0</ele><time>2026-04-10T05:05:17.243Z</time></trkpt><trkpt lat="45.6548899" lon="10.2763659"><ele>644.0</ele><time>2026-04-10T05:05:18.244Z</time></trkpt><trkpt lat="45.6547587" lon="10.2763947"><ele>644.0</ele><time>2026-04-10T05:05:20.244Z</time></trkpt><trkpt lat="45.6546926" lon="10.2763384"><ele>644.0</ele><time>2026-04-10T05:05:21.244Z</time></trkpt><trkpt lat="45.6546458" lon="10.2762409"><ele>644.0</ele><time>2026-04-10T05:05:22.244Z</time></trkpt><trkpt lat="45.6546293" lon="10.2761254"><ele>644.0</ele><time>2026-04-10T05:05:23.244Z</time></trkpt><trkpt lat="45.6546419" lon="10.2760125"><ele>644.0</ele><time>2026-04-10T05:05:24.244Z</time></trkpt><trkpt lat="45.6546799" lon="10.2758729"><ele>644.0</ele><time>2026-04-10T05:05:25.244Z</time></trkpt><trkpt lat="45.6547067" lon="10.2757209"><ele>644.0</ele><time>2026-04-10T05:05:26.244Z</time></trkpt><trkpt lat="45.6547135" lon="10.2755488"><ele>644.0</ele><time>2026-04-10T05:05:27.243Z</time></trkpt><trkpt lat="45.6547096" lon="10.2753653"><ele>644.0</ele><time>2026-04-10T05:05:28.243Z</time></trkpt><trkpt lat="45.6547069" lon="10.2751853"><ele>644.0</ele><time>2026-04-10T05:05:29.244Z</time></trkpt><trkpt lat="45.6547051" lon="10.2749872"><ele>644.0</ele><time>2026-04-10T05:05:30.243Z</time></trkpt><trkpt lat="45.6547044" lon="10.2747822"><ele>644.0</ele><time>2026-04-10T05:05:31.243Z</time></trkpt><trkpt lat="45.6547014" lon="10.2745889"><ele>644.0</ele><time>2026-04-10T05:05:32.244Z</time></trkpt><trkpt lat="45.6546973" lon="10.2744041"><ele>644.0</ele><time>2026-04-10T05:05:33.244Z</time></trkpt><trkpt lat="45.6546921" lon="10.2742231"><ele>642.25</ele><time>2026-04-10T05:05:34.243Z</time></trkpt><trkpt lat="45.6546916" lon="10.2740466"><ele>640.5</ele><time>2026-04-10T05:05:35.244Z</time></trkpt><trkpt lat="45.6546903" lon="10.2738663"><ele>638.75</ele><time>2026-04-10T05:05:36.244Z</time></trkpt><trkpt lat="45.6546883" lon="10.273693"><ele>637.0</ele><time>2026-04-10T05:05:37.244Z</time></trkpt><trkpt lat="45.6546954" lon="10.2735117"><ele>635.75</ele><time>2026-04-10T05:05:38.244Z</time></trkpt><trkpt lat="45.6546929" lon="10.2733133"><ele>634.5</ele><time>2026-04-10T05:05:39.244Z</time></trkpt><trkpt lat="45.6547191" lon="10.2731259"><ele>633.25</ele><time>2026-04-10T05:05:40.244Z</time></trkpt><trkpt lat="45.6547468" lon="10.2729331"><ele>632.0</ele><time>2026-04-10T05:05:41.244Z</time></trkpt><trkpt lat="45.6548" lon="10.2727568"><ele>630.8000000000001</ele><time>2026-04-10T05:05:42.244Z</time></trkpt><trkpt lat="45.6548481" lon="10.2726043"><ele>629.6</ele><time>2026-04-10T05:05:43.243Z</time></trkpt><trkpt lat="45.6549004" lon="10.2724629"><ele>628.4000000000001</ele><time>2026-04-10T05:05:44.244Z</time></trkpt><trkpt lat="45.654949" lon="10.2723287"><ele>627.2</ele><time>2026-04-10T05:05:45.244Z</time></trkpt><trkpt lat="45.6549865" lon="10.272195"><ele>626.0</ele><time>2026-04-10T05:05:46.244Z</time></trkpt><trkpt lat="45.6550143" lon="10.2720662"><ele>625.6666666666666</ele><time>2026-04-10T05:05:47.244Z</time></trkpt><trkpt lat="45.6550016" lon="10.2719415"><ele>625.3333333333333</ele><time>2026-04-10T05:05:48.244Z</time></trkpt><trkpt lat="45.654949" lon="10.2718403"><ele>625.0</ele><time>2026-04-10T05:05:49.244Z</time></trkpt><trkpt lat="45.6548789" lon="10.2717606"><ele>624.6666666666666</ele><time>2026-04-10T05:05:50.244Z</time></trkpt><trkpt lat="45.654791" lon="10.2717499"><ele>624.3333333333334</ele><time>2026-04-10T05:05:51.244Z</time></trkpt><trkpt lat="45.6547199" lon="10.2717873"><ele>624.0</ele><time>2026-04-10T05:05:52.244Z</time></trkpt><trkpt lat="45.6546254" lon="10.27186"><ele>624.0</ele><time>2026-04-10T05:05:53.243Z</time></trkpt><trkpt lat="45.6545516" lon="10.2719666"><ele>624.0</ele><time>2026-04-10T05:05:54.244Z</time></trkpt><trkpt lat="45.6544748" lon="10.2720906"><ele>624.0</ele><time>2026-04-10T05:05:55.244Z</time></trkpt><trkpt lat="45.6543859" lon="10.2722306"><ele>624.0</ele><time>2026-04-10T05:05:56.244Z</time></trkpt><trkpt lat="45.6542949" lon="10.2723701"><ele>620.5</ele><time>2026-04-10T05:05:57.244Z</time></trkpt><trkpt lat="45.6542048" lon="10.2725125"><ele>617.0</ele><time>2026-04-10T05:05:58.244Z</time></trkpt><trkpt lat="45.6541165" lon="10.2726496"><ele>613.5</ele><time>2026-04-10T05:05:59.243Z</time></trkpt><trkpt lat="45.6540456" lon="10.2727913"><ele>610.0</ele><time>2026-04-10T05:06:00.243Z</time></trkpt><trkpt lat="45.6539875" lon="10.2729457"><ele>610.0</ele><time>2026-04-10T05:06:01.244Z</time></trkpt><trkpt lat="45.653941" lon="10.2731055"><ele>610.0</ele><time>2026-04-10T05:06:02.244Z</time></trkpt><trkpt lat="45.6538925" lon="10.273272"><ele>610.0</ele><time>2026-04-10T05:06:03.244Z</time></trkpt><trkpt lat="45.6538567" lon="10.2734454"><ele>610.0</ele><time>2026-04-10T05:06:04.244Z</time></trkpt><trkpt lat="45.6538185" lon="10.2736239"><ele>611.25</ele><time>2026-04-10T05:06:05.244Z</time></trkpt><trkpt lat="45.6537915" lon="10.2737984"><ele>612.5</ele><time>2026-04-10T05:06:06.244Z</time></trkpt><trkpt lat="45.6537581" lon="10.2739733"><ele>613.75</ele><time>2026-04-10T05:06:07.243Z</time></trkpt><trkpt lat="45.6537205" lon="10.2741416"><ele>615.0</ele><time>2026-04-10T05:06:08.244Z</time></trkpt><trkpt lat="45.6536925" lon="10.2742753"><ele>615.6</ele><time>2026-04-10T05:06:09.244Z</time></trkpt><trkpt lat="45.6536656" lon="10.2744002"><ele>616.2</ele><time>2026-04-10T05:06:10.244Z</time></trkpt><trkpt lat="45.653631" lon="10.274539"><ele>616.8</ele><time>2026-04-10T05:06:11.244Z</time></trkpt><trkpt lat="45.6536075" lon="10.274676"><ele>617.4</ele><time>2026-04-10T05:06:12.244Z</time></trkpt><trkpt lat="45.653589" lon="10.2748203"><ele>618.0</ele><time>2026-04-10T05:06:13.243Z</time></trkpt><trkpt lat="45.653582" lon="10.2749711"><ele>617.8</ele><time>2026-04-10T05:06:14.244Z</time></trkpt><trkpt lat="45.6535872" lon="10.2751238"><ele>617.5999999999999</ele><time>2026-04-10T05:06:15.243Z</time></trkpt><trkpt lat="45.6536051" lon="10.2752765"><ele>617.4000000000001</ele><time>2026-04-10T05:06:16.244Z</time></trkpt><trkpt lat="45.6536201" lon="10.2754175"><ele>617.2</ele><time>2026-04-10T05:06:17.244Z</time></trkpt><trkpt lat="45.6536321" lon="10.2755456"><ele>617.0</ele><time>2026-04-10T05:06:18.244Z</time></trkpt><trkpt lat="45.6536413" lon="10.2756687"><ele>616.6</ele><time>2026-04-10T05:06:19.244Z</time></trkpt><trkpt lat="45.653647" lon="10.2757836"><ele>616.2</ele><time>2026-04-10T05:06:20.243Z</time></trkpt><trkpt lat="45.6536375" lon="10.2759049"><ele>615.8</ele><time>2026-04-10T05:06:21.244Z</time></trkpt><trkpt lat="45.6536019" lon="10.2759935"><ele>615.4</ele><time>2026-04-10T05:06:22.244Z</time></trkpt><trkpt lat="45.653554" lon="10.2760789"><ele>615.0</ele><time>2026-04-10T05:06:23.244Z</time></trkpt><trkpt lat="45.6534116" lon="10.2761327"><ele>612.0</ele><time>2026-04-10T05:06:25.244Z</time></trkpt><trkpt lat="45.6533264" lon="10.2761163"><ele>609.0</ele><time>2026-04-10T05:06:26.243Z</time></trkpt><trkpt lat="45.6532592" lon="10.2760367"><ele>606.0</ele><time>2026-04-10T05:06:27.244Z</time></trkpt><trkpt lat="45.6532165" lon="10.2759099"><ele>603.0</ele><time>2026-04-10T05:06:28.244Z</time></trkpt><trkpt lat="45.6531904" lon="10.275789"><ele>600.0</ele><time>2026-04-10T05:06:29.244Z</time></trkpt><trkpt lat="45.6531826" lon="10.2756623"><ele>597.0</ele><time>2026-04-10T05:06:30.244Z</time></trkpt><trkpt lat="45.6531716" lon="10.2755276"><ele>596.8000000000001</ele><time>2026-04-10T05:06:31.244Z</time></trkpt><trkpt lat="45.6531579" lon="10.2753938"><ele>596.6</ele><time>2026-04-10T05:06:32.244Z</time></trkpt><trkpt lat="45.6531515" lon="10.2752458"><ele>596.4000000000001</ele><time>2026-04-10T05:06:33.244Z</time></trkpt><trkpt lat="45.6531376" lon="10.2751051"><ele>596.2</ele><time>2026-04-10T05:06:34.243Z</time></trkpt><trkpt lat="45.6531207" lon="10.2749779"><ele>596.0</ele><time>2026-04-10T05:06:35.244Z</time></trkpt><trkpt lat="45.6531159" lon="10.2748728"><ele>596.0</ele><time>2026-04-10T05:06:36.244Z</time></trkpt><trkpt lat="45.6531026" lon="10.2747801"><ele>596.0</ele><time>2026-04-10T05:06:37.244Z</time></trkpt><trkpt lat="45.6530245" lon="10.2746859"><ele>596.0</ele><time>2026-04-10T05:06:39.244Z</time></trkpt><trkpt lat="45.6529431" lon="10.2747664"><ele>596.0</ele><time>2026-04-10T05:06:41.244Z</time></trkpt><trkpt lat="45.6528996" lon="10.2748765"><ele>596.0</ele><time>2026-04-10T05:06:42.244Z</time></trkpt><trkpt lat="45.6528737" lon="10.2750242"><ele>596.0</ele><time>2026-04-10T05:06:43.244Z</time></trkpt><trkpt lat="45.6528667" lon="10.2751601"><ele>596.0</ele><time>2026-04-10T05:06:44.244Z</time></trkpt><trkpt lat="45.6528527" lon="10.2753049"><ele>596.0</ele><time>2026-04-10T05:06:45.243Z</time></trkpt><trkpt lat="45.6528364" lon="10.2754586"><ele>596.0</ele><time>2026-04-10T05:06:46.243Z</time></trkpt><trkpt lat="45.6528222" lon="10.2756021"><ele>596.0</ele><time>2026-04-10T05:06:47.244Z</time></trkpt><trkpt lat="45.6528084" lon="10.2757327"><ele>596.2</ele><time>2026-04-10T05:06:48.244Z</time></trkpt><trkpt lat="45.6527983" lon="10.2758628"><ele>596.4000000000001</ele><time>2026-04-10T05:06:49.243Z</time></trkpt><trkpt lat="45.6527801" lon="10.275973"><ele>596.6</ele><time>2026-04-10T05:06:50.244Z</time></trkpt><trkpt lat="45.6527726" lon="10.27608"><ele>596.8000000000001</ele><time>2026-04-10T05:06:51.244Z</time></trkpt><trkpt lat="45.6527448" lon="10.2761696"><ele>597.0</ele><time>2026-04-10T05:06:52.243Z</time></trkpt><trkpt lat="45.6525888" lon="10.2761948"><ele>594.3333333333334</ele><time>2026-04-10T05:06:54.244Z</time></trkpt><trkpt lat="45.6525121" lon="10.2761625"><ele>591.6666666666666</ele><time>2026-04-10T05:06:55.244Z</time></trkpt><trkpt lat="45.6524544" lon="10.2760987"><ele>589.0</ele><time>2026-04-10T05:06:56.244Z</time></trkpt><trkpt lat="45.6524172" lon="10.2760197"><ele>586.3333333333333</ele><time>2026-04-10T05:06:57.244Z</time></trkpt><trkpt lat="45.6523973" lon="10.2759063"><ele>583.6666666666666</ele><time>2026-04-10T05:06:58.243Z</time></trkpt><trkpt lat="45.652385" lon="10.2757811"><ele>581.0</ele><time>2026-04-10T05:06:59.243Z</time></trkpt><trkpt lat="45.6523659" lon="10.2756297"><ele>580.0</ele><time>2026-04-10T05:07:00.244Z</time></trkpt><trkpt lat="45.6523379" lon="10.2754668"><ele>579.0</ele><time>2026-04-10T05:07:01.244Z</time></trkpt><trkpt lat="45.6523183" lon="10.2753047"><ele>578.0</ele><time>2026-04-10T05:07:02.244Z</time></trkpt><trkpt lat="45.6522999" lon="10.2751382"><ele>577.0</ele><time>2026-04-10T05:07:03.243Z</time></trkpt><trkpt lat="45.6522784" lon="10.2749834"><ele>577.0</ele><time>2026-04-10T05:07:04.244Z</time></trkpt><trkpt lat="45.6522656" lon="10.2748405"><ele>577.0</ele><time>2026-04-10T05:07:05.244Z</time></trkpt><trkpt lat="45.6522516" lon="10.274708"><ele>577.0</ele><time>2026-04-10T05:07:06.244Z</time></trkpt><trkpt lat="45.6522323" lon="10.2745855"><ele>577.0</ele><time>2026-04-10T05:07:07.243Z</time></trkpt><trkpt lat="45.6522124" lon="10.274476"><ele>577.0</ele><time>2026-04-10T05:07:08.244Z</time></trkpt><trkpt lat="45.6521927" lon="10.2743655"><ele>577.0</ele><time>2026-04-10T05:07:09.244Z</time></trkpt><trkpt lat="45.652159" lon="10.2742844"><ele>576.8000000000001</ele><time>2026-04-10T05:07:10.244Z</time></trkpt><trkpt lat="45.6520713" lon="10.2741856"><ele>576.6</ele><time>2026-04-10T05:07:12.244Z</time></trkpt><trkpt lat="45.6519984" lon="10.2741289"><ele>576.4000000000001</ele><time>2026-04-10T05:07:14.243Z</time></trkpt><trkpt lat="45.6519684" lon="10.2739702"><ele>576.2</ele><time>2026-04-10T05:07:16.244Z</time></trkpt><trkpt lat="45.6519619" lon="10.2738461"><ele>576.0</ele><time>2026-04-10T05:07:17.244Z</time></trkpt><trkpt lat="45.6519368" lon="10.2736903"><ele>572.8</ele><time>2026-04-10T05:07:18.244Z</time></trkpt><trkpt lat="45.6519138" lon="10.2735338"><ele>569.6</ele><time>2026-04-10T05:07:19.244Z</time></trkpt><trkpt lat="45.6518876" lon="10.273364"><ele>566.4</ele><time>2026-04-10T05:07:20.244Z</time></trkpt><trkpt lat="45.6518574" lon="10.2732228"><ele>563.2</ele><time>2026-04-10T05:07:21.244Z</time></trkpt><trkpt lat="45.6518379" lon="10.2731037"><ele>560.0</ele><time>2026-04-10T05:07:22.244Z</time></trkpt><trkpt lat="45.6518146" lon="10.2730052"><ele>560.0</ele><time>2026-04-10T05:07:30.243Z</time></trkpt><trkpt lat="45.6517939" lon="10.2728635"><ele>560.0</ele><time>2026-04-10T05:07:32.243Z</time></trkpt><trkpt lat="45.6517235" lon="10.272718"><ele>560.0</ele><time>2026-04-10T05:07:34.244Z</time></trkpt><trkpt lat="45.6516274" lon="10.272721"><ele>560.0</ele><time>2026-04-10T05:07:36.244Z</time></trkpt><trkpt lat="45.6515719" lon="10.2728018"><ele>560.0</ele><time>2026-04-10T05:07:37.243Z</time></trkpt><trkpt lat="45.6515387" lon="10.2729117"><ele>560.0</ele><time>2026-04-10T05:07:38.244Z</time></trkpt><trkpt lat="45.6515025" lon="10.2730363"><ele>560.0</ele><time>2026-04-10T05:07:39.244Z</time></trkpt><trkpt lat="45.6514706" lon="10.2731659"><ele>560.0</ele><time>2026-04-10T05:07:40.243Z</time></trkpt><trkpt lat="45.6514418" lon="10.2732772"><ele>560.0</ele><time>2026-04-10T05:07:41.243Z</time></trkpt><trkpt lat="45.6514117" lon="10.2733935"><ele>560.0</ele><time>2026-04-10T05:07:42.243Z</time></trkpt><trkpt lat="45.6513888" lon="10.2734893"><ele>560.0</ele><time>2026-04-10T05:07:43.244Z</time></trkpt><trkpt lat="45.6513624" lon="10.273576"><ele>560.0</ele><time>2026-04-10T05:07:44.244Z</time></trkpt><trkpt lat="45.6512678" lon="10.2735725"><ele>560.0</ele><time>2026-04-10T05:07:46.244Z</time></trkpt><trkpt lat="45.651201" lon="10.2734535"><ele>560.0</ele><time>2026-04-10T05:07:48.244Z</time></trkpt><trkpt lat="45.6511806" lon="10.2733395"><ele>560.0</ele><time>2026-04-10T05:07:49.244Z</time></trkpt><trkpt lat="45.6511715" lon="10.2732005"><ele>560.0</ele><time>2026-04-10T05:07:50.244Z</time></trkpt><trkpt lat="45.6511555" lon="10.2730611"><ele>560.0</ele><time>2026-04-10T05:07:51.244Z</time></trkpt><trkpt lat="45.651139" lon="10.2729267"><ele>560.0</ele><time>2026-04-10T05:07:52.243Z</time></trkpt><trkpt lat="45.6511257" lon="10.2728032"><ele>560.0</ele><time>2026-04-10T05:07:53.243Z</time></trkpt><trkpt lat="45.6511071" lon="10.2726855"><ele>560.0</ele><time>2026-04-10T05:07:54.243Z</time></trkpt><trkpt lat="45.6510972" lon="10.2725788"><ele>560.0</ele><time>2026-04-10T05:07:55.244Z</time></trkpt><trkpt lat="45.6510849" lon="10.2724156"><ele>557.3333333333333</ele><time>2026-04-10T05:07:57.244Z</time></trkpt><trkpt lat="45.6510494" lon="10.2723025"><ele>554.6666666666666</ele><time>2026-04-10T05:07:59.244Z</time></trkpt><trkpt lat="45.6509999" lon="10.2722453"><ele>552.0</ele><time>2026-04-10T05:08:01.243Z</time></trkpt><trkpt lat="45.6508962" lon="10.2722646"><ele>549.3333333333334</ele><time>2026-04-10T05:08:03.244Z</time></trkpt><trkpt lat="45.6508212" lon="10.2722942"><ele>546.6666666666667</ele><time>2026-04-10T05:08:04.243Z</time></trkpt><trkpt lat="45.6507396" lon="10.2723196"><ele>544.0</ele><time>2026-04-10T05:08:05.244Z</time></trkpt><trkpt lat="45.6506543" lon="10.2723378"><ele>544.0</ele><time>2026-04-10T05:08:06.244Z</time></trkpt><trkpt lat="45.6505801" lon="10.2723404"><ele>544.0</ele><time>2026-04-10T05:08:07.244Z</time></trkpt><trkpt lat="45.650505" lon="10.2723642"><ele>544.0</ele><time>2026-04-10T05:08:08.243Z</time></trkpt><trkpt lat="45.6504131" lon="10.2723441"><ele>544.0</ele><time>2026-04-10T05:08:09.243Z</time></trkpt><trkpt lat="45.6503306" lon="10.2723041"><ele>544.0</ele><time>2026-04-10T05:08:10.244Z</time></trkpt><trkpt lat="45.6502501" lon="10.2722455"><ele>544.0</ele><time>2026-04-10T05:08:11.243Z</time></trkpt><trkpt lat="45.6501707" lon="10.272202"><ele>541.1666666666667</ele><time>2026-04-10T05:08:12.244Z</time></trkpt><trkpt lat="45.6500966" lon="10.2721749"><ele>538.3333333333334</ele><time>2026-04-10T05:08:13.244Z</time></trkpt><trkpt lat="45.6500188" lon="10.2721337"><ele>535.5</ele><time>2026-04-10T05:08:14.244Z</time></trkpt><trkpt lat="45.6499399" lon="10.2721041"><ele>532.6666666666666</ele><time>2026-04-10T05:08:15.244Z</time></trkpt><trkpt lat="45.6498662" lon="10.2720612"><ele>529.8333333333333</ele><time>2026-04-10T05:08:16.244Z</time></trkpt><trkpt lat="45.6497757" lon="10.272001"><ele>527.0</ele><time>2026-04-10T05:08:18.244Z</time></trkpt><trkpt lat="45.6496912" lon="10.2719703"><ele>527.0</ele><time>2026-04-10T05:08:20.244Z</time></trkpt><trkpt lat="45.6496132" lon="10.2719376"><ele>527.0</ele><time>2026-04-10T05:08:22.244Z</time></trkpt><trkpt lat="45.6495682" lon="10.2718253"><ele>527.0</ele><time>2026-04-10T05:08:24.242Z</time></trkpt><trkpt lat="45.6495399" lon="10.2716969"><ele>527.0</ele><time>2026-04-10T05:08:26.243Z</time></trkpt><trkpt lat="45.6495086" lon="10.2715835"><ele>527.0</ele><time>2026-04-10T05:08:28.243Z</time></trkpt><trkpt lat="45.649503" lon="10.2714856"><ele>527.0</ele><time>2026-04-10T05:08:29.242Z</time></trkpt><trkpt lat="45.649513" lon="10.271325"><ele>526.75</ele><time>2026-04-10T05:08:30.242Z</time></trkpt><trkpt lat="45.6495244" lon="10.2711857"><ele>526.5</ele><time>2026-04-10T05:08:31.243Z</time></trkpt><trkpt lat="45.6495482" lon="10.271038"><ele>526.25</ele><time>2026-04-10T05:08:32.242Z</time></trkpt><trkpt lat="45.6495667" lon="10.2708718"><ele>526.0</ele><time>2026-04-10T05:08:33.243Z</time></trkpt><trkpt lat="45.6495702" lon="10.2706874"><ele>525.0</ele><time>2026-04-10T05:08:34.243Z</time></trkpt><trkpt lat="45.6495807" lon="10.2704909"><ele>524.0</ele><time>2026-04-10T05:08:35.242Z</time></trkpt><trkpt lat="45.6495884" lon="10.2702918"><ele>523.0</ele><time>2026-04-10T05:08:36.243Z</time></trkpt><trkpt lat="45.6495945" lon="10.2700968"><ele>522.0</ele><time>2026-04-10T05:08:37.243Z</time></trkpt><trkpt lat="45.6496013" lon="10.2698953"><ele>519.75</ele><time>2026-04-10T05:08:38.242Z</time></trkpt><trkpt lat="45.6496248" lon="10.2697085"><ele>517.5</ele><time>2026-04-10T05:08:39.242Z</time></trkpt><trkpt lat="45.6496582" lon="10.2695224"><ele>515.25</ele><time>2026-04-10T05:08:40.242Z</time></trkpt><trkpt lat="45.6496796" lon="10.2693183"><ele>513.0</ele><time>2026-04-10T05:08:41.243Z</time></trkpt><trkpt lat="45.6497055" lon="10.269122"><ele>512.0</ele><time>2026-04-10T05:08:42.242Z</time></trkpt><trkpt lat="45.6497317" lon="10.2689249"><ele>511.0</ele><time>2026-04-10T05:08:43.242Z</time></trkpt><trkpt lat="45.6497614" lon="10.2687248"><ele>510.0</ele><time>2026-04-10T05:08:44.243Z</time></trkpt><trkpt lat="45.6497891" lon="10.268521"><ele>509.0</ele><time>2026-04-10T05:08:45.243Z</time></trkpt><trkpt lat="45.6498119" lon="10.2683138"><ele>509.0</ele><time>2026-04-10T05:08:46.243Z</time></trkpt><trkpt lat="45.6498282" lon="10.2681153"><ele>509.0</ele><time>2026-04-10T05:08:47.243Z</time></trkpt><trkpt lat="45.6498482" lon="10.2679103"><ele>509.0</ele><time>2026-04-10T05:08:48.243Z</time></trkpt><trkpt lat="45.6498756" lon="10.2677082"><ele>509.0</ele><time>2026-04-10T05:08:49.243Z</time></trkpt><trkpt lat="45.6499053" lon="10.2675"><ele>508.25</ele><time>2026-04-10T05:08:50.243Z</time></trkpt><trkpt lat="45.6499309" lon="10.2673178"><ele>507.5</ele><time>2026-04-10T05:08:51.243Z</time></trkpt><trkpt lat="45.6499539" lon="10.2671456"><ele>506.75</ele><time>2026-04-10T05:08:52.242Z</time></trkpt><trkpt lat="45.6499777" lon="10.2669882"><ele>506.0</ele><time>2026-04-10T05:08:53.243Z</time></trkpt><trkpt lat="45.6500012" lon="10.266846"><ele>504.6</ele><time>2026-04-10T05:08:54.243Z</time></trkpt><trkpt lat="45.650038" lon="10.2667318"><ele>503.20000000000005</ele><time>2026-04-10T05:08:55.243Z</time></trkpt><trkpt lat="45.6500883" lon="10.2666251"><ele>501.79999999999995</ele><time>2026-04-10T05:08:56.243Z</time></trkpt><trkpt lat="45.6501278" lon="10.2665245"><ele>500.4</ele><time>2026-04-10T05:08:57.243Z</time></trkpt><trkpt lat="45.6501435" lon="10.2663664"><ele>499.0</ele><time>2026-04-10T05:08:59.242Z</time></trkpt><trkpt lat="45.6500374" lon="10.2663083"><ele>499.0</ele><time>2026-04-10T05:09:01.242Z</time></trkpt><trkpt lat="45.6499731" lon="10.2663115"><ele>499.0</ele><time>2026-04-10T05:09:02.243Z</time></trkpt><trkpt lat="45.6498946" lon="10.2663832"><ele>499.0</ele><time>2026-04-10T05:09:03.243Z</time></trkpt><trkpt lat="45.649818" lon="10.2664402"><ele>499.0</ele><time>2026-04-10T05:09:04.242Z</time></trkpt><trkpt lat="45.6497121" lon="10.2665045"><ele>499.0</ele><time>2026-04-10T05:09:05.243Z</time></trkpt><trkpt lat="45.649592" lon="10.2666106"><ele>499.0</ele><time>2026-04-10T05:09:06.243Z</time></trkpt><trkpt lat="45.6494971" lon="10.2667315"><ele>499.0</ele><time>2026-04-10T05:09:07.242Z</time></trkpt><trkpt lat="45.6494252" lon="10.2668906"><ele>499.0</ele><time>2026-04-10T05:09:08.243Z</time></trkpt><trkpt lat="45.649373" lon="10.2670689"><ele>499.0</ele><time>2026-04-10T05:09:09.243Z</time></trkpt><trkpt lat="45.6493206" lon="10.2672324"><ele>497.5</ele><time>2026-04-10T05:09:10.243Z</time></trkpt><trkpt lat="45.6492574" lon="10.2674027"><ele>496.0</ele><time>2026-04-10T05:09:11.243Z</time></trkpt><trkpt lat="45.6491913" lon="10.2675622"><ele>494.5</ele><time>2026-04-10T05:09:12.242Z</time></trkpt><trkpt lat="45.6491375" lon="10.267691"><ele>493.0</ele><time>2026-04-10T05:09:13.243Z</time></trkpt><trkpt lat="45.6490642" lon="10.2678137"><ele>493.0</ele><time>2026-04-10T05:09:14.243Z</time></trkpt><trkpt lat="45.648993" lon="10.2679225"><ele>492.99999999999994</ele><time>2026-04-10T05:09:15.242Z</time></trkpt><trkpt lat="45.6489059" lon="10.2680365"><ele>492.99999999999994</ele><time>2026-04-10T05:09:16.243Z</time></trkpt><trkpt lat="45.6488301" lon="10.2681346"><ele>493.0</ele><time>2026-04-10T05:09:17.243Z</time></trkpt><trkpt lat="45.6487505" lon="10.2682222"><ele>493.0</ele><time>2026-04-10T05:09:18.242Z</time></trkpt><trkpt lat="45.6486502" lon="10.2682807"><ele>492.2</ele><time>2026-04-10T05:09:19.243Z</time></trkpt><trkpt lat="45.6485649" lon="10.268345"><ele>491.4</ele><time>2026-04-10T05:09:20.243Z</time></trkpt><trkpt lat="45.648463" lon="10.268423"><ele>490.59999999999997</ele><time>2026-04-10T05:09:21.243Z</time></trkpt><trkpt lat="45.6483716" lon="10.2685048"><ele>489.79999999999995</ele><time>2026-04-10T05:09:22.243Z</time></trkpt><trkpt lat="45.6482708" lon="10.2685869"><ele>489.0</ele><time>2026-04-10T05:09:23.242Z</time></trkpt><trkpt lat="45.6481771" lon="10.2686616"><ele>489.0</ele><time>2026-04-10T05:09:24.243Z</time></trkpt><trkpt lat="45.6480869" lon="10.2687168"><ele>489.0</ele><time>2026-04-10T05:09:25.243Z</time></trkpt><trkpt lat="45.6480011" lon="10.2687754"><ele>489.0</ele><time>2026-04-10T05:09:26.243Z</time></trkpt><trkpt lat="45.6479255" lon="10.2688287"><ele>489.0</ele><time>2026-04-10T05:09:27.243Z</time></trkpt><trkpt lat="45.6478391" lon="10.2688236"><ele>489.0</ele><time>2026-04-10T05:09:28.243Z</time></trkpt><trkpt lat="45.6477753" lon="10.2687685"><ele>489.0</ele><time>2026-04-10T05:09:29.243Z</time></trkpt><trkpt lat="45.6477525" lon="10.2686727"><ele>489.0</ele><time>2026-04-10T05:09:30.243Z</time></trkpt><trkpt lat="45.6477722" lon="10.2685592"><ele>489.0</ele><time>2026-04-10T05:09:31.243Z</time></trkpt><trkpt lat="45.6478137" lon="10.2684589"><ele>489.0</ele><time>2026-04-10T05:09:32.243Z</time></trkpt><trkpt lat="45.6478791" lon="10.2683235"><ele>489.0</ele><time>2026-04-10T05:09:33.243Z</time></trkpt><trkpt lat="45.6479575" lon="10.2681903"><ele>489.0</ele><time>2026-04-10T05:09:34.243Z</time></trkpt><trkpt lat="45.6480238" lon="10.2680429"><ele>488.0</ele><time>2026-04-10T05:09:35.243Z</time></trkpt><trkpt lat="45.6480844" lon="10.2678863"><ele>487.0</ele><time>2026-04-10T05:09:36.243Z</time></trkpt><trkpt lat="45.6481516" lon="10.2677353"><ele>486.0</ele><time>2026-04-10T05:09:37.243Z</time></trkpt><trkpt lat="45.6482234" lon="10.2675895"><ele>485.0</ele><time>2026-04-10T05:09:38.243Z</time></trkpt><trkpt lat="45.6482916" lon="10.2674462"><ele>485.0</ele><time>2026-04-10T05:09:39.242Z</time></trkpt><trkpt lat="45.6483502" lon="10.2673037"><ele>485.0</ele><time>2026-04-10T05:09:40.243Z</time></trkpt><trkpt lat="45.6484016" lon="10.2671727"><ele>485.0</ele><time>2026-04-10T05:09:41.243Z</time></trkpt><trkpt lat="45.6484455" lon="10.2670437"><ele>485.0</ele><time>2026-04-10T05:09:42.242Z</time></trkpt><trkpt lat="45.6484626" lon="10.2669141"><ele>485.0</ele><time>2026-04-10T05:09:43.243Z</time></trkpt><trkpt lat="45.6484535" lon="10.2667957"><ele>484.3333333333333</ele><time>2026-04-10T05:09:44.242Z</time></trkpt><trkpt lat="45.6484387" lon="10.2666915"><ele>483.66666666666663</ele><time>2026-04-10T05:09:45.243Z</time></trkpt><trkpt lat="45.6484212" lon="10.2665966"><ele>483.0</ele><time>2026-04-10T05:09:46.243Z</time></trkpt><trkpt lat="45.6484039" lon="10.2664081"><ele>482.33333333333337</ele><time>2026-04-10T05:09:48.243Z</time></trkpt><trkpt lat="45.6484164" lon="10.266308"><ele>481.6666666666667</ele><time>2026-04-10T05:09:49.243Z</time></trkpt><trkpt lat="45.6484524" lon="10.2662061"><ele>481.0</ele><time>2026-04-10T05:09:50.242Z</time></trkpt><trkpt lat="45.6484841" lon="10.2661038"><ele>480.8</ele><time>2026-04-10T05:09:51.243Z</time></trkpt><trkpt lat="45.6485334" lon="10.2659936"><ele>480.6</ele><time>2026-04-10T05:09:52.243Z</time></trkpt><trkpt lat="45.648597" lon="10.2658608"><ele>480.4</ele><time>2026-04-10T05:09:53.243Z</time></trkpt><trkpt lat="45.6486661" lon="10.2657191"><ele>480.2</ele><time>2026-04-10T05:09:54.243Z</time></trkpt><trkpt lat="45.6487269" lon="10.2656119"><ele>480.0</ele><time>2026-04-10T05:09:55.243Z</time></trkpt><trkpt lat="45.6487974" lon="10.2655149"><ele>479.6</ele><time>2026-04-10T05:09:56.242Z</time></trkpt><trkpt lat="45.6488682" lon="10.2654581"><ele>479.2</ele><time>2026-04-10T05:09:57.243Z</time></trkpt><trkpt lat="45.6489296" lon="10.2654072"><ele>478.79999999999995</ele><time>2026-04-10T05:09:58.243Z</time></trkpt><trkpt lat="45.6489963" lon="10.2653194"><ele>478.4</ele><time>2026-04-10T05:09:59.243Z</time></trkpt><trkpt lat="45.6490402" lon="10.2652016"><ele>478.0</ele><time>2026-04-10T05:10:00.242Z</time></trkpt><trkpt lat="45.6490883" lon="10.2650485"><ele>478.0</ele><time>2026-04-10T05:10:01.242Z</time></trkpt><trkpt lat="45.6491408" lon="10.2648729"><ele>478.0</ele><time>2026-04-10T05:10:02.243Z</time></trkpt><trkpt lat="45.6492076" lon="10.2646776"><ele>478.0</ele><time>2026-04-10T05:10:03.242Z</time></trkpt><trkpt lat="45.6492838" lon="10.2644733"><ele>478.0</ele><time>2026-04-10T05:10:04.243Z</time></trkpt><trkpt lat="45.6493591" lon="10.2642901"><ele>476.75</ele><time>2026-04-10T05:10:05.243Z</time></trkpt><trkpt lat="45.6494315" lon="10.2641145"><ele>475.5</ele><time>2026-04-10T05:10:06.242Z</time></trkpt><trkpt lat="45.6495064" lon="10.2639395"><ele>474.25</ele><time>2026-04-10T05:10:07.243Z</time></trkpt><trkpt lat="45.6495697" lon="10.2637813"><ele>473.0</ele><time>2026-04-10T05:10:08.243Z</time></trkpt><trkpt lat="45.6496277" lon="10.2636388"><ele>473.0</ele><time>2026-04-10T05:10:09.243Z</time></trkpt><trkpt lat="45.6496891" lon="10.2634993"><ele>472.99999999999994</ele><time>2026-04-10T05:10:10.243Z</time></trkpt><trkpt lat="45.6497464" lon="10.2633634"><ele>472.99999999999994</ele><time>2026-04-10T05:10:11.243Z</time></trkpt><trkpt lat="45.6497973" lon="10.2632466"><ele>473.0</ele><time>2026-04-10T05:10:12.243Z</time></trkpt><trkpt lat="45.649845" lon="10.2631589"><ele>473.0</ele><time>2026-04-10T05:10:13.243Z</time></trkpt><trkpt lat="45.6499052" lon="10.2630778"><ele>471.4</ele><time>2026-04-10T05:10:14.243Z</time></trkpt><trkpt lat="45.64997" lon="10.2630158"><ele>469.79999999999995</ele><time>2026-04-10T05:10:15.243Z</time></trkpt><trkpt lat="45.6500528" lon="10.2629219"><ele>468.2</ele><time>2026-04-10T05:10:17.243Z</time></trkpt><trkpt lat="45.6500878" lon="10.2627355"><ele>466.6</ele><time>2026-04-10T05:10:19.243Z</time></trkpt><trkpt lat="45.6501117" lon="10.2625883"><ele>465.0</ele><time>2026-04-10T05:10:20.242Z</time></trkpt><trkpt lat="45.6501633" lon="10.2624185"><ele>464.0</ele><time>2026-04-10T05:10:21.243Z</time></trkpt><trkpt lat="45.6502298" lon="10.2622767"><ele>463.0</ele><time>2026-04-10T05:10:22.243Z</time></trkpt><trkpt lat="45.6502924" lon="10.2621267"><ele>462.0</ele><time>2026-04-10T05:10:23.243Z</time></trkpt><trkpt lat="45.6503495" lon="10.2619786"><ele>461.0</ele><time>2026-04-10T05:10:24.243Z</time></trkpt><trkpt lat="45.650394" lon="10.2618255"><ele>466.5</ele><time>2026-04-10T05:10:25.243Z</time></trkpt><trkpt lat="45.6504275" lon="10.2616654"><ele>472.0</ele><time>2026-04-10T05:10:26.243Z</time></trkpt><trkpt lat="45.6504598" lon="10.2614844"><ele>477.5</ele><time>2026-04-10T05:10:27.243Z</time></trkpt><trkpt lat="45.6504968" lon="10.2612757"><ele>483.0</ele><time>2026-04-10T05:10:28.242Z</time></trkpt><trkpt lat="45.6505199" lon="10.2610475"><ele>483.0</ele><time>2026-04-10T05:10:29.242Z</time></trkpt><trkpt lat="45.6505166" lon="10.2607986"><ele>483.0</ele><time>2026-04-10T05:10:30.243Z</time></trkpt><trkpt lat="45.6505097" lon="10.2605432"><ele>483.0</ele><time>2026-04-10T05:10:31.243Z</time></trkpt><trkpt lat="45.6504942" lon="10.2603104"><ele>483.0</ele><time>2026-04-10T05:10:32.243Z</time></trkpt><trkpt lat="45.6504823" lon="10.2601022"><ele>483.0</ele><time>2026-04-10T05:10:33.243Z</time></trkpt><trkpt lat="45.650509" lon="10.2599283"><ele>483.0</ele><time>2026-04-10T05:10:34.243Z</time></trkpt><trkpt lat="45.6505629" lon="10.2597533"><ele>483.0</ele><time>2026-04-10T05:10:35.243Z</time></trkpt><trkpt lat="45.6506144" lon="10.2595794"><ele>482.0</ele><time>2026-04-10T05:10:36.242Z</time></trkpt><trkpt lat="45.6506778" lon="10.2593983"><ele>481.0</ele><time>2026-04-10T05:10:37.243Z</time></trkpt><trkpt lat="45.6507328" lon="10.2592441"><ele>480.0</ele><time>2026-04-10T05:10:38.243Z</time></trkpt><trkpt lat="45.6507872" lon="10.2591121"><ele>479.0</ele><time>2026-04-10T05:10:39.243Z</time></trkpt><trkpt lat="45.6508298" lon="10.258993"><ele>479.99999999999994</ele><time>2026-04-10T05:10:40.243Z</time></trkpt><trkpt lat="45.6508762" lon="10.2588881"><ele>481.0</ele><time>2026-04-10T05:10:41.242Z</time></trkpt><trkpt lat="45.6509154" lon="10.2587985"><ele>482.0</ele><time>2026-04-10T05:10:42.242Z</time></trkpt><trkpt lat="45.6509625" lon="10.2586664"><ele>483.0</ele><time>2026-04-10T05:10:44.243Z</time></trkpt><trkpt lat="45.6509982" lon="10.2585787"><ele>483.99999999999994</ele><time>2026-04-10T05:10:46.243Z</time></trkpt><trkpt lat="45.6510484" lon="10.2584704"><ele>485.0</ele><time>2026-04-10T05:10:50.243Z</time></trkpt><trkpt lat="45.6511437" lon="10.2584466"><ele>485.00000000000006</ele><time>2026-04-10T05:10:52.242Z</time></trkpt><trkpt lat="45.6512121" lon="10.2584227"><ele>485.0</ele><time>2026-04-10T05:10:53.243Z</time></trkpt><trkpt lat="45.651282" lon="10.2584017"><ele>485.00000000000006</ele><time>2026-04-10T05:10:54.243Z</time></trkpt><trkpt lat="45.6513451" lon="10.2583856"><ele>485.00000000000006</ele><time>2026-04-10T05:10:55.243Z</time></trkpt><trkpt lat="45.6514103" lon="10.2583487"><ele>485.0</ele><time>2026-04-10T05:10:57.243Z</time></trkpt><trkpt lat="45.6514785" lon="10.2582923"><ele>485.00000000000006</ele><time>2026-04-10T05:11:19.243Z</time></trkpt><trkpt lat="45.6515378" lon="10.258258"><ele>485.00000000000006</ele><time>2026-04-10T05:11:20.243Z</time></trkpt><trkpt lat="45.6515866" lon="10.2581906"><ele>483.6</ele><time>2026-04-10T05:11:21.243Z</time></trkpt><trkpt lat="45.6516306" lon="10.2580935"><ele>482.2</ele><time>2026-04-10T05:11:22.243Z</time></trkpt><trkpt lat="45.6516576" lon="10.2579744"><ele>480.79999999999995</ele><time>2026-04-10T05:11:23.242Z</time></trkpt><trkpt lat="45.6516718" lon="10.2578342"><ele>479.4</ele><time>2026-04-10T05:11:24.242Z</time></trkpt><trkpt lat="45.6516701" lon="10.2576851"><ele>478.0</ele><time>2026-04-10T05:11:25.242Z</time></trkpt><trkpt lat="45.6516623" lon="10.2575293"><ele>478.0</ele><time>2026-04-10T05:11:26.242Z</time></trkpt><trkpt lat="45.6516581" lon="10.257392"><ele>477.99999999999994</ele><time>2026-04-10T05:11:27.243Z</time></trkpt><trkpt lat="45.6516527" lon="10.2572798"><ele>477.99999999999994</ele><time>2026-04-10T05:11:28.243Z</time></trkpt><trkpt lat="45.6516566" lon="10.25714"><ele>478.0</ele><time>2026-04-10T05:11:30.242Z</time></trkpt><trkpt lat="45.6516379" lon="10.2569868"><ele>478.0</ele><time>2026-04-10T05:11:32.243Z</time></trkpt><trkpt lat="45.651629" lon="10.2568178"><ele>477.6666666666667</ele><time>2026-04-10T05:11:34.243Z</time></trkpt><trkpt lat="45.6516244" lon="10.2567156"><ele>477.33333333333337</ele><time>2026-04-10T05:11:35.243Z</time></trkpt><trkpt lat="45.6516169" lon="10.2566053"><ele>477.0</ele><time>2026-04-10T05:11:36.242Z</time></trkpt><trkpt lat="45.651614" lon="10.2564932"><ele>476.66666666666663</ele><time>2026-04-10T05:11:37.243Z</time></trkpt><trkpt lat="45.6516254" lon="10.2563707"><ele>476.3333333333333</ele><time>2026-04-10T05:11:38.243Z</time></trkpt><trkpt lat="45.6516284" lon="10.256243"><ele>476.0</ele><time>2026-04-10T05:11:39.243Z</time></trkpt><trkpt lat="45.6516364" lon="10.256106"><ele>475.6</ele><time>2026-04-10T05:11:40.243Z</time></trkpt><trkpt lat="45.6516511" lon="10.2559661"><ele>475.20000000000005</ele><time>2026-04-10T05:11:41.243Z</time></trkpt><trkpt lat="45.6516602" lon="10.255829"><ele>474.79999999999995</ele><time>2026-04-10T05:11:42.243Z</time></trkpt><trkpt lat="45.6516633" lon="10.2557021"><ele>474.4</ele><time>2026-04-10T05:11:43.243Z</time></trkpt><trkpt lat="45.6516724" lon="10.2555706"><ele>474.0</ele><time>2026-04-10T05:11:44.243Z</time></trkpt><trkpt lat="45.6516885" lon="10.2554377"><ele>473.2</ele><time>2026-04-10T05:11:45.243Z</time></trkpt><trkpt lat="45.6516985" lon="10.2553071"><ele>472.4</ele><time>2026-04-10T05:11:46.243Z</time></trkpt><trkpt lat="45.6517138" lon="10.2551799"><ele>471.6</ele><time>2026-04-10T05:11:47.243Z</time></trkpt><trkpt lat="45.651729" lon="10.2550532"><ele>470.8</ele><time>2026-04-10T05:11:48.243Z</time></trkpt><trkpt lat="45.6517363" lon="10.2549311"><ele>470.0</ele><time>2026-04-10T05:11:49.242Z</time></trkpt><trkpt lat="45.6517451" lon="10.2547991"><ele>469.6</ele><time>2026-04-10T05:11:50.243Z</time></trkpt><trkpt lat="45.6517433" lon="10.2546519"><ele>469.2</ele><time>2026-04-10T05:11:51.243Z</time></trkpt><trkpt lat="45.6517522" lon="10.2545146"><ele>468.79999999999995</ele><time>2026-04-10T05:11:52.242Z</time></trkpt><trkpt lat="45.6517669" lon="10.2543786"><ele>468.4</ele><time>2026-04-10T05:11:53.243Z</time></trkpt><trkpt lat="45.6517863" lon="10.2542324"><ele>468.0</ele><time>2026-04-10T05:11:54.242Z</time></trkpt><trkpt lat="45.6517998" lon="10.2540913"><ele>466.79999999999995</ele><time>2026-04-10T05:11:55.243Z</time></trkpt><trkpt lat="45.6518168" lon="10.253951"><ele>465.59999999999997</ele><time>2026-04-10T05:11:56.243Z</time></trkpt><trkpt lat="45.6518221" lon="10.2538093"><ele>464.40000000000003</ele><time>2026-04-10T05:11:57.243Z</time></trkpt><trkpt lat="45.6518325" lon="10.2536684"><ele>463.20000000000005</ele><time>2026-04-10T05:11:58.243Z</time></trkpt><trkpt lat="45.6518464" lon="10.2535185"><ele>462.0</ele><time>2026-04-10T05:11:59.243Z</time></trkpt><trkpt lat="45.6518572" lon="10.2533702"><ele>462.0</ele><time>2026-04-10T05:12:00.242Z</time></trkpt><trkpt lat="45.651865" lon="10.2532384"><ele>462.00000000000006</ele><time>2026-04-10T05:12:01.242Z</time></trkpt><trkpt lat="45.6518792" lon="10.2530986"><ele>462.00000000000006</ele><time>2026-04-10T05:12:02.243Z</time></trkpt><trkpt lat="45.6518836" lon="10.2529582"><ele>462.0</ele><time>2026-04-10T05:12:03.242Z</time></trkpt><trkpt lat="45.651896" lon="10.2528189"><ele>462.0</ele><time>2026-04-10T05:12:04.243Z</time></trkpt><trkpt lat="45.651915" lon="10.2526779"><ele>462.6</ele><time>2026-04-10T05:12:05.243Z</time></trkpt><trkpt lat="45.6519383" lon="10.2525479"><ele>463.20000000000005</ele><time>2026-04-10T05:12:06.243Z</time></trkpt><trkpt lat="45.6519633" lon="10.2524056"><ele>463.8</ele><time>2026-04-10T05:12:07.243Z</time></trkpt><trkpt lat="45.6519866" lon="10.2522455"><ele>464.4</ele><time>2026-04-10T05:12:08.243Z</time></trkpt><trkpt lat="45.6520238" lon="10.2520946"><ele>465.0</ele><time>2026-04-10T05:12:09.243Z</time></trkpt><trkpt lat="45.6520604" lon="10.2519694"><ele>465.0</ele><time>2026-04-10T05:12:10.243Z</time></trkpt><trkpt lat="45.6520979" lon="10.2518597"><ele>465.0</ele><time>2026-04-10T05:12:11.243Z</time></trkpt><trkpt lat="45.6521184" lon="10.2517538"><ele>465.0</ele><time>2026-04-10T05:12:12.243Z</time></trkpt><trkpt lat="45.652158" lon="10.2516246"><ele>465.0</ele><time>2026-04-10T05:12:14.243Z</time></trkpt><trkpt lat="45.6521919" lon="10.2515183"><ele>465.0</ele><time>2026-04-10T05:12:16.242Z</time></trkpt><trkpt lat="45.6522388" lon="10.2514482"><ele>465.0</ele><time>2026-04-10T05:12:18.242Z</time></trkpt><trkpt lat="45.6523129" lon="10.2513865"><ele>463.2</ele><time>2026-04-10T05:12:38.243Z</time></trkpt><trkpt lat="45.6523724" lon="10.2513246"><ele>461.4</ele><time>2026-04-10T05:12:40.242Z</time></trkpt><trkpt lat="45.6524188" lon="10.2512538"><ele>459.6</ele><time>2026-04-10T05:12:42.242Z</time></trkpt><trkpt lat="45.6524856" lon="10.2511744"><ele>457.8</ele><time>2026-04-10T05:12:44.243Z</time></trkpt><trkpt lat="45.652561" lon="10.2511395"><ele>456.0</ele><time>2026-04-10T05:12:46.243Z</time></trkpt><trkpt lat="45.652717" lon="10.2511092"><ele>456.4</ele><time>2026-04-10T05:12:49.243Z</time></trkpt><trkpt lat="45.6528348" lon="10.2511536"><ele>456.8</ele><time>2026-04-10T05:12:51.243Z</time></trkpt><trkpt lat="45.6529403" lon="10.2512501"><ele>457.19999999999993</ele><time>2026-04-10T05:12:53.242Z</time></trkpt><trkpt lat="45.6529928" lon="10.2513239"><ele>457.59999999999997</ele><time>2026-04-10T05:12:54.243Z</time></trkpt><trkpt lat="45.6530402" lon="10.2514046"><ele>458.0</ele><time>2026-04-10T05:12:55.242Z</time></trkpt><trkpt lat="45.6530859" lon="10.2515034"><ele>458.0</ele><time>2026-04-10T05:12:56.243Z</time></trkpt><trkpt lat="45.6531397" lon="10.2516107"><ele>457.99999999999994</ele><time>2026-04-10T05:12:57.243Z</time></trkpt><trkpt lat="45.6531929" lon="10.2517052"><ele>457.99999999999994</ele><time>2026-04-10T05:12:58.242Z</time></trkpt><trkpt lat="45.6532347" lon="10.2517945"><ele>458.0</ele><time>2026-04-10T05:12:59.243Z</time></trkpt><trkpt lat="45.6533019" lon="10.2519178"><ele>458.0</ele><time>2026-04-10T05:13:01.243Z</time></trkpt><trkpt lat="45.6533528" lon="10.2520613"><ele>457.99999999999994</ele><time>2026-04-10T05:13:03.242Z</time></trkpt><trkpt lat="45.653392" lon="10.2521484"><ele>458.0</ele><time>2026-04-10T05:13:04.243Z</time></trkpt><trkpt lat="45.6534293" lon="10.2522258"><ele>458.0</ele><time>2026-04-10T05:13:05.242Z</time></trkpt><trkpt lat="45.6534773" lon="10.2522903"><ele>458.0</ele><time>2026-04-10T05:13:06.242Z</time></trkpt><trkpt lat="45.6535821" lon="10.252382"><ele>457.99999999999994</ele><time>2026-04-10T05:13:08.242Z</time></trkpt><trkpt lat="45.6536978" lon="10.2524213"><ele>458.0</ele><time>2026-04-10T05:13:10.243Z</time></trkpt><trkpt lat="45.6537665" lon="10.2523937"><ele>457.0</ele><time>2026-04-10T05:13:11.242Z</time></trkpt><trkpt lat="45.6538614" lon="10.2523218"><ele>456.0</ele><time>2026-04-10T05:13:12.243Z</time></trkpt><trkpt lat="45.653961" lon="10.2522323"><ele>455.0</ele><time>2026-04-10T05:13:13.243Z</time></trkpt><trkpt lat="45.654086" lon="10.2521419"><ele>454.0</ele><time>2026-04-10T05:13:14.243Z</time></trkpt><trkpt lat="45.6542004" lon="10.2520695"><ele>454.0</ele><time>2026-04-10T05:13:15.243Z</time></trkpt><trkpt lat="45.6543182" lon="10.2519942"><ele>454.0</ele><time>2026-04-10T05:13:16.243Z</time></trkpt><trkpt lat="45.6544177" lon="10.2519252"><ele>454.0</ele><time>2026-04-10T05:13:17.243Z</time></trkpt><trkpt lat="45.6545072" lon="10.2518427"><ele>454.0</ele><time>2026-04-10T05:13:18.243Z</time></trkpt><trkpt lat="45.6545793" lon="10.251747"><ele>454.0</ele><time>2026-04-10T05:13:19.242Z</time></trkpt><trkpt lat="45.6546202" lon="10.2516188"><ele>458.0</ele><time>2026-04-10T05:13:20.243Z</time></trkpt><trkpt lat="45.6546286" lon="10.251475"><ele>462.0</ele><time>2026-04-10T05:13:21.243Z</time></trkpt><trkpt lat="45.6545991" lon="10.2513381"><ele>466.0</ele><time>2026-04-10T05:13:22.243Z</time></trkpt><trkpt lat="45.6545636" lon="10.2511647"><ele>470.0</ele><time>2026-04-10T05:13:23.242Z</time></trkpt><trkpt lat="45.6545213" lon="10.2509778"><ele>470.0</ele><time>2026-04-10T05:13:24.242Z</time></trkpt><trkpt lat="45.654469" lon="10.2507638"><ele>470.0</ele><time>2026-04-10T05:13:25.242Z</time></trkpt><trkpt lat="45.6544177" lon="10.2505273"><ele>470.0</ele><time>2026-04-10T05:13:26.242Z</time></trkpt><trkpt lat="45.6543673" lon="10.2502859"><ele>462.3333333333333</ele><time>2026-04-10T05:13:27.242Z</time></trkpt><trkpt lat="45.6543332" lon="10.2500421"><ele>454.66666666666663</ele><time>2026-04-10T05:13:28.243Z</time></trkpt><trkpt lat="45.6542959" lon="10.2498079"><ele>447.0</ele><time>2026-04-10T05:13:29.242Z</time></trkpt><trkpt lat="45.654263" lon="10.2495974"><ele>447.0</ele><time>2026-04-10T05:13:30.243Z</time></trkpt><trkpt lat="45.6542266" lon="10.249411"><ele>447.0</ele><time>2026-04-10T05:13:31.242Z</time></trkpt><trkpt lat="45.6542062" lon="10.2492224"><ele>447.0</ele><time>2026-04-10T05:13:32.243Z</time></trkpt><trkpt lat="45.6541753" lon="10.2490438"><ele>447.0</ele><time>2026-04-10T05:13:33.242Z</time></trkpt><trkpt lat="45.6541413" lon="10.2488609"><ele>446.25</ele><time>2026-04-10T05:13:34.243Z</time></trkpt><trkpt lat="45.6541108" lon="10.2486657"><ele>445.5</ele><time>2026-04-10T05:13:35.243Z</time></trkpt><trkpt lat="45.6540811" lon="10.2484711"><ele>444.75</ele><time>2026-04-10T05:13:36.243Z</time></trkpt><trkpt lat="45.6540638" lon="10.2482672"><ele>444.0</ele><time>2026-04-10T05:13:37.242Z</time></trkpt><trkpt lat="45.6540693" lon="10.2480519"><ele>442.66666666666663</ele><time>2026-04-10T05:13:38.243Z</time></trkpt><trkpt lat="45.6541013" lon="10.2478369"><ele>441.3333333333333</ele><time>2026-04-10T05:13:39.243Z</time></trkpt><trkpt lat="45.6541472" lon="10.247632"><ele>440.0</ele><time>2026-04-10T05:13:40.243Z</time></trkpt><trkpt lat="45.6542055" lon="10.2474201"><ele>437.66666666666663</ele><time>2026-04-10T05:13:41.243Z</time></trkpt><trkpt lat="45.6542616" lon="10.2472022"><ele>435.33333333333337</ele><time>2026-04-10T05:13:42.242Z</time></trkpt><trkpt lat="45.6543205" lon="10.2469735"><ele>433.0</ele><time>2026-04-10T05:13:43.243Z</time></trkpt><trkpt lat="45.6543857" lon="10.2467555"><ele>433.0</ele><time>2026-04-10T05:13:44.242Z</time></trkpt><trkpt lat="45.6544404" lon="10.2465597"><ele>433.0</ele><time>2026-04-10T05:13:45.243Z</time></trkpt><trkpt lat="45.6544902" lon="10.2463931"><ele>433.0</ele><time>2026-04-10T05:13:46.243Z</time></trkpt><trkpt lat="45.654528" lon="10.2462378"><ele>433.0</ele><time>2026-04-10T05:13:47.242Z</time></trkpt><trkpt lat="45.6545638" lon="10.2460849"><ele>433.25</ele><time>2026-04-10T05:13:48.243Z</time></trkpt><trkpt lat="45.6545975" lon="10.2459351"><ele>433.5</ele><time>2026-04-10T05:13:49.243Z</time></trkpt><trkpt lat="45.6546385" lon="10.245791"><ele>433.75</ele><time>2026-04-10T05:13:50.243Z</time></trkpt><trkpt lat="45.6546807" lon="10.2456405"><ele>434.0</ele><time>2026-04-10T05:13:51.243Z</time></trkpt><trkpt lat="45.6547273" lon="10.2454671"><ele>434.0</ele><time>2026-04-10T05:13:52.243Z</time></trkpt><trkpt lat="45.6547787" lon="10.2452903"><ele>434.0</ele><time>2026-04-10T05:13:53.243Z</time></trkpt><trkpt lat="45.6548393" lon="10.2451056"><ele>434.0</ele><time>2026-04-10T05:13:54.243Z</time></trkpt><trkpt lat="45.6548939" lon="10.2449067"><ele>434.0</ele><time>2026-04-10T05:13:55.242Z</time></trkpt><trkpt lat="45.654942" lon="10.2446944"><ele>432.66666666666663</ele><time>2026-04-10T05:13:56.243Z</time></trkpt><trkpt lat="45.6550064" lon="10.2444804"><ele>431.33333333333337</ele><time>2026-04-10T05:13:57.243Z</time></trkpt><trkpt lat="45.6550588" lon="10.2442818"><ele>430.0</ele><time>2026-04-10T05:13:58.243Z</time></trkpt><trkpt lat="45.655108" lon="10.2440801"><ele>428.5</ele><time>2026-04-10T05:13:59.243Z</time></trkpt><trkpt lat="45.655147" lon="10.2438847"><ele>427.0</ele><time>2026-04-10T05:14:00.243Z</time></trkpt><trkpt lat="45.6551786" lon="10.2436802"><ele>425.5</ele><time>2026-04-10T05:14:01.243Z</time></trkpt><trkpt lat="45.6551986" lon="10.2434721"><ele>424.0</ele><time>2026-04-10T05:14:02.243Z</time></trkpt><trkpt lat="45.6552027" lon="10.2432727"><ele>424.75</ele><time>2026-04-10T05:14:03.243Z</time></trkpt><trkpt lat="45.6551883" lon="10.2430823"><ele>425.5</ele><time>2026-04-10T05:14:04.241Z</time></trkpt><trkpt lat="45.6551602" lon="10.2429129"><ele>426.25</ele><time>2026-04-10T05:14:05.242Z</time></trkpt><trkpt lat="45.6551398" lon="10.2427599"><ele>427.0</ele><time>2026-04-10T05:14:06.242Z</time></trkpt><trkpt lat="45.6551181" lon="10.2426012"><ele>427.0</ele><time>2026-04-10T05:14:07.241Z</time></trkpt><trkpt lat="45.6550941" lon="10.2424803"><ele>427.00000000000006</ele><time>2026-04-10T05:14:08.242Z</time></trkpt><trkpt lat="45.6550828" lon="10.2423872"><ele>427.00000000000006</ele><time>2026-04-10T05:14:09.242Z</time></trkpt><trkpt lat="45.6550817" lon="10.2422204"><ele>427.0</ele><time>2026-04-10T05:14:11.242Z</time></trkpt><trkpt lat="45.6550825" lon="10.2421123"><ele>427.0</ele><time>2026-04-10T05:14:14.242Z</time></trkpt><trkpt lat="45.6550941" lon="10.2419647"><ele>427.20000000000005</ele><time>2026-04-10T05:14:32.242Z</time></trkpt><trkpt lat="45.6551149" lon="10.2418651"><ele>427.40000000000003</ele><time>2026-04-10T05:14:33.242Z</time></trkpt><trkpt lat="45.6551354" lon="10.2417254"><ele>427.59999999999997</ele><time>2026-04-10T05:14:34.241Z</time></trkpt><trkpt lat="45.6551649" lon="10.2415978"><ele>427.79999999999995</ele><time>2026-04-10T05:14:35.242Z</time></trkpt><trkpt lat="45.6551962" lon="10.2414558"><ele>428.0</ele><time>2026-04-10T05:14:36.242Z</time></trkpt><trkpt lat="45.6552332" lon="10.241311"><ele>427.59999999999997</ele><time>2026-04-10T05:14:37.242Z</time></trkpt><trkpt lat="45.6552615" lon="10.2411692"><ele>427.19999999999993</ele><time>2026-04-10T05:14:38.242Z</time></trkpt><trkpt lat="45.6552895" lon="10.2410279"><ele>426.8</ele><time>2026-04-10T05:14:39.241Z</time></trkpt><trkpt lat="45.6553156" lon="10.240886"><ele>426.4</ele><time>2026-04-10T05:14:40.242Z</time></trkpt><trkpt lat="45.6553523" lon="10.2407315"><ele>426.0</ele><time>2026-04-10T05:14:41.241Z</time></trkpt><trkpt lat="45.6554131" lon="10.2405744"><ele>428.0</ele><time>2026-04-10T05:14:42.24Z</time></trkpt><trkpt lat="45.6554424" lon="10.2404146"><ele>430.0</ele><time>2026-04-10T05:14:43.242Z</time></trkpt><trkpt lat="45.6554523" lon="10.2402608"><ele>432.0</ele><time>2026-04-10T05:14:44.242Z</time></trkpt><trkpt lat="45.6554418" lon="10.2401292"><ele>434.0</ele><time>2026-04-10T05:14:45.242Z</time></trkpt><trkpt lat="45.6553918" lon="10.2399975"><ele>436.0</ele><time>2026-04-10T05:14:46.242Z</time></trkpt><trkpt lat="45.6553264" lon="10.2398837"><ele>433.8</ele><time>2026-04-10T05:14:47.242Z</time></trkpt><trkpt lat="45.6552381" lon="10.2398149"><ele>431.6</ele><time>2026-04-10T05:14:48.241Z</time></trkpt><trkpt lat="45.6551344" lon="10.2397641"><ele>429.4</ele><time>2026-04-10T05:14:49.242Z</time></trkpt><trkpt lat="45.6550509" lon="10.2397421"><ele>427.2</ele><time>2026-04-10T05:14:50.241Z</time></trkpt><trkpt lat="45.6549651" lon="10.2396944"><ele>425.0</ele><time>2026-04-10T05:14:51.242Z</time></trkpt><trkpt lat="45.6548811" lon="10.2396501"><ele>425.0</ele><time>2026-04-10T05:14:52.241Z</time></trkpt><trkpt lat="45.6548079" lon="10.2395992"><ele>425.0</ele><time>2026-04-10T05:14:53.242Z</time></trkpt><trkpt lat="45.6547228" lon="10.2394749"><ele>425.0</ele><time>2026-04-10T05:14:55.242Z</time></trkpt><trkpt lat="45.6547669" lon="10.2392686"><ele>425.0</ele><time>2026-04-10T05:14:57.242Z</time></trkpt><trkpt lat="45.6548019" lon="10.239147"><ele>425.0</ele><time>2026-04-10T05:14:58.241Z</time></trkpt><trkpt lat="45.654827" lon="10.2390273"><ele>424.8333333333333</ele><time>2026-04-10T05:14:59.242Z</time></trkpt><trkpt lat="45.6548565" lon="10.2389162"><ele>424.66666666666663</ele><time>2026-04-10T05:15:00.242Z</time></trkpt><trkpt lat="45.6548858" lon="10.238813"><ele>424.5</ele><time>2026-04-10T05:15:01.242Z</time></trkpt><trkpt lat="45.6549057" lon="10.2387028"><ele>424.33333333333337</ele><time>2026-04-10T05:15:02.242Z</time></trkpt><trkpt lat="45.6549358" lon="10.2385795"><ele>424.1666666666667</ele><time>2026-04-10T05:15:03.242Z</time></trkpt><trkpt lat="45.6549604" lon="10.2384599"><ele>424.0</ele><time>2026-04-10T05:15:04.242Z</time></trkpt><trkpt lat="45.6549931" lon="10.2383285"><ele>424.0</ele><time>2026-04-10T05:15:05.242Z</time></trkpt><trkpt lat="45.6550291" lon="10.2381874"><ele>424.0</ele><time>2026-04-10T05:15:06.242Z</time></trkpt><trkpt lat="45.6550604" lon="10.2380433"><ele>424.0</ele><time>2026-04-10T05:15:07.242Z</time></trkpt><trkpt lat="45.6550971" lon="10.2378904"><ele>424.0</ele><time>2026-04-10T05:15:08.241Z</time></trkpt><trkpt lat="45.6551579" lon="10.2377172"><ele>424.25</ele><time>2026-04-10T05:15:09.242Z</time></trkpt><trkpt lat="45.6552347" lon="10.237557"><ele>424.5</ele><time>2026-04-10T05:15:10.241Z</time></trkpt><trkpt lat="45.6553242" lon="10.2374031"><ele>424.75</ele><time>2026-04-10T05:15:11.242Z</time></trkpt><trkpt lat="45.6554007" lon="10.2372595"><ele>425.0</ele><time>2026-04-10T05:15:12.242Z</time></trkpt><trkpt lat="45.6554787" lon="10.2371207"><ele>425.0</ele><time>2026-04-10T05:15:13.242Z</time></trkpt><trkpt lat="45.6555528" lon="10.2369958"><ele>425.0</ele><time>2026-04-10T05:15:14.242Z</time></trkpt><trkpt lat="45.6556157" lon="10.2368741"><ele>425.0</ele><time>2026-04-10T05:15:15.242Z</time></trkpt><trkpt lat="45.655674" lon="10.2367652"><ele>425.0</ele><time>2026-04-10T05:15:16.242Z</time></trkpt><trkpt lat="45.6557367" lon="10.2366711"><ele>425.0</ele><time>2026-04-10T05:15:17.241Z</time></trkpt><trkpt lat="45.6557831" lon="10.2365883"><ele>424.99999999999994</ele><time>2026-04-10T05:15:18.242Z</time></trkpt><trkpt lat="45.6558367" lon="10.2364949"><ele>425.0</ele><time>2026-04-10T05:15:19.242Z</time></trkpt><trkpt lat="45.6558918" lon="10.2363971"><ele>425.0</ele><time>2026-04-10T05:15:20.242Z</time></trkpt><trkpt lat="45.6559478" lon="10.236302"><ele>425.0</ele><time>2026-04-10T05:15:21.241Z</time></trkpt><trkpt lat="45.6560094" lon="10.2361911"><ele>424.99999999999994</ele><time>2026-04-10T05:15:22.242Z</time></trkpt><trkpt lat="45.6560667" lon="10.2361019"><ele>425.0</ele><time>2026-04-10T05:15:23.241Z</time></trkpt><trkpt lat="45.6561375" lon="10.2360384"><ele>423.4</ele><time>2026-04-10T05:15:24.242Z</time></trkpt><trkpt lat="45.6562234" lon="10.2359988"><ele>421.8</ele><time>2026-04-10T05:15:25.241Z</time></trkpt><trkpt lat="45.6563194" lon="10.2359528"><ele>420.20000000000005</ele><time>2026-04-10T05:15:26.242Z</time></trkpt><trkpt lat="45.656423" lon="10.2358896"><ele>418.6</ele><time>2026-04-10T05:15:27.242Z</time></trkpt><trkpt lat="45.6565222" lon="10.2357835"><ele>417.0</ele><time>2026-04-10T05:15:28.242Z</time></trkpt><trkpt lat="45.6566244" lon="10.2356732"><ele>416.75</ele><time>2026-04-10T05:15:29.242Z</time></trkpt><trkpt lat="45.6567166" lon="10.2355429"><ele>416.5</ele><time>2026-04-10T05:15:30.241Z</time></trkpt><trkpt lat="45.6568126" lon="10.2353939"><ele>416.25</ele><time>2026-04-10T05:15:31.241Z</time></trkpt><trkpt lat="45.6569002" lon="10.2352319"><ele>416.0</ele><time>2026-04-10T05:15:32.241Z</time></trkpt><trkpt lat="45.6569846" lon="10.2350738"><ele>416.0</ele><time>2026-04-10T05:15:33.242Z</time></trkpt><trkpt lat="45.6570825" lon="10.2348912"><ele>416.0</ele><time>2026-04-10T05:15:34.242Z</time></trkpt><trkpt lat="45.6571887" lon="10.2347219"><ele>416.0</ele><time>2026-04-10T05:15:35.241Z</time></trkpt><trkpt lat="45.657292" lon="10.2345578"><ele>414.75</ele><time>2026-04-10T05:15:36.242Z</time></trkpt><trkpt lat="45.6573868" lon="10.2344055"><ele>413.5</ele><time>2026-04-10T05:15:37.242Z</time></trkpt><trkpt lat="45.6574697" lon="10.2342475"><ele>412.25</ele><time>2026-04-10T05:15:38.241Z</time></trkpt><trkpt lat="45.6575345" lon="10.2340628"><ele>411.0</ele><time>2026-04-10T05:15:39.242Z</time></trkpt><trkpt lat="45.6575643" lon="10.2338837"><ele>409.5</ele><time>2026-04-10T05:15:40.242Z</time></trkpt><trkpt lat="45.6575838" lon="10.2336979"><ele>408.0</ele><time>2026-04-10T05:15:41.242Z</time></trkpt><trkpt lat="45.6575999" lon="10.2335098"><ele>406.5</ele><time>2026-04-10T05:15:42.242Z</time></trkpt><trkpt lat="45.6576233" lon="10.2333144"><ele>405.0</ele><time>2026-04-10T05:15:43.242Z</time></trkpt><trkpt lat="45.6576499" lon="10.2331096"><ele>404.25</ele><time>2026-04-10T05:15:44.242Z</time></trkpt><trkpt lat="45.6576701" lon="10.2329099"><ele>403.5</ele><time>2026-04-10T05:15:45.242Z</time></trkpt><trkpt lat="45.657683" lon="10.2326997"><ele>402.75</ele><time>2026-04-10T05:15:46.242Z</time></trkpt><trkpt lat="45.6576892" lon="10.2324762"><ele>402.0</ele><time>2026-04-10T05:15:47.241Z</time></trkpt><trkpt lat="45.6576836" lon="10.2322539"><ele>400.75</ele><time>2026-04-10T05:15:48.242Z</time></trkpt><trkpt lat="45.6576764" lon="10.2320332"><ele>399.5</ele><time>2026-04-10T05:15:49.241Z</time></trkpt><trkpt lat="45.6576633" lon="10.2318421"><ele>398.25</ele><time>2026-04-10T05:15:50.241Z</time></trkpt><trkpt lat="45.657666" lon="10.2316761"><ele>397.0</ele><time>2026-04-10T05:15:51.242Z</time></trkpt><trkpt lat="45.6576588" lon="10.2315178"><ele>398.1666666666667</ele><time>2026-04-10T05:15:52.241Z</time></trkpt><trkpt lat="45.6576561" lon="10.2313785"><ele>399.33333333333337</ele><time>2026-04-10T05:15:53.242Z</time></trkpt><trkpt lat="45.6576529" lon="10.2312549"><ele>400.5</ele><time>2026-04-10T05:15:54.242Z</time></trkpt><trkpt lat="45.6576507" lon="10.2311534"><ele>401.66666666666663</ele><time>2026-04-10T05:15:55.242Z</time></trkpt><trkpt lat="45.6576453" lon="10.2310549"><ele>402.8333333333333</ele><time>2026-04-10T05:15:57.241Z</time></trkpt><trkpt lat="45.6575782" lon="10.2309812"><ele>404.0</ele><time>2026-04-10T05:15:59.242Z</time></trkpt><trkpt lat="45.6574892" lon="10.2309368"><ele>404.0</ele><time>2026-04-10T05:16:00.242Z</time></trkpt><trkpt lat="45.6573794" lon="10.230908"><ele>404.0</ele><time>2026-04-10T05:16:01.242Z</time></trkpt><trkpt lat="45.6572536" lon="10.2308619"><ele>404.0</ele><time>2026-04-10T05:16:02.242Z</time></trkpt><trkpt lat="45.6571483" lon="10.2308155"><ele>404.0</ele><time>2026-04-10T05:16:03.242Z</time></trkpt><trkpt lat="45.6570408" lon="10.2308032"><ele>403.66666666666663</ele><time>2026-04-10T05:16:04.241Z</time></trkpt><trkpt lat="45.6569443" lon="10.2307742"><ele>403.3333333333333</ele><time>2026-04-10T05:16:05.242Z</time></trkpt><trkpt lat="45.6568476" lon="10.2307572"><ele>403.0</ele><time>2026-04-10T05:16:06.242Z</time></trkpt><trkpt lat="45.6567605" lon="10.2307316"><ele>402.66666666666663</ele><time>2026-04-10T05:16:07.242Z</time></trkpt><trkpt lat="45.6566908" lon="10.2306989"><ele>402.3333333333333</ele><time>2026-04-10T05:16:08.242Z</time></trkpt><trkpt lat="45.6566269" lon="10.2306551"><ele>402.0</ele><time>2026-04-10T05:16:10.242Z</time></trkpt><trkpt lat="45.6566147" lon="10.2305343"><ele>402.0</ele><time>2026-04-10T05:16:13.242Z</time></trkpt><trkpt lat="45.6566382" lon="10.230446"><ele>402.0</ele><time>2026-04-10T05:16:14.242Z</time></trkpt><trkpt lat="45.656694" lon="10.2303603"><ele>402.0</ele><time>2026-04-10T05:16:15.241Z</time></trkpt><trkpt lat="45.6567464" lon="10.2302928"><ele>402.0</ele><time>2026-04-10T05:16:16.241Z</time></trkpt><trkpt lat="45.6568035" lon="10.2301547"><ele>402.0</ele><time>2026-04-10T05:16:18.242Z</time></trkpt><trkpt lat="45.6568257" lon="10.2300454"><ele>402.0</ele><time>2026-04-10T05:16:19.241Z</time></trkpt><trkpt lat="45.6568505" lon="10.2299076"><ele>401.6666666666667</ele><time>2026-04-10T05:16:20.242Z</time></trkpt><trkpt lat="45.6568574" lon="10.2297804"><ele>401.33333333333337</ele><time>2026-04-10T05:16:21.242Z</time></trkpt><trkpt lat="45.6568622" lon="10.2296763"><ele>401.0</ele><time>2026-04-10T05:16:22.242Z</time></trkpt><trkpt lat="45.6568639" lon="10.2295737"><ele>400.6666666666667</ele><time>2026-04-10T05:16:23.242Z</time></trkpt><trkpt lat="45.6568652" lon="10.2294759"><ele>400.33333333333337</ele><time>2026-04-10T05:16:24.241Z</time></trkpt><trkpt lat="45.656871" lon="10.2293549"><ele>400.0</ele><time>2026-04-10T05:16:25.242Z</time></trkpt><trkpt lat="45.6568659" lon="10.2292341"><ele>400.00000000000006</ele><time>2026-04-10T05:16:26.241Z</time></trkpt><trkpt lat="45.6568672" lon="10.2291184"><ele>400.0</ele><time>2026-04-10T05:16:27.242Z</time></trkpt><trkpt lat="45.6568866" lon="10.229022"><ele>400.0</ele><time>2026-04-10T05:16:28.242Z</time></trkpt><trkpt lat="45.6569141" lon="10.2289173"><ele>400.0</ele><time>2026-04-10T05:16:29.241Z</time></trkpt><trkpt lat="45.6569629" lon="10.2288463"><ele>400.00000000000006</ele><time>2026-04-10T05:16:30.242Z</time></trkpt><trkpt lat="45.6570933" lon="10.2288284"><ele>400.0</ele><time>2026-04-10T05:16:32.242Z</time></trkpt><trkpt lat="45.6571919" lon="10.2288707"><ele>399.6</ele><time>2026-04-10T05:16:33.242Z</time></trkpt><trkpt lat="45.6572765" lon="10.2289153"><ele>399.2</ele><time>2026-04-10T05:16:34.242Z</time></trkpt><trkpt lat="45.6573497" lon="10.2289709"><ele>398.79999999999995</ele><time>2026-04-10T05:16:35.242Z</time></trkpt><trkpt lat="45.6574328" lon="10.2290213"><ele>398.4</ele><time>2026-04-10T05:16:36.242Z</time></trkpt><trkpt lat="45.6575253" lon="10.2290699"><ele>398.0</ele><time>2026-04-10T05:16:37.242Z</time></trkpt><trkpt lat="45.6576159" lon="10.2290828"><ele>398.0</ele><time>2026-04-10T05:16:38.241Z</time></trkpt><trkpt lat="45.657708" lon="10.2290455"><ele>398.0</ele><time>2026-04-10T05:16:39.242Z</time></trkpt><trkpt lat="45.6577787" lon="10.228985"><ele>398.0</ele><time>2026-04-10T05:16:40.241Z</time></trkpt><trkpt lat="45.6578632" lon="10.2289243"><ele>398.0</ele><time>2026-04-10T05:16:41.242Z</time></trkpt><trkpt lat="45.6579435" lon="10.2288023"><ele>398.0</ele><time>2026-04-10T05:16:42.242Z</time></trkpt><trkpt lat="45.6580195" lon="10.2286778"><ele>396.0</ele><time>2026-04-10T05:16:43.242Z</time></trkpt><trkpt lat="45.6581242" lon="10.2285583"><ele>394.0</ele><time>2026-04-10T05:16:44.242Z</time></trkpt><trkpt lat="45.6582297" lon="10.2284383"><ele>392.0</ele><time>2026-04-10T05:16:45.241Z</time></trkpt><trkpt lat="45.6583297" lon="10.2283209"><ele>390.0</ele><time>2026-04-10T05:16:46.242Z</time></trkpt><trkpt lat="45.6584056" lon="10.2282085"><ele>389.0</ele><time>2026-04-10T05:16:47.242Z</time></trkpt><trkpt lat="45.6584619" lon="10.2280965"><ele>388.0</ele><time>2026-04-10T05:16:48.242Z</time></trkpt><trkpt lat="45.6584868" lon="10.2279875"><ele>387.0</ele><time>2026-04-10T05:16:49.242Z</time></trkpt><trkpt lat="45.6584762" lon="10.2278516"><ele>386.0</ele><time>2026-04-10T05:16:50.242Z</time></trkpt><trkpt lat="45.6584466" lon="10.2276941"><ele>385.0</ele><time>2026-04-10T05:16:51.242Z</time></trkpt><trkpt lat="45.6584018" lon="10.2275452"><ele>385.0</ele><time>2026-04-10T05:16:52.242Z</time></trkpt><trkpt lat="45.6583503" lon="10.2273852"><ele>385.0</ele><time>2026-04-10T05:16:53.242Z</time></trkpt><trkpt lat="45.6583103" lon="10.2272113"><ele>385.0</ele><time>2026-04-10T05:16:54.242Z</time></trkpt><trkpt lat="45.6582756" lon="10.2270459"><ele>385.0</ele><time>2026-04-10T05:16:55.241Z</time></trkpt><trkpt lat="45.6582552" lon="10.2268844"><ele>385.2</ele><time>2026-04-10T05:16:56.242Z</time></trkpt><trkpt lat="45.6582559" lon="10.2267426"><ele>385.4</ele><time>2026-04-10T05:16:57.242Z</time></trkpt><trkpt lat="45.6582878" lon="10.2266159"><ele>385.6</ele><time>2026-04-10T05:16:58.241Z</time></trkpt><trkpt lat="45.6583379" lon="10.2264935"><ele>385.8</ele><time>2026-04-10T05:16:59.241Z</time></trkpt><trkpt lat="45.6583853" lon="10.2263657"><ele>386.0</ele><time>2026-04-10T05:17:00.241Z</time></trkpt><trkpt lat="45.6584249" lon="10.2262428"><ele>386.0</ele><time>2026-04-10T05:17:01.241Z</time></trkpt><trkpt lat="45.658466" lon="10.2261214"><ele>386.0</ele><time>2026-04-10T05:17:02.242Z</time></trkpt><trkpt lat="45.6585236" lon="10.2259793"><ele>386.0</ele><time>2026-04-10T05:17:03.242Z</time></trkpt><trkpt lat="45.6585855" lon="10.2258376"><ele>386.0</ele><time>2026-04-10T05:17:04.242Z</time></trkpt><trkpt lat="45.6586494" lon="10.2256855"><ele>387.75</ele><time>2026-04-10T05:17:05.242Z</time></trkpt><trkpt lat="45.658706" lon="10.2255511"><ele>389.5</ele><time>2026-04-10T05:17:06.241Z</time></trkpt><trkpt lat="45.6587604" lon="10.225406"><ele>391.25</ele><time>2026-04-10T05:17:07.242Z</time></trkpt><trkpt lat="45.658831" lon="10.2252528"><ele>393.0</ele><time>2026-04-10T05:17:08.241Z</time></trkpt><trkpt lat="45.6589136" lon="10.2251135"><ele>393.0</ele><time>2026-04-10T05:17:09.242Z</time></trkpt><trkpt lat="45.6589915" lon="10.2249798"><ele>393.0</ele><time>2026-04-10T05:17:10.242Z</time></trkpt><trkpt lat="45.6590717" lon="10.2248601"><ele>393.0</ele><time>2026-04-10T05:17:11.242Z</time></trkpt><trkpt lat="45.6591526" lon="10.2247517"><ele>393.0</ele><time>2026-04-10T05:17:12.242Z</time></trkpt><trkpt lat="45.6592339" lon="10.2246492"><ele>392.79999999999995</ele><time>2026-04-10T05:17:13.242Z</time></trkpt><trkpt lat="45.6593176" lon="10.2245414"><ele>392.6</ele><time>2026-04-10T05:17:14.242Z</time></trkpt><trkpt lat="45.6594091" lon="10.2244538"><ele>392.4</ele><time>2026-04-10T05:17:15.242Z</time></trkpt><trkpt lat="45.6595098" lon="10.224384"><ele>392.20000000000005</ele><time>2026-04-10T05:17:16.242Z</time></trkpt><trkpt lat="45.6596139" lon="10.2243431"><ele>392.0</ele><time>2026-04-10T05:17:17.242Z</time></trkpt><trkpt lat="45.6597271" lon="10.2243153"><ele>394.0</ele><time>2026-04-10T05:17:18.241Z</time></trkpt><trkpt lat="45.6598364" lon="10.2243129"><ele>396.0</ele><time>2026-04-10T05:17:19.242Z</time></trkpt><trkpt lat="45.6599389" lon="10.224319"><ele>398.0</ele><time>2026-04-10T05:17:20.242Z</time></trkpt><trkpt lat="45.6600172" lon="10.2243207"><ele>400.0</ele><time>2026-04-10T05:17:21.242Z</time></trkpt><trkpt lat="45.6600858" lon="10.2243203"><ele>402.0</ele><time>2026-04-10T05:17:22.242Z</time></trkpt><trkpt lat="45.6602231" lon="10.224319"><ele>404.20000000000005</ele><time>2026-04-10T05:17:24.242Z</time></trkpt><trkpt lat="45.6602897" lon="10.2243088"><ele>406.4</ele><time>2026-04-10T05:17:25.242Z</time></trkpt><trkpt lat="45.6603969" lon="10.2242344"><ele>408.6</ele><time>2026-04-10T05:17:27.241Z</time></trkpt><trkpt lat="45.6604537" lon="10.2241941"><ele>410.79999999999995</ele><time>2026-04-10T05:17:28.242Z</time></trkpt><trkpt lat="45.6605347" lon="10.2240792"><ele>413.0</ele><time>2026-04-10T05:17:30.242Z</time></trkpt><trkpt lat="45.6606063" lon="10.2239836"><ele>412.99999999999994</ele><time>2026-04-10T05:17:32.242Z</time></trkpt><trkpt lat="45.6606666" lon="10.2238945"><ele>413.0</ele><time>2026-04-10T05:17:34.241Z</time></trkpt><trkpt lat="45.6607085" lon="10.2237676"><ele>413.0</ele><time>2026-04-10T05:17:36.242Z</time></trkpt><trkpt lat="45.6607121" lon="10.2236732"><ele>413.0</ele><time>2026-04-10T05:17:37.242Z</time></trkpt><trkpt lat="45.6607162" lon="10.2235826"><ele>412.99999999999994</ele><time>2026-04-10T05:17:38.242Z</time></trkpt><trkpt lat="45.6607787" lon="10.2234966"><ele>413.0</ele><time>2026-04-10T05:17:40.241Z</time></trkpt><trkpt lat="45.6608514" lon="10.2234185"><ele>412.99999999999994</ele><time>2026-04-10T05:17:42.242Z</time></trkpt><trkpt lat="45.6609093" lon="10.2233749"><ele>413.0</ele><time>2026-04-10T05:17:43.242Z</time></trkpt><trkpt lat="45.6609788" lon="10.2233201"><ele>413.0</ele><time>2026-04-10T05:17:44.242Z</time></trkpt><trkpt lat="45.6610487" lon="10.2232485"><ele>413.0</ele><time>2026-04-10T05:17:45.241Z</time></trkpt><trkpt lat="45.6611212" lon="10.2231576"><ele>412.99999999999994</ele><time>2026-04-10T05:17:46.242Z</time></trkpt><trkpt lat="45.6612008" lon="10.2230597"><ele>413.0</ele><time>2026-04-10T05:17:47.242Z</time></trkpt><trkpt lat="45.6612789" lon="10.2229724"><ele>412.59999999999997</ele><time>2026-04-10T05:17:48.242Z</time></trkpt><trkpt lat="45.6613474" lon="10.2228919"><ele>412.2</ele><time>2026-04-10T05:17:49.242Z</time></trkpt><trkpt lat="45.6614158" lon="10.2228118"><ele>411.8</ele><time>2026-04-10T05:17:50.242Z</time></trkpt><trkpt lat="45.6614854" lon="10.2227333"><ele>411.4</ele><time>2026-04-10T05:17:51.242Z</time></trkpt><trkpt lat="45.6615548" lon="10.2226474"><ele>411.0</ele><time>2026-04-10T05:17:52.242Z</time></trkpt><trkpt lat="45.661635" lon="10.222556"><ele>411.0</ele><time>2026-04-10T05:17:53.241Z</time></trkpt><trkpt lat="45.6617239" lon="10.2224572"><ele>411.0</ele><time>2026-04-10T05:17:54.242Z</time></trkpt><trkpt lat="45.6618121" lon="10.222353"><ele>411.0</ele><time>2026-04-10T05:17:55.242Z</time></trkpt><trkpt lat="45.6618971" lon="10.2222491"><ele>411.0</ele><time>2026-04-10T05:17:56.242Z</time></trkpt><trkpt lat="45.6619767" lon="10.2221431"><ele>411.0</ele><time>2026-04-10T05:17:57.242Z</time></trkpt><trkpt lat="45.6620393" lon="10.2220361"><ele>409.0</ele><time>2026-04-10T05:17:58.242Z</time></trkpt><trkpt lat="45.6620917" lon="10.22192"><ele>407.0</ele><time>2026-04-10T05:17:59.242Z</time></trkpt><trkpt lat="45.6621294" lon="10.2218097"><ele>405.0</ele><time>2026-04-10T05:18:00.242Z</time></trkpt><trkpt lat="45.6621784" lon="10.2216852"><ele>403.0</ele><time>2026-04-10T05:18:01.242Z</time></trkpt><trkpt lat="45.6622415" lon="10.2215795"><ele>401.0</ele><time>2026-04-10T05:18:02.242Z</time></trkpt><trkpt lat="45.6623212" lon="10.2214939"><ele>397.75</ele><time>2026-04-10T05:18:03.241Z</time></trkpt><trkpt lat="45.6624267" lon="10.2214158"><ele>394.5</ele><time>2026-04-10T05:18:04.242Z</time></trkpt><trkpt lat="45.6625441" lon="10.221377"><ele>391.25</ele><time>2026-04-10T05:18:05.242Z</time></trkpt><trkpt lat="45.6626601" lon="10.2213566"><ele>388.0</ele><time>2026-04-10T05:18:06.242Z</time></trkpt><trkpt lat="45.6627702" lon="10.2213373"><ele>387.5</ele><time>2026-04-10T05:18:07.241Z</time></trkpt><trkpt lat="45.6628843" lon="10.2213115"><ele>387.0</ele><time>2026-04-10T05:18:08.242Z</time></trkpt><trkpt lat="45.6629993" lon="10.2212839"><ele>386.5</ele><time>2026-04-10T05:18:09.242Z</time></trkpt><trkpt lat="45.6631145" lon="10.2212262"><ele>386.0</ele><time>2026-04-10T05:18:10.242Z</time></trkpt><trkpt lat="45.663229" lon="10.2211616"><ele>386.0</ele><time>2026-04-10T05:18:11.242Z</time></trkpt><trkpt lat="45.6633432" lon="10.2210822"><ele>386.0</ele><time>2026-04-10T05:18:12.242Z</time></trkpt><trkpt lat="45.6634485" lon="10.2209859"><ele>386.0</ele><time>2026-04-10T05:18:13.242Z</time></trkpt><trkpt lat="45.6635488" lon="10.2208875"><ele>386.0</ele><time>2026-04-10T05:18:14.242Z</time></trkpt><trkpt lat="45.6636388" lon="10.2207968"><ele>387.20000000000005</ele><time>2026-04-10T05:18:15.241Z</time></trkpt><trkpt lat="45.6637327" lon="10.2207037"><ele>388.40000000000003</ele><time>2026-04-10T05:18:16.241Z</time></trkpt><trkpt lat="45.6638204" lon="10.2206237"><ele>389.6</ele><time>2026-04-10T05:18:17.242Z</time></trkpt><trkpt lat="45.6639087" lon="10.2205423"><ele>390.8</ele><time>2026-04-10T05:18:18.242Z</time></trkpt><trkpt lat="45.6639997" lon="10.2204685"><ele>392.0</ele><time>2026-04-10T05:18:19.242Z</time></trkpt><trkpt lat="45.6640905" lon="10.2204015"><ele>390.20000000000005</ele><time>2026-04-10T05:18:20.242Z</time></trkpt><trkpt lat="45.6641859" lon="10.2203462"><ele>388.4</ele><time>2026-04-10T05:18:21.241Z</time></trkpt><trkpt lat="45.6642792" lon="10.2202985"><ele>386.6</ele><time>2026-04-10T05:18:22.242Z</time></trkpt><trkpt lat="45.6643744" lon="10.2202608"><ele>384.79999999999995</ele><time>2026-04-10T05:18:23.242Z</time></trkpt><trkpt lat="45.6644671" lon="10.2202119"><ele>383.0</ele><time>2026-04-10T05:18:24.242Z</time></trkpt><trkpt lat="45.6645616" lon="10.2201612"><ele>383.0</ele><time>2026-04-10T05:18:25.242Z</time></trkpt><trkpt lat="45.6646538" lon="10.220109"><ele>383.0</ele><time>2026-04-10T05:18:26.241Z</time></trkpt><trkpt lat="45.664739" lon="10.2200577"><ele>383.0</ele><time>2026-04-10T05:18:27.242Z</time></trkpt><trkpt lat="45.664811" lon="10.2200008"><ele>383.0</ele><time>2026-04-10T05:18:28.241Z</time></trkpt><trkpt lat="45.66487" lon="10.2199262"><ele>383.0</ele><time>2026-04-10T05:18:29.242Z</time></trkpt><trkpt lat="45.6648959" lon="10.2198336"><ele>383.0</ele><time>2026-04-10T05:18:30.242Z</time></trkpt><trkpt lat="45.6648981" lon="10.2197384"><ele>383.0</ele><time>2026-04-10T05:18:31.242Z</time></trkpt><trkpt lat="45.6648839" lon="10.2196484"><ele>383.0</ele><time>2026-04-10T05:18:32.242Z</time></trkpt><trkpt lat="45.6648308" lon="10.2195057"><ele>383.0</ele><time>2026-04-10T05:18:34.242Z</time></trkpt><trkpt lat="45.6647951" lon="10.2194205"><ele>383.0</ele><time>2026-04-10T05:18:35.242Z</time></trkpt><trkpt lat="45.664761" lon="10.2193263"><ele>383.0</ele><time>2026-04-10T05:18:36.242Z</time></trkpt><trkpt lat="45.6647199" lon="10.2192255"><ele>383.0</ele><time>2026-04-10T05:18:37.242Z</time></trkpt><trkpt lat="45.6646783" lon="10.2191405"><ele>383.0</ele><time>2026-04-10T05:18:38.242Z</time></trkpt><trkpt lat="45.6646275" lon="10.2190536"><ele>383.0</ele><time>2026-04-10T05:18:39.242Z</time></trkpt><trkpt lat="45.6645486" lon="10.2189678"><ele>383.0</ele><time>2026-04-10T05:18:40.242Z</time></trkpt><trkpt lat="45.6644706" lon="10.2188784"><ele>383.0</ele><time>2026-04-10T05:18:41.241Z</time></trkpt><trkpt lat="45.6643865" lon="10.2187912"><ele>383.0</ele><time>2026-04-10T05:18:42.242Z</time></trkpt><trkpt lat="45.6642875" lon="10.2187091"><ele>381.4</ele><time>2026-04-10T05:18:43.242Z</time></trkpt><trkpt lat="45.6642" lon="10.2186143"><ele>379.79999999999995</ele><time>2026-04-10T05:18:44.242Z</time></trkpt><trkpt lat="45.6641147" lon="10.2185253"><ele>378.2</ele><time>2026-04-10T05:18:45.242Z</time></trkpt><trkpt lat="45.6640298" lon="10.2184362"><ele>376.6</ele><time>2026-04-10T05:18:46.241Z</time></trkpt><trkpt lat="45.663947" lon="10.2183502"><ele>375.0</ele><time>2026-04-10T05:18:47.242Z</time></trkpt><trkpt lat="45.6638662" lon="10.2182642"><ele>375.0</ele><time>2026-04-10T05:18:48.242Z</time></trkpt><trkpt lat="45.6637953" lon="10.2181864"><ele>375.0</ele><time>2026-04-10T05:18:49.241Z</time></trkpt><trkpt lat="45.6637313" lon="10.2181114"><ele>375.0</ele><time>2026-04-10T05:18:50.241Z</time></trkpt><trkpt lat="45.6636765" lon="10.2180199"><ele>375.0</ele><time>2026-04-10T05:18:51.242Z</time></trkpt><trkpt lat="45.6636238" lon="10.2179363"><ele>375.0</ele><time>2026-04-10T05:18:52.242Z</time></trkpt><trkpt lat="45.6635738" lon="10.2178698"><ele>375.0</ele><time>2026-04-10T05:18:53.241Z</time></trkpt><trkpt lat="45.6634603" lon="10.2177914"><ele>373.2</ele><time>2026-04-10T05:18:55.242Z</time></trkpt><trkpt lat="45.6634017" lon="10.2177311"><ele>371.4</ele><time>2026-04-10T05:18:56.242Z</time></trkpt><trkpt lat="45.663328" lon="10.2176359"><ele>369.6</ele><time>2026-04-10T05:18:57.242Z</time></trkpt><trkpt lat="45.6632343" lon="10.2175402"><ele>367.8</ele><time>2026-04-10T05:18:58.242Z</time></trkpt><trkpt lat="45.6631341" lon="10.2174541"><ele>366.0</ele><time>2026-04-10T05:18:59.241Z</time></trkpt><trkpt lat="45.6630336" lon="10.2173771"><ele>366.6</ele><time>2026-04-10T05:19:00.242Z</time></trkpt><trkpt lat="45.6629361" lon="10.2172885"><ele>367.20000000000005</ele><time>2026-04-10T05:19:01.241Z</time></trkpt><trkpt lat="45.6628404" lon="10.2171958"><ele>367.79999999999995</ele><time>2026-04-10T05:19:02.242Z</time></trkpt><trkpt lat="45.6627398" lon="10.217124"><ele>368.4</ele><time>2026-04-10T05:19:03.242Z</time></trkpt><trkpt lat="45.6626434" lon="10.2170671"><ele>369.0</ele><time>2026-04-10T05:19:04.242Z</time></trkpt><trkpt lat="45.6625487" lon="10.2170008"><ele>365.79999999999995</ele><time>2026-04-10T05:19:05.242Z</time></trkpt><trkpt lat="45.6624529" lon="10.2169366"><ele>362.59999999999997</ele><time>2026-04-10T05:19:06.241Z</time></trkpt><trkpt lat="45.6623703" lon="10.2168535"><ele>359.4</ele><time>2026-04-10T05:19:07.242Z</time></trkpt><trkpt lat="45.6623041" lon="10.2167547"><ele>356.2</ele><time>2026-04-10T05:19:08.242Z</time></trkpt><trkpt lat="45.6622542" lon="10.2166269"><ele>353.0</ele><time>2026-04-10T05:19:09.242Z</time></trkpt><trkpt lat="45.6622162" lon="10.2165068"><ele>354.2</ele><time>2026-04-10T05:19:10.242Z</time></trkpt><trkpt lat="45.6621811" lon="10.2163935"><ele>355.4</ele><time>2026-04-10T05:19:11.242Z</time></trkpt><trkpt lat="45.6621476" lon="10.2162759"><ele>356.59999999999997</ele><time>2026-04-10T05:19:12.242Z</time></trkpt><trkpt lat="45.6621074" lon="10.2161573"><ele>357.79999999999995</ele><time>2026-04-10T05:19:13.241Z</time></trkpt><trkpt lat="45.6620616" lon="10.2160287"><ele>359.0</ele><time>2026-04-10T05:19:14.241Z</time></trkpt><trkpt lat="45.6620099" lon="10.2158981"><ele>356.6</ele><time>2026-04-10T05:19:15.242Z</time></trkpt><trkpt lat="45.661937" lon="10.2157691"><ele>354.2</ele><time>2026-04-10T05:19:16.242Z</time></trkpt><trkpt lat="45.661865" lon="10.215653"><ele>351.8</ele><time>2026-04-10T05:19:17.242Z</time></trkpt><trkpt lat="45.6617965" lon="10.2155471"><ele>349.40000000000003</ele><time>2026-04-10T05:19:18.242Z</time></trkpt><trkpt lat="45.6617235" lon="10.2154504"><ele>347.0</ele><time>2026-04-10T05:19:19.241Z</time></trkpt><trkpt lat="45.6616579" lon="10.2153544"><ele>347.0</ele><time>2026-04-10T05:19:20.242Z</time></trkpt><trkpt lat="45.6615928" lon="10.2152615"><ele>347.0</ele><time>2026-04-10T05:19:21.242Z</time></trkpt><trkpt lat="45.661537" lon="10.2151632"><ele>347.0</ele><time>2026-04-10T05:19:22.242Z</time></trkpt><trkpt lat="45.6614838" lon="10.2150614"><ele>347.0</ele><time>2026-04-10T05:19:23.242Z</time></trkpt><trkpt lat="45.6614222" lon="10.2149547"><ele>347.0</ele><time>2026-04-10T05:19:24.242Z</time></trkpt><trkpt lat="45.6613615" lon="10.214836"><ele>348.25</ele><time>2026-04-10T05:19:25.242Z</time></trkpt><trkpt lat="45.6612885" lon="10.2147145"><ele>349.5</ele><time>2026-04-10T05:19:26.242Z</time></trkpt><trkpt lat="45.6612175" lon="10.2145845"><ele>350.75</ele><time>2026-04-10T05:19:27.242Z</time></trkpt><trkpt lat="45.6611501" lon="10.2144473"><ele>352.0</ele><time>2026-04-10T05:19:28.242Z</time></trkpt><trkpt lat="45.6610828" lon="10.2143296"><ele>348.66666666666663</ele><time>2026-04-10T05:19:29.242Z</time></trkpt><trkpt lat="45.6610193" lon="10.2142041"><ele>345.3333333333333</ele><time>2026-04-10T05:19:30.242Z</time></trkpt><trkpt lat="45.6609588" lon="10.2140921"><ele>342.0</ele><time>2026-04-10T05:19:31.242Z</time></trkpt><trkpt lat="45.6609098" lon="10.2139902"><ele>338.6666666666667</ele><time>2026-04-10T05:19:32.242Z</time></trkpt><trkpt lat="45.6608603" lon="10.2139058"><ele>335.33333333333337</ele><time>2026-04-10T05:19:33.242Z</time></trkpt><trkpt lat="45.6608121" lon="10.2138327"><ele>332.0</ele><time>2026-04-10T05:19:34.241Z</time></trkpt><trkpt lat="45.6607679" lon="10.2137619"><ele>331.8</ele><time>2026-04-10T05:19:35.241Z</time></trkpt><trkpt lat="45.6607319" lon="10.2136744"><ele>331.6</ele><time>2026-04-10T05:19:36.241Z</time></trkpt><trkpt lat="45.6607013" lon="10.2135695"><ele>331.40000000000003</ele><time>2026-04-10T05:19:37.241Z</time></trkpt><trkpt lat="45.6606598" lon="10.2134632"><ele>331.20000000000005</ele><time>2026-04-10T05:19:38.24Z</time></trkpt><trkpt lat="45.6606039" lon="10.2133491"><ele>331.0</ele><time>2026-04-10T05:19:39.241Z</time></trkpt><trkpt lat="45.6605457" lon="10.2132033"><ele>331.5</ele><time>2026-04-10T05:19:40.241Z</time></trkpt><trkpt lat="45.6605001" lon="10.213021"><ele>332.0</ele><time>2026-04-10T05:19:41.241Z</time></trkpt><trkpt lat="45.6604508" lon="10.2128293"><ele>332.5</ele><time>2026-04-10T05:19:42.24Z</time></trkpt><trkpt lat="45.6604104" lon="10.2126364"><ele>333.0</ele><time>2026-04-10T05:19:43.24Z</time></trkpt><trkpt lat="45.6603653" lon="10.2124708"><ele>334.5</ele><time>2026-04-10T05:19:44.241Z</time></trkpt><trkpt lat="45.6603229" lon="10.2122954"><ele>336.0</ele><time>2026-04-10T05:19:45.241Z</time></trkpt><trkpt lat="45.6602814" lon="10.2121141"><ele>337.5</ele><time>2026-04-10T05:19:46.24Z</time></trkpt><trkpt lat="45.660237" lon="10.211943"><ele>339.0</ele><time>2026-04-10T05:19:47.241Z</time></trkpt><trkpt lat="45.6601916" lon="10.2117659"><ele>335.75</ele><time>2026-04-10T05:19:48.241Z</time></trkpt><trkpt lat="45.660141" lon="10.2115998"><ele>332.5</ele><time>2026-04-10T05:19:49.241Z</time></trkpt><trkpt lat="45.6600784" lon="10.2114407"><ele>329.25</ele><time>2026-04-10T05:19:50.241Z</time></trkpt><trkpt lat="45.6599983" lon="10.2112954"><ele>326.0</ele><time>2026-04-10T05:19:51.241Z</time></trkpt><trkpt lat="45.6599129" lon="10.2111622"><ele>325.0</ele><time>2026-04-10T05:19:52.241Z</time></trkpt><trkpt lat="45.65983" lon="10.211025"><ele>324.0</ele><time>2026-04-10T05:19:53.24Z</time></trkpt><trkpt lat="45.6597553" lon="10.2108834"><ele>323.0</ele><time>2026-04-10T05:19:54.24Z</time></trkpt><trkpt lat="45.6596881" lon="10.2107531"><ele>322.0</ele><time>2026-04-10T05:19:55.24Z</time></trkpt><trkpt lat="45.6596148" lon="10.2106295"><ele>320.6</ele><time>2026-04-10T05:19:56.241Z</time></trkpt><trkpt lat="45.6595459" lon="10.2105215"><ele>319.20000000000005</ele><time>2026-04-10T05:19:57.241Z</time></trkpt><trkpt lat="45.6594836" lon="10.2104088"><ele>317.8</ele><time>2026-04-10T05:19:58.24Z</time></trkpt><trkpt lat="45.6594255" lon="10.2102985"><ele>316.4</ele><time>2026-04-10T05:19:59.241Z</time></trkpt><trkpt lat="45.6593609" lon="10.210194"><ele>315.0</ele><time>2026-04-10T05:20:00.241Z</time></trkpt><trkpt lat="45.6592976" lon="10.2100881"><ele>315.0</ele><time>2026-04-10T05:20:01.241Z</time></trkpt><trkpt lat="45.6592358" lon="10.2099783"><ele>315.0</ele><time>2026-04-10T05:20:02.24Z</time></trkpt><trkpt lat="45.6591633" lon="10.2098687"><ele>315.0</ele><time>2026-04-10T05:20:03.24Z</time></trkpt><trkpt lat="45.6590858" lon="10.2097682"><ele>315.0</ele><time>2026-04-10T05:20:04.241Z</time></trkpt><trkpt lat="45.658996" lon="10.2096747"><ele>315.0</ele><time>2026-04-10T05:20:05.241Z</time></trkpt><trkpt lat="45.6588958" lon="10.2095907"><ele>314.0</ele><time>2026-04-10T05:20:06.241Z</time></trkpt><trkpt lat="45.658784" lon="10.2095002"><ele>313.0</ele><time>2026-04-10T05:20:07.24Z</time></trkpt><trkpt lat="45.6586816" lon="10.2094052"><ele>312.0</ele><time>2026-04-10T05:20:08.241Z</time></trkpt><trkpt lat="45.6585982" lon="10.2093156"><ele>311.0</ele><time>2026-04-10T05:20:09.241Z</time></trkpt><trkpt lat="45.6585177" lon="10.2092247"><ele>311.0</ele><time>2026-04-10T05:20:10.24Z</time></trkpt><trkpt lat="45.6584402" lon="10.2091473"><ele>311.0</ele><time>2026-04-10T05:20:11.24Z</time></trkpt><trkpt lat="45.6583766" lon="10.2090564"><ele>311.0</ele><time>2026-04-10T05:20:12.24Z</time></trkpt><trkpt lat="45.6583226" lon="10.2089712"><ele>311.0</ele><time>2026-04-10T05:20:13.24Z</time></trkpt><trkpt lat="45.6582607" lon="10.2088786"><ele>311.0</ele><time>2026-04-10T05:20:14.241Z</time></trkpt><trkpt lat="45.6581921" lon="10.2087629"><ele>311.75</ele><time>2026-04-10T05:20:15.24Z</time></trkpt><trkpt lat="45.6581149" lon="10.2086194"><ele>312.5</ele><time>2026-04-10T05:20:16.241Z</time></trkpt><trkpt lat="45.6580488" lon="10.2084619"><ele>313.25</ele><time>2026-04-10T05:20:17.241Z</time></trkpt><trkpt lat="45.6579939" lon="10.2082977"><ele>314.0</ele><time>2026-04-10T05:20:18.241Z</time></trkpt><trkpt lat="45.6579438" lon="10.208148"><ele>311.75</ele><time>2026-04-10T05:20:19.24Z</time></trkpt><trkpt lat="45.6578993" lon="10.207993"><ele>309.5</ele><time>2026-04-10T05:20:20.24Z</time></trkpt><trkpt lat="45.6578413" lon="10.207847"><ele>307.25</ele><time>2026-04-10T05:20:21.241Z</time></trkpt><trkpt lat="45.6577716" lon="10.2077046"><ele>305.0</ele><time>2026-04-10T05:20:22.241Z</time></trkpt><trkpt lat="45.657695" lon="10.2075658"><ele>305.0</ele><time>2026-04-10T05:20:23.24Z</time></trkpt><trkpt lat="45.6576191" lon="10.2074509"><ele>305.0</ele><time>2026-04-10T05:20:24.241Z</time></trkpt><trkpt lat="45.6575396" lon="10.2073468"><ele>305.0</ele><time>2026-04-10T05:20:25.241Z</time></trkpt><trkpt lat="45.6574602" lon="10.2072464"><ele>305.0</ele><time>2026-04-10T05:20:26.24Z</time></trkpt><trkpt lat="45.6573786" lon="10.2071431"><ele>305.0</ele><time>2026-04-10T05:20:27.241Z</time></trkpt><trkpt lat="45.6572931" lon="10.2070286"><ele>306.5</ele><time>2026-04-10T05:20:28.24Z</time></trkpt><trkpt lat="45.6571976" lon="10.2069199"><ele>308.0</ele><time>2026-04-10T05:20:29.24Z</time></trkpt><trkpt lat="45.6570991" lon="10.2068123"><ele>309.5</ele><time>2026-04-10T05:20:30.241Z</time></trkpt><trkpt lat="45.6570013" lon="10.206719"><ele>311.0</ele><time>2026-04-10T05:20:31.241Z</time></trkpt><trkpt lat="45.6569066" lon="10.2066403"><ele>309.6</ele><time>2026-04-10T05:20:32.24Z</time></trkpt><trkpt lat="45.6568174" lon="10.206568"><ele>308.20000000000005</ele><time>2026-04-10T05:20:33.241Z</time></trkpt><trkpt lat="45.6567333" lon="10.2064994"><ele>306.79999999999995</ele><time>2026-04-10T05:20:34.24Z</time></trkpt><trkpt lat="45.656648" lon="10.2064295"><ele>305.4</ele><time>2026-04-10T05:20:35.24Z</time></trkpt><trkpt lat="45.656566" lon="10.2063662"><ele>304.0</ele><time>2026-04-10T05:20:36.241Z</time></trkpt><trkpt lat="45.6564877" lon="10.2062935"><ele>304.0</ele><time>2026-04-10T05:20:37.241Z</time></trkpt><trkpt lat="45.656415" lon="10.2062189"><ele>304.0</ele><time>2026-04-10T05:20:38.24Z</time></trkpt><trkpt lat="45.6563345" lon="10.2061449"><ele>304.0</ele><time>2026-04-10T05:20:39.24Z</time></trkpt><trkpt lat="45.6562491" lon="10.2060738"><ele>304.0</ele><time>2026-04-10T05:20:40.241Z</time></trkpt><trkpt lat="45.6561625" lon="10.2059956"><ele>304.0</ele><time>2026-04-10T05:20:41.241Z</time></trkpt><trkpt lat="45.656069" lon="10.2058781"><ele>302.0</ele><time>2026-04-10T05:20:42.241Z</time></trkpt><trkpt lat="45.6559713" lon="10.2057208"><ele>300.0</ele><time>2026-04-10T05:20:43.241Z</time></trkpt><trkpt lat="45.6558918" lon="10.205558"><ele>298.0</ele><time>2026-04-10T05:20:44.24Z</time></trkpt><trkpt lat="45.6558286" lon="10.2053986"><ele>296.0</ele><time>2026-04-10T05:20:45.241Z</time></trkpt><trkpt lat="45.6557662" lon="10.2052406"><ele>296.0</ele><time>2026-04-10T05:20:46.241Z</time></trkpt><trkpt lat="45.6557111" lon="10.205093"><ele>296.0</ele><time>2026-04-10T05:20:47.24Z</time></trkpt><trkpt lat="45.6556537" lon="10.2049526"><ele>296.0</ele><time>2026-04-10T05:20:48.24Z</time></trkpt><trkpt lat="45.6555961" lon="10.2048258"><ele>296.0</ele><time>2026-04-10T05:20:49.241Z</time></trkpt><trkpt lat="45.6555441" lon="10.20469"><ele>296.0</ele><time>2026-04-10T05:20:50.241Z</time></trkpt><trkpt lat="45.6554878" lon="10.2045524"><ele>297.2</ele><time>2026-04-10T05:20:51.24Z</time></trkpt><trkpt lat="45.6554284" lon="10.2044182"><ele>298.40000000000003</ele><time>2026-04-10T05:20:52.241Z</time></trkpt><trkpt lat="45.6553963" lon="10.2042702"><ele>299.6</ele><time>2026-04-10T05:20:53.241Z</time></trkpt><trkpt lat="45.6553812" lon="10.2041329"><ele>300.8</ele><time>2026-04-10T05:20:54.24Z</time></trkpt><trkpt lat="45.6553632" lon="10.2040061"><ele>302.0</ele><time>2026-04-10T05:20:55.241Z</time></trkpt><trkpt lat="45.655359" lon="10.2038759"><ele>302.33333333333337</ele><time>2026-04-10T05:20:56.241Z</time></trkpt><trkpt lat="45.6553448" lon="10.2037542"><ele>302.6666666666667</ele><time>2026-04-10T05:20:57.24Z</time></trkpt><trkpt lat="45.6553309" lon="10.2036439"><ele>303.0</ele><time>2026-04-10T05:20:58.241Z</time></trkpt><trkpt lat="45.6553223" lon="10.2035429"><ele>303.3333333333333</ele><time>2026-04-10T05:20:59.241Z</time></trkpt><trkpt lat="45.6553071" lon="10.2034391"><ele>303.66666666666663</ele><time>2026-04-10T05:21:00.241Z</time></trkpt><trkpt lat="45.655297" lon="10.2033299"><ele>304.0</ele><time>2026-04-10T05:21:01.241Z</time></trkpt><trkpt lat="45.6552656" lon="10.2032256"><ele>299.66666666666663</ele><time>2026-04-10T05:21:02.241Z</time></trkpt><trkpt lat="45.6552279" lon="10.2031213"><ele>295.3333333333333</ele><time>2026-04-10T05:21:03.24Z</time></trkpt><trkpt lat="45.6551951" lon="10.2030235"><ele>291.0</ele><time>2026-04-10T05:21:04.241Z</time></trkpt><trkpt lat="45.6551582" lon="10.2029451"><ele>286.6666666666667</ele><time>2026-04-10T05:21:05.241Z</time></trkpt><trkpt lat="45.6551257" lon="10.2027962"><ele>282.33333333333337</ele><time>2026-04-10T05:21:07.241Z</time></trkpt><trkpt lat="45.6551539" lon="10.2026481"><ele>278.0</ele><time>2026-04-10T05:21:09.24Z</time></trkpt><trkpt lat="45.6551196" lon="10.2025528"><ele>278.0</ele><time>2026-04-10T05:21:11.24Z</time></trkpt><trkpt lat="45.6550004" lon="10.2024915"><ele>278.0</ele><time>2026-04-10T05:21:13.24Z</time></trkpt><trkpt lat="45.6549229" lon="10.2023717"><ele>278.0</ele><time>2026-04-10T05:21:15.241Z</time></trkpt><trkpt lat="45.6548848" lon="10.2022772"><ele>278.0</ele><time>2026-04-10T05:21:16.241Z</time></trkpt><trkpt lat="45.6548485" lon="10.2021684"><ele>278.0</ele><time>2026-04-10T05:21:17.241Z</time></trkpt><trkpt lat="45.6548166" lon="10.2020573"><ele>277.33333333333337</ele><time>2026-04-10T05:21:18.241Z</time></trkpt><trkpt lat="45.6547854" lon="10.2019557"><ele>276.6666666666667</ele><time>2026-04-10T05:21:19.241Z</time></trkpt><trkpt lat="45.6547616" lon="10.2018601"><ele>276.0</ele><time>2026-04-10T05:21:20.241Z</time></trkpt><trkpt lat="45.6547272" lon="10.201766"><ele>275.3333333333333</ele><time>2026-04-10T05:21:21.241Z</time></trkpt><trkpt lat="45.6546894" lon="10.2016711"><ele>274.66666666666663</ele><time>2026-04-10T05:21:22.241Z</time></trkpt><trkpt lat="45.6546589" lon="10.2015509"><ele>274.0</ele><time>2026-04-10T05:21:23.24Z</time></trkpt><trkpt lat="45.6546257" lon="10.2014252"><ele>273.4</ele><time>2026-04-10T05:21:24.241Z</time></trkpt><trkpt lat="45.6545802" lon="10.2012735"><ele>272.79999999999995</ele><time>2026-04-10T05:21:25.241Z</time></trkpt><trkpt lat="45.6545246" lon="10.201133"><ele>272.20000000000005</ele><time>2026-04-10T05:21:26.241Z</time></trkpt><trkpt lat="45.6544801" lon="10.2009975"><ele>271.6</ele><time>2026-04-10T05:21:27.241Z</time></trkpt><trkpt lat="45.6544297" lon="10.2008682"><ele>271.0</ele><time>2026-04-10T05:21:28.241Z</time></trkpt><trkpt lat="45.6543905" lon="10.2007435"><ele>270.40000000000003</ele><time>2026-04-10T05:21:29.241Z</time></trkpt><trkpt lat="45.6543495" lon="10.2006363"><ele>269.8</ele><time>2026-04-10T05:21:30.241Z</time></trkpt><trkpt lat="45.6543176" lon="10.2005432"><ele>269.20000000000005</ele><time>2026-04-10T05:21:31.241Z</time></trkpt><trkpt lat="45.6542866" lon="10.2004083"><ele>268.6</ele><time>2026-04-10T05:21:33.241Z</time></trkpt><trkpt lat="45.6542494" lon="10.2003023"><ele>268.0</ele><time>2026-04-10T05:21:36.24Z</time></trkpt><trkpt lat="45.6542054" lon="10.2001565"><ele>268.0</ele><time>2026-04-10T05:21:38.241Z</time></trkpt><trkpt lat="45.6542095" lon="10.2000622"><ele>268.0</ele><time>2026-04-10T05:21:39.24Z</time></trkpt><trkpt lat="45.6542267" lon="10.1999658"><ele>268.0</ele><time>2026-04-10T05:21:40.241Z</time></trkpt><trkpt lat="45.6542601" lon="10.199872"><ele>268.0</ele><time>2026-04-10T05:21:41.241Z</time></trkpt><trkpt lat="45.6543057" lon="10.1997955"><ele>268.0</ele><time>2026-04-10T05:21:42.241Z</time></trkpt><trkpt lat="45.6543975" lon="10.1997344"><ele>268.0</ele><time>2026-04-10T05:21:43.241Z</time></trkpt><trkpt lat="45.6545149" lon="10.1996739"><ele>267.66666666666663</ele><time>2026-04-10T05:21:44.241Z</time></trkpt><trkpt lat="45.65466" lon="10.199604"><ele>267.3333333333333</ele><time>2026-04-10T05:21:45.241Z</time></trkpt><trkpt lat="45.6548279" lon="10.1995442"><ele>267.0</ele><time>2026-04-10T05:21:46.241Z</time></trkpt><trkpt lat="45.6550257" lon="10.1994833"><ele>267.0</ele><time>2026-04-10T05:21:47.241Z</time></trkpt><trkpt lat="45.6552411" lon="10.1994289"><ele>267.0</ele><time>2026-04-10T05:21:48.241Z</time></trkpt><trkpt lat="45.6554609" lon="10.1993636"><ele>267.0</ele><time>2026-04-10T05:21:49.241Z</time></trkpt><trkpt lat="45.6556862" lon="10.1992935"><ele>269.0</ele><time>2026-04-10T05:21:50.24Z</time></trkpt><trkpt lat="45.655921" lon="10.1992189"><ele>271.0</ele><time>2026-04-10T05:21:51.241Z</time></trkpt><trkpt lat="45.6561264" lon="10.1991535"><ele>271.0</ele><time>2026-04-10T05:21:52.241Z</time></trkpt><trkpt lat="45.6563044" lon="10.1991014"><ele>271.0</ele><time>2026-04-10T05:21:53.24Z</time></trkpt><trkpt lat="45.6564723" lon="10.1990431"><ele>271.0</ele><time>2026-04-10T05:21:54.241Z</time></trkpt><trkpt lat="45.6566333" lon="10.1989756"><ele>271.0</ele><time>2026-04-10T05:21:55.24Z</time></trkpt><trkpt lat="45.6567898" lon="10.1989181"><ele>271.0</ele><time>2026-04-10T05:21:56.241Z</time></trkpt><trkpt lat="45.6569423" lon="10.1988549"><ele>271.0</ele><time>2026-04-10T05:21:57.241Z</time></trkpt><trkpt lat="45.6570989" lon="10.1987984"><ele>271.0</ele><time>2026-04-10T05:21:58.24Z</time></trkpt><trkpt lat="45.65726" lon="10.198739"><ele>271.0</ele><time>2026-04-10T05:21:59.241Z</time></trkpt><trkpt lat="45.657433" lon="10.1986633"><ele>271.0</ele><time>2026-04-10T05:22:00.241Z</time></trkpt><trkpt lat="45.6576132" lon="10.1985792"><ele>271.3333333333333</ele><time>2026-04-10T05:22:01.241Z</time></trkpt><trkpt lat="45.6578075" lon="10.1984951"><ele>271.6666666666667</ele><time>2026-04-10T05:22:02.241Z</time></trkpt><trkpt lat="45.6580071" lon="10.1984131"><ele>272.0</ele><time>2026-04-10T05:22:03.241Z</time></trkpt><trkpt lat="45.6582205" lon="10.1983249"><ele>272.0</ele><time>2026-04-10T05:22:04.241Z</time></trkpt><trkpt lat="45.6584397" lon="10.1982409"><ele>272.0</ele><time>2026-04-10T05:22:05.241Z</time></trkpt><trkpt lat="45.6586445" lon="10.198167"><ele>272.0</ele><time>2026-04-10T05:22:06.241Z</time></trkpt><trkpt lat="45.658832" lon="10.198107"><ele>272.0</ele><time>2026-04-10T05:22:07.241Z</time></trkpt><trkpt lat="45.6590003" lon="10.1980384"><ele>272.0</ele><time>2026-04-10T05:22:08.24Z</time></trkpt><trkpt lat="45.6591548" lon="10.1979887"><ele>272.0</ele><time>2026-04-10T05:22:09.241Z</time></trkpt><trkpt lat="45.6592878" lon="10.1979493"><ele>272.0</ele><time>2026-04-10T05:22:10.24Z</time></trkpt><trkpt lat="45.6593954" lon="10.1979098"><ele>272.0</ele><time>2026-04-10T05:22:11.241Z</time></trkpt><trkpt lat="45.659499" lon="10.1978989"><ele>272.0</ele><time>2026-04-10T05:22:12.24Z</time></trkpt><trkpt lat="45.6595857" lon="10.1979234"><ele>272.0</ele><time>2026-04-10T05:22:13.241Z</time></trkpt><trkpt lat="45.659666" lon="10.1979626"><ele>272.0</ele><time>2026-04-10T05:22:14.241Z</time></trkpt><trkpt lat="45.6597309" lon="10.1979855"><ele>272.1666666666667</ele><time>2026-04-10T05:22:15.241Z</time></trkpt><trkpt lat="45.6597957" lon="10.1979549"><ele>272.33333333333337</ele><time>2026-04-10T05:22:16.241Z</time></trkpt><trkpt lat="45.6598524" lon="10.1978822"><ele>272.5</ele><time>2026-04-10T05:22:17.241Z</time></trkpt><trkpt lat="45.6598831" lon="10.1977863"><ele>272.6666666666667</ele><time>2026-04-10T05:22:18.241Z</time></trkpt><trkpt lat="45.6598835" lon="10.197693"><ele>272.8333333333333</ele><time>2026-04-10T05:22:19.24Z</time></trkpt><trkpt lat="45.6598049" lon="10.1975705"><ele>273.0</ele><time>2026-04-10T05:22:21.24Z</time></trkpt><trkpt lat="45.659735" lon="10.1975502"><ele>273.0</ele><time>2026-04-10T05:22:22.24Z</time></trkpt><trkpt lat="45.6596504" lon="10.1975829"><ele>273.0</ele><time>2026-04-10T05:22:23.241Z</time></trkpt><trkpt lat="45.659579" lon="10.1976386"><ele>273.0</ele><time>2026-04-10T05:22:24.24Z</time></trkpt><trkpt lat="45.6595" lon="10.197706"><ele>273.0</ele><time>2026-04-10T05:22:25.241Z</time></trkpt><trkpt lat="45.659391" lon="10.1977784"><ele>273.0</ele><time>2026-04-10T05:22:26.241Z</time></trkpt><trkpt lat="45.6592548" lon="10.1978331"><ele>272.6666666666667</ele><time>2026-04-10T05:22:27.24Z</time></trkpt><trkpt lat="45.6591008" lon="10.1979132"><ele>272.33333333333337</ele><time>2026-04-10T05:22:28.241Z</time></trkpt><trkpt lat="45.6589279" lon="10.1979944"><ele>272.0</ele><time>2026-04-10T05:22:29.24Z</time></trkpt><trkpt lat="45.6587367" lon="10.1980778"><ele>272.0</ele><time>2026-04-10T05:22:30.241Z</time></trkpt><trkpt lat="45.6585244" lon="10.1981611"><ele>272.0</ele><time>2026-04-10T05:22:31.241Z</time></trkpt><trkpt lat="45.6583117" lon="10.1982504"><ele>272.0</ele><time>2026-04-10T05:22:32.241Z</time></trkpt><trkpt lat="45.658102" lon="10.1983407"><ele>272.0</ele><time>2026-04-10T05:22:33.241Z</time></trkpt><trkpt lat="45.6579056" lon="10.1984181"><ele>272.0</ele><time>2026-04-10T05:22:34.241Z</time></trkpt><trkpt lat="45.6577134" lon="10.1984861"><ele>272.0</ele><time>2026-04-10T05:22:35.241Z</time></trkpt><trkpt lat="45.6575087" lon="10.198571"><ele>271.6666666666667</ele><time>2026-04-10T05:22:36.24Z</time></trkpt><trkpt lat="45.6573208" lon="10.1986425"><ele>271.3333333333333</ele><time>2026-04-10T05:22:37.241Z</time></trkpt><trkpt lat="45.6571473" lon="10.198711"><ele>271.0</ele><time>2026-04-10T05:22:38.24Z</time></trkpt><trkpt lat="45.6569813" lon="10.1987742"><ele>270.3333333333333</ele><time>2026-04-10T05:22:39.241Z</time></trkpt><trkpt lat="45.6568271" lon="10.1988373"><ele>269.6666666666667</ele><time>2026-04-10T05:22:40.241Z</time></trkpt><trkpt lat="45.6566686" lon="10.1988895"><ele>269.0</ele><time>2026-04-10T05:22:41.241Z</time></trkpt><trkpt lat="45.6565232" lon="10.1989463"><ele>269.0</ele><time>2026-04-10T05:22:42.24Z</time></trkpt><trkpt lat="45.656404" lon="10.1989792"><ele>269.0</ele><time>2026-04-10T05:22:43.241Z</time></trkpt><trkpt lat="45.656309" lon="10.1990071"><ele>269.0</ele><time>2026-04-10T05:22:44.241Z</time></trkpt><trkpt lat="45.6562268" lon="10.1990362"><ele>269.0</ele><time>2026-04-10T05:22:45.24Z</time></trkpt><trkpt lat="45.6561474" lon="10.1990635"><ele>269.0</ele><time>2026-04-10T05:22:46.24Z</time></trkpt><trkpt lat="45.6560589" lon="10.1990971"><ele>269.4</ele><time>2026-04-10T05:22:47.241Z</time></trkpt><trkpt lat="45.6559483" lon="10.1991331"><ele>269.79999999999995</ele><time>2026-04-10T05:22:48.241Z</time></trkpt><trkpt lat="45.6558379" lon="10.199164"><ele>270.20000000000005</ele><time>2026-04-10T05:22:49.24Z</time></trkpt><trkpt lat="45.6557354" lon="10.1991945"><ele>270.6</ele><time>2026-04-10T05:22:50.241Z</time></trkpt><trkpt lat="45.6556454" lon="10.1992263"><ele>271.0</ele><time>2026-04-10T05:22:51.241Z</time></trkpt><trkpt lat="45.6555533" lon="10.19925"><ele>271.0</ele><time>2026-04-10T05:22:52.241Z</time></trkpt><trkpt lat="45.6554727" lon="10.1992667"><ele>271.0</ele><time>2026-04-10T05:22:53.241Z</time></trkpt><trkpt lat="45.6554098" lon="10.1992751"><ele>271.0</ele><time>2026-04-10T05:22:54.24Z</time></trkpt><trkpt lat="45.6553257" lon="10.1991967"><ele>271.0</ele><time>2026-04-10T05:22:56.241Z</time></trkpt><trkpt lat="45.6553378" lon="10.1990971"><ele>271.0</ele><time>2026-04-10T05:22:57.241Z</time></trkpt><trkpt lat="45.6553591" lon="10.1989937"><ele>271.0</ele><time>2026-04-10T05:22:58.24Z</time></trkpt><trkpt lat="45.6553647" lon="10.1988627"><ele>270.0</ele><time>2026-04-10T05:22:59.241Z</time></trkpt><trkpt lat="45.6553471" lon="10.1986588"><ele>269.0</ele><time>2026-04-10T05:23:00.241Z</time></trkpt><trkpt lat="45.655321" lon="10.1984292"><ele>268.0</ele><time>2026-04-10T05:23:01.241Z</time></trkpt><trkpt lat="45.6552749" lon="10.198167"><ele>267.0</ele><time>2026-04-10T05:23:02.241Z</time></trkpt><trkpt lat="45.6552313" lon="10.1978731"><ele>266.0</ele><time>2026-04-10T05:23:03.24Z</time></trkpt><trkpt lat="45.6552061" lon="10.1975971"><ele>265.0</ele><time>2026-04-10T05:23:04.241Z</time></trkpt><trkpt lat="45.6551747" lon="10.1973564"><ele>265.25</ele><time>2026-04-10T05:23:05.241Z</time></trkpt><trkpt lat="45.6551386" lon="10.1971482"><ele>265.5</ele><time>2026-04-10T05:23:06.241Z</time></trkpt><trkpt lat="45.6551135" lon="10.1969558"><ele>265.75</ele><time>2026-04-10T05:23:07.241Z</time></trkpt><trkpt lat="45.6550856" lon="10.1967807"><ele>266.0</ele><time>2026-04-10T05:23:08.241Z</time></trkpt><trkpt lat="45.6550512" lon="10.1966268"><ele>270.8</ele><time>2026-04-10T05:23:09.241Z</time></trkpt><trkpt lat="45.6550328" lon="10.1964874"><ele>275.6</ele><time>2026-04-10T05:23:10.241Z</time></trkpt><trkpt lat="45.6549974" lon="10.1963757"><ele>280.4</ele><time>2026-04-10T05:23:11.241Z</time></trkpt><trkpt lat="45.6549603" lon="10.1962799"><ele>285.2</ele><time>2026-04-10T05:23:12.241Z</time></trkpt><trkpt lat="45.654876" lon="10.1962092"><ele>290.0</ele><time>2026-04-10T05:23:14.24Z</time></trkpt><trkpt lat="45.6547811" lon="10.1962941"><ele>290.0</ele><time>2026-04-10T05:23:16.24Z</time></trkpt><trkpt lat="45.6546832" lon="10.1964312"><ele>290.0</ele><time>2026-04-10T05:23:17.24Z</time></trkpt><trkpt lat="45.6545791" lon="10.1965728"><ele>290.0</ele><time>2026-04-10T05:23:18.241Z</time></trkpt><trkpt lat="45.6544926" lon="10.1966861"><ele>290.0</ele><time>2026-04-10T05:23:19.24Z</time></trkpt><trkpt lat="45.6544095" lon="10.1967845"><ele>286.2</ele><time>2026-04-10T05:23:20.241Z</time></trkpt><trkpt lat="45.6543138" lon="10.1968605"><ele>282.4</ele><time>2026-04-10T05:23:21.241Z</time></trkpt><trkpt lat="45.6542218" lon="10.1969094"><ele>278.6</ele><time>2026-04-10T05:23:22.241Z</time></trkpt><trkpt lat="45.6541238" lon="10.1969672"><ele>274.8</ele><time>2026-04-10T05:23:23.241Z</time></trkpt><trkpt lat="45.65404" lon="10.19701"><ele>271.0</ele><time>2026-04-10T05:23:24.24Z</time></trkpt><trkpt lat="45.6539653" lon="10.1970419"><ele>271.0</ele><time>2026-04-10T05:23:25.241Z</time></trkpt><trkpt lat="45.6538861" lon="10.1970618"><ele>271.0</ele><time>2026-04-10T05:23:26.241Z</time></trkpt><trkpt lat="45.65382" lon="10.1970775"><ele>271.0</ele><time>2026-04-10T05:23:27.24Z</time></trkpt><trkpt lat="45.6537458" lon="10.1970879"><ele>271.0</ele><time>2026-04-10T05:23:28.24Z</time></trkpt><trkpt lat="45.6536646" lon="10.1970938"><ele>271.0</ele><time>2026-04-10T05:23:29.241Z</time></trkpt><trkpt lat="45.6535879" lon="10.1970973"><ele>271.0</ele><time>2026-04-10T05:23:30.241Z</time></trkpt><trkpt lat="45.6535029" lon="10.1971091"><ele>274.8333333333333</ele><time>2026-04-10T05:23:31.241Z</time></trkpt><trkpt lat="45.6534127" lon="10.1971126"><ele>278.66666666666663</ele><time>2026-04-10T05:23:32.24Z</time></trkpt><trkpt lat="45.6533282" lon="10.1971219"><ele>282.5</ele><time>2026-04-10T05:23:33.241Z</time></trkpt><trkpt lat="45.6532406" lon="10.1971268"><ele>286.3333333333333</ele><time>2026-04-10T05:23:34.241Z</time></trkpt><trkpt lat="45.6531729" lon="10.1971381"><ele>290.1666666666667</ele><time>2026-04-10T05:23:35.241Z</time></trkpt><trkpt lat="45.6531089" lon="10.1971838"><ele>294.0</ele><time>2026-04-10T05:23:37.241Z</time></trkpt><trkpt lat="45.6531168" lon="10.1972774"><ele>288.0</ele><time>2026-04-10T05:23:39.24Z</time></trkpt><trkpt lat="45.6531308" lon="10.1973835"><ele>282.0</ele><time>2026-04-10T05:23:42.241Z</time></trkpt><trkpt lat="45.6530995" lon="10.197498"><ele>276.0</ele><time>2026-04-10T05:25:18.24Z</time></trkpt><trkpt lat="45.6531051" lon="10.1976638"><ele>270.0</ele><time>2026-04-10T05:25:20.24Z</time></trkpt><trkpt lat="45.6530389" lon="10.1978012"><ele>264.0</ele><time>2026-04-10T05:25:22.24Z</time></trkpt><trkpt lat="45.6529839" lon="10.1978755"><ele>264.0</ele><time>2026-04-10T05:25:23.24Z</time></trkpt><trkpt lat="45.6528859" lon="10.1979447"><ele>264.0</ele><time>2026-04-10T05:25:24.24Z</time></trkpt><trkpt lat="45.6528027" lon="10.1979898"><ele>264.0</ele><time>2026-04-10T05:25:25.239Z</time></trkpt><trkpt lat="45.6527353" lon="10.1980147"><ele>264.0</ele><time>2026-04-10T05:25:26.24Z</time></trkpt><trkpt lat="45.6526762" lon="10.198111"><ele>264.0</ele><time>2026-04-10T05:25:28.24Z</time></trkpt><trkpt lat="45.6526973" lon="10.1982085"><ele>264.0</ele><time>2026-04-10T05:25:31.24Z</time></trkpt><trkpt lat="45.6526799" lon="10.1981191"><ele>264.6666666666667</ele><time>2026-04-10T05:28:57.239Z</time></trkpt><trkpt lat="45.6526568" lon="10.1980276"><ele>265.3333333333333</ele><time>2026-04-10T05:29:02.239Z</time></trkpt><trkpt lat="45.6526704" lon="10.197937"><ele>266.0</ele><time>2026-04-10T05:29:11.24Z</time></trkpt><trkpt lat="45.6526111" lon="10.1979023"><ele>266.66666666666663</ele><time>2026-04-10T05:29:20.24Z</time></trkpt><trkpt lat="45.6526516" lon="10.1978309"><ele>267.3333333333333</ele><time>2026-04-10T05:29:28.323Z</time></trkpt><trkpt lat="45.6525158" lon="10.1979646"><ele>268.0</ele><time>2026-04-10T05:29:44.127Z</time></trkpt><trkpt lat="45.6525321" lon="10.1980529"><ele>268.0</ele><time>2026-04-10T05:30:12.273Z</time></trkpt><trkpt lat="45.6525034" lon="10.197969"><ele>268.0</ele><time>2026-04-10T05:40:22.55Z</time></trkpt><trkpt lat="45.6525523" lon="10.1979075"><ele>268.0</ele><time>2026-04-10T05:40:27.727Z</time></trkpt><trkpt lat="45.6525024" lon="10.197969"><ele>268.0</ele><time>2026-04-10T05:40:47.17Z</time></trkpt><trkpt lat="45.6524514" lon="10.1978736"><ele>268.0</ele><time>2026-04-10T05:41:07.389Z</time></trkpt><trkpt lat="45.6524461" lon="10.1977659"><ele>268.0</ele><time>2026-04-10T05:41:11.924Z</time></trkpt><trkpt lat="45.6524518" lon="10.197668"><ele>268.0</ele><time>2026-04-10T05:41:18.952Z</time></trkpt></trkseg></trk></gpx>